<?xml version="1.0" encoding="UTF-8" standalone="no" ?>
<gpx xmlns="http://www.topografix.com/GPX/1/1" xmlns:xsi="http://www.w3.org/2001/XMLSchema-instance" xsi:schemaLocation="http://www.topografix.com/GPX/1/1 http://www.topografix.com/GPX/1/1/gpx.xsd" version="1.1" creator="VisuGPX - https://www.visugpx.com">
  <metadata>
    <name>Tour sur le causse mejean depuis Le Veygalier</name>
    <desc><![CDATA[
Très belle rando sur le causse Méjean au départ du hameau du Veygalier. Paysages typiques du causse alternant "steppe" et zones boisées. Le détour par la ferme de Fretma vaut le coup d'oeil. Ferme superbement rénovée (privée entièrement) dans un cadre idyllique.]]></desc>
  </metadata>
  <wpt lat="44.24501" lon="3.49933">
    <ele>1150.8</ele>
    <name><![CDATA[Sous bois]]></name>
  </wpt>
  <wpt lat="44.24885" lon="3.48575">
    <ele>1148.3</ele>
    <name><![CDATA[Fretma]]></name>
  </wpt>
  <wpt lat="44.2475" lon="3.48228">
    <ele>1127.8</ele>
    <name><![CDATA[Fretma ]]></name>
  </wpt>
  <trk>
    <name><![CDATA[Tour sur le causse mejean depuis Le Veygalier]]></name>
    <desc><![CDATA[Très belle rando sur le causse Méjean au départ du hameau du Veygalier. Paysages typiques du causse alternant "steppe" et zones boisées. Le détour par la ferme de Fretma vaut le coup d'oeil. Ferme superbement rénovée (privée entièrement) dans un cadre idyllique.]]></desc>
    <extensions>
      <line xmlns="http://www.topografix.com/GPX/gpx_style/0/2">
        <color>0000FF</color>
        <width>4</width>
      </line>
    </extensions>
    <trkseg>
      <trkpt lat="44.22955" lon="3.52466">
        <ele>1162.296</ele>
        <time>2019-07-29T13:04:17Z</time>
      </trkpt>
      <trkpt lat="44.22957" lon="3.52473">
        <ele>1162.231</ele>
        <time>2019-07-29T13:04:25Z</time>
      </trkpt>
      <trkpt lat="44.22957" lon="3.52481">
        <ele>1162.224</ele>
        <time>2019-07-29T13:04:30Z</time>
      </trkpt>
      <trkpt lat="44.22955" lon="3.52488">
        <ele>1162.208</ele>
        <time>2019-07-29T13:04:35Z</time>
      </trkpt>
      <trkpt lat="44.22954" lon="3.52495">
        <ele>1162.222</ele>
        <time>2019-07-29T13:04:42Z</time>
      </trkpt>
      <trkpt lat="44.22952" lon="3.52501">
        <ele>1162.258</ele>
        <time>2019-07-29T13:04:47Z</time>
      </trkpt>
      <trkpt lat="44.2295" lon="3.52508">
        <ele>1162.293</ele>
        <time>2019-07-29T13:04:52Z</time>
      </trkpt>
      <trkpt lat="44.22949" lon="3.52515">
        <ele>1162.287</ele>
        <time>2019-07-29T13:04:57Z</time>
      </trkpt>
      <trkpt lat="44.22947" lon="3.52521">
        <ele>1162.251</ele>
        <time>2019-07-29T13:05:02Z</time>
      </trkpt>
      <trkpt lat="44.22944" lon="3.52526">
        <ele>1162.212</ele>
        <time>2019-07-29T13:05:08Z</time>
      </trkpt>
      <trkpt lat="44.22942" lon="3.52532">
        <ele>1162.226</ele>
        <time>2019-07-29T13:05:13Z</time>
      </trkpt>
      <trkpt lat="44.22939" lon="3.52546">
        <ele>1162.255</ele>
        <time>2019-07-29T13:07:16Z</time>
      </trkpt>
      <trkpt lat="44.22939" lon="3.52552">
        <ele>1162.282</ele>
        <time>2019-07-29T13:07:42Z</time>
      </trkpt>
      <trkpt lat="44.22942" lon="3.52558">
        <ele>1162.243</ele>
        <time>2019-07-29T13:07:48Z</time>
      </trkpt>
      <trkpt lat="44.22946" lon="3.52553">
        <ele>1162.217</ele>
        <time>2019-07-29T13:08:18Z</time>
      </trkpt>
      <trkpt lat="44.22951" lon="3.52552">
        <ele>1163.708</ele>
        <time>2019-07-29T13:08:21Z</time>
      </trkpt>
      <trkpt lat="44.22955" lon="3.52551">
        <ele>1165.091</ele>
        <time>2019-07-29T13:08:25Z</time>
      </trkpt>
      <trkpt lat="44.2296" lon="3.52549">
        <ele>1165.437</ele>
        <time>2019-07-29T13:08:29Z</time>
      </trkpt>
      <trkpt lat="44.22964" lon="3.52545">
        <ele>1166.082</ele>
        <time>2019-07-29T13:08:33Z</time>
      </trkpt>
      <trkpt lat="44.22969" lon="3.52542">
        <ele>1166.846</ele>
        <time>2019-07-29T13:08:38Z</time>
      </trkpt>
      <trkpt lat="44.22974" lon="3.52539">
        <ele>1167.76</ele>
        <time>2019-07-29T13:08:42Z</time>
      </trkpt>
      <trkpt lat="44.22979" lon="3.52535">
        <ele>1167.831</ele>
        <time>2019-07-29T13:08:47Z</time>
      </trkpt>
      <trkpt lat="44.22984" lon="3.52533">
        <ele>1167.995</ele>
        <time>2019-07-29T13:08:52Z</time>
      </trkpt>
      <trkpt lat="44.2299" lon="3.52532">
        <ele>1167.934</ele>
        <time>2019-07-29T13:08:56Z</time>
      </trkpt>
      <trkpt lat="44.22993" lon="3.52527">
        <ele>1167.993</ele>
        <time>2019-07-29T13:09:01Z</time>
      </trkpt>
      <trkpt lat="44.22997" lon="3.52521">
        <ele>1168.765</ele>
        <time>2019-07-29T13:09:06Z</time>
      </trkpt>
      <trkpt lat="44.23002" lon="3.52517">
        <ele>1170.021</ele>
        <time>2019-07-29T13:09:10Z</time>
      </trkpt>
      <trkpt lat="44.23008" lon="3.52515">
        <ele>1170.808</ele>
        <time>2019-07-29T13:09:14Z</time>
      </trkpt>
      <trkpt lat="44.23013" lon="3.52512">
        <ele>1171.782</ele>
        <time>2019-07-29T13:09:17Z</time>
      </trkpt>
      <trkpt lat="44.23016" lon="3.52508">
        <ele>1172.288</ele>
        <time>2019-07-29T13:09:21Z</time>
      </trkpt>
      <trkpt lat="44.23018" lon="3.52502">
        <ele>1171.313</ele>
        <time>2019-07-29T13:09:27Z</time>
      </trkpt>
      <trkpt lat="44.23021" lon="3.52497">
        <ele>1170.497</ele>
        <time>2019-07-29T13:09:33Z</time>
      </trkpt>
      <trkpt lat="44.23025" lon="3.52492">
        <ele>1169.851</ele>
        <time>2019-07-29T13:09:38Z</time>
      </trkpt>
      <trkpt lat="44.2303" lon="3.52491">
        <ele>1170.352</ele>
        <time>2019-07-29T13:09:41Z</time>
      </trkpt>
      <trkpt lat="44.23035" lon="3.52488">
        <ele>1171.016</ele>
        <time>2019-07-29T13:09:45Z</time>
      </trkpt>
      <trkpt lat="44.23039" lon="3.52485">
        <ele>1171.885</ele>
        <time>2019-07-29T13:09:49Z</time>
      </trkpt>
      <trkpt lat="44.23044" lon="3.52483">
        <ele>1172.753</ele>
        <time>2019-07-29T13:09:51Z</time>
      </trkpt>
      <trkpt lat="44.23049" lon="3.5248">
        <ele>1173.204</ele>
        <time>2019-07-29T13:09:54Z</time>
      </trkpt>
      <trkpt lat="44.23053" lon="3.52477">
        <ele>1173.914</ele>
        <time>2019-07-29T13:09:58Z</time>
      </trkpt>
      <trkpt lat="44.23057" lon="3.52473">
        <ele>1173.508</ele>
        <time>2019-07-29T13:10:05Z</time>
      </trkpt>
      <trkpt lat="44.23062" lon="3.52471">
        <ele>1173.758</ele>
        <time>2019-07-29T13:10:10Z</time>
      </trkpt>
      <trkpt lat="44.23067" lon="3.5247">
        <ele>1174.284</ele>
        <time>2019-07-29T13:10:13Z</time>
      </trkpt>
      <trkpt lat="44.23072" lon="3.52467">
        <ele>1174.179</ele>
        <time>2019-07-29T13:10:18Z</time>
      </trkpt>
      <trkpt lat="44.23076" lon="3.52466">
        <ele>1173.693</ele>
        <time>2019-07-29T13:10:22Z</time>
      </trkpt>
      <trkpt lat="44.23081" lon="3.52464">
        <ele>1172.537</ele>
        <time>2019-07-29T13:10:26Z</time>
      </trkpt>
      <trkpt lat="44.23085" lon="3.52461">
        <ele>1171.988</ele>
        <time>2019-07-29T13:10:31Z</time>
      </trkpt>
      <trkpt lat="44.2309" lon="3.52458">
        <ele>1172.752</ele>
        <time>2019-07-29T13:10:36Z</time>
      </trkpt>
      <trkpt lat="44.23095" lon="3.52454">
        <ele>1173.221</ele>
        <time>2019-07-29T13:10:40Z</time>
      </trkpt>
      <trkpt lat="44.23099" lon="3.5245">
        <ele>1174.369</ele>
        <time>2019-07-29T13:10:44Z</time>
      </trkpt>
      <trkpt lat="44.23104" lon="3.52446">
        <ele>1175.804</ele>
        <time>2019-07-29T13:10:48Z</time>
      </trkpt>
      <trkpt lat="44.23108" lon="3.52444">
        <ele>1177.124</ele>
        <time>2019-07-29T13:10:52Z</time>
      </trkpt>
      <trkpt lat="44.23113" lon="3.5244">
        <ele>1178.708</ele>
        <time>2019-07-29T13:10:56Z</time>
      </trkpt>
      <trkpt lat="44.23118" lon="3.52439">
        <ele>1179.659</ele>
        <time>2019-07-29T13:11:00Z</time>
      </trkpt>
      <trkpt lat="44.23122" lon="3.52435">
        <ele>1180.225</ele>
        <time>2019-07-29T13:11:04Z</time>
      </trkpt>
      <trkpt lat="44.23126" lon="3.52432">
        <ele>1179.78</ele>
        <time>2019-07-29T13:11:09Z</time>
      </trkpt>
      <trkpt lat="44.2313" lon="3.52429">
        <ele>1179.454</ele>
        <time>2019-07-29T13:11:13Z</time>
      </trkpt>
      <trkpt lat="44.23134" lon="3.52424">
        <ele>1179.278</ele>
        <time>2019-07-29T13:11:18Z</time>
      </trkpt>
      <trkpt lat="44.2314" lon="3.52423">
        <ele>1178.769</ele>
        <time>2019-07-29T13:11:22Z</time>
      </trkpt>
      <trkpt lat="44.23144" lon="3.52423">
        <ele>1178.063</ele>
        <time>2019-07-29T13:11:26Z</time>
      </trkpt>
      <trkpt lat="44.2315" lon="3.52423">
        <ele>1178.022</ele>
        <time>2019-07-29T13:11:29Z</time>
      </trkpt>
      <trkpt lat="44.23154" lon="3.5242">
        <ele>1178.442</ele>
        <time>2019-07-29T13:11:32Z</time>
      </trkpt>
      <trkpt lat="44.23157" lon="3.52414">
        <ele>1178.622</ele>
        <time>2019-07-29T13:11:37Z</time>
      </trkpt>
      <trkpt lat="44.23161" lon="3.52411">
        <ele>1178.314</ele>
        <time>2019-07-29T13:11:41Z</time>
      </trkpt>
      <trkpt lat="44.23166" lon="3.52408">
        <ele>1178.908</ele>
        <time>2019-07-29T13:11:45Z</time>
      </trkpt>
      <trkpt lat="44.23172" lon="3.52406">
        <ele>1179.387</ele>
        <time>2019-07-29T13:11:49Z</time>
      </trkpt>
      <trkpt lat="44.23177" lon="3.52405">
        <ele>1180.393</ele>
        <time>2019-07-29T13:11:51Z</time>
      </trkpt>
      <trkpt lat="44.23181" lon="3.52403">
        <ele>1179.758</ele>
        <time>2019-07-29T13:11:56Z</time>
      </trkpt>
      <trkpt lat="44.23186" lon="3.524">
        <ele>1180.242</ele>
        <time>2019-07-29T13:12:00Z</time>
      </trkpt>
      <trkpt lat="44.2319" lon="3.52398">
        <ele>1179.396</ele>
        <time>2019-07-29T13:12:05Z</time>
      </trkpt>
      <trkpt lat="44.23196" lon="3.52397">
        <ele>1179.537</ele>
        <time>2019-07-29T13:12:09Z</time>
      </trkpt>
      <trkpt lat="44.23201" lon="3.52394">
        <ele>1180.031</ele>
        <time>2019-07-29T13:12:13Z</time>
      </trkpt>
      <trkpt lat="44.23205" lon="3.52391">
        <ele>1181.51</ele>
        <time>2019-07-29T13:12:17Z</time>
      </trkpt>
      <trkpt lat="44.2321" lon="3.5239">
        <ele>1182.022</ele>
        <time>2019-07-29T13:12:21Z</time>
      </trkpt>
      <trkpt lat="44.23215" lon="3.5239">
        <ele>1182.362</ele>
        <time>2019-07-29T13:12:24Z</time>
      </trkpt>
      <trkpt lat="44.23219" lon="3.5239">
        <ele>1182.108</ele>
        <time>2019-07-29T13:12:30Z</time>
      </trkpt>
      <trkpt lat="44.23223" lon="3.52387">
        <ele>1180.008</ele>
        <time>2019-07-29T13:12:38Z</time>
      </trkpt>
      <trkpt lat="44.23228" lon="3.52385">
        <ele>1179.565</ele>
        <time>2019-07-29T13:12:42Z</time>
      </trkpt>
      <trkpt lat="44.23234" lon="3.52384">
        <ele>1179.621</ele>
        <time>2019-07-29T13:12:45Z</time>
      </trkpt>
      <trkpt lat="44.23238" lon="3.52381">
        <ele>1178.916</ele>
        <time>2019-07-29T13:12:48Z</time>
      </trkpt>
      <trkpt lat="44.23243" lon="3.52376">
        <ele>1177.77</ele>
        <time>2019-07-29T13:12:53Z</time>
      </trkpt>
      <trkpt lat="44.23248" lon="3.52375">
        <ele>1177.014</ele>
        <time>2019-07-29T13:12:58Z</time>
      </trkpt>
      <trkpt lat="44.23252" lon="3.52373">
        <ele>1176.695</ele>
        <time>2019-07-29T13:13:03Z</time>
      </trkpt>
      <trkpt lat="44.23258" lon="3.52372">
        <ele>1176.769</ele>
        <time>2019-07-29T13:13:06Z</time>
      </trkpt>
      <trkpt lat="44.23263" lon="3.52371">
        <ele>1177.648</ele>
        <time>2019-07-29T13:14:27Z</time>
      </trkpt>
      <trkpt lat="44.23269" lon="3.5237">
        <ele>1178.937</ele>
        <time>2019-07-29T13:14:29Z</time>
      </trkpt>
      <trkpt lat="44.23275" lon="3.52369">
        <ele>1180.149</ele>
        <time>2019-07-29T13:14:31Z</time>
      </trkpt>
      <trkpt lat="44.2328" lon="3.52366">
        <ele>1180.413</ele>
        <time>2019-07-29T13:14:34Z</time>
      </trkpt>
      <trkpt lat="44.23285" lon="3.52363">
        <ele>1179.408</ele>
        <time>2019-07-29T13:14:37Z</time>
      </trkpt>
      <trkpt lat="44.23291" lon="3.5236">
        <ele>1178.866</ele>
        <time>2019-07-29T13:14:41Z</time>
      </trkpt>
      <trkpt lat="44.23296" lon="3.52357">
        <ele>1179.212</ele>
        <time>2019-07-29T13:14:45Z</time>
      </trkpt>
      <trkpt lat="44.23301" lon="3.52356">
        <ele>1179.977</ele>
        <time>2019-07-29T13:14:49Z</time>
      </trkpt>
      <trkpt lat="44.23306" lon="3.52353">
        <ele>1179.531</ele>
        <time>2019-07-29T13:14:55Z</time>
      </trkpt>
      <trkpt lat="44.2331" lon="3.52348">
        <ele>1178.595</ele>
        <time>2019-07-29T13:15:00Z</time>
      </trkpt>
      <trkpt lat="44.23314" lon="3.52343">
        <ele>1179.536</ele>
        <time>2019-07-29T13:15:05Z</time>
      </trkpt>
      <trkpt lat="44.23319" lon="3.5234">
        <ele>1181.34</ele>
        <time>2019-07-29T13:15:09Z</time>
      </trkpt>
      <trkpt lat="44.23324" lon="3.52336">
        <ele>1183.219</ele>
        <time>2019-07-29T13:15:13Z</time>
      </trkpt>
      <trkpt lat="44.23327" lon="3.52331">
        <ele>1183.137</ele>
        <time>2019-07-29T13:15:18Z</time>
      </trkpt>
      <trkpt lat="44.23332" lon="3.52328">
        <ele>1183.549</ele>
        <time>2019-07-29T13:15:24Z</time>
      </trkpt>
      <trkpt lat="44.23335" lon="3.52323">
        <ele>1183.713</ele>
        <time>2019-07-29T13:15:29Z</time>
      </trkpt>
      <trkpt lat="44.2334" lon="3.52322">
        <ele>1183.408</ele>
        <time>2019-07-29T13:15:31Z</time>
      </trkpt>
      <trkpt lat="44.23347" lon="3.52321">
        <ele>1182.896</ele>
        <time>2019-07-29T13:15:34Z</time>
      </trkpt>
      <trkpt lat="44.23352" lon="3.52319">
        <ele>1182.152</ele>
        <time>2019-07-29T13:15:38Z</time>
      </trkpt>
      <trkpt lat="44.23357" lon="3.5232">
        <ele>1181.737</ele>
        <time>2019-07-29T13:15:41Z</time>
      </trkpt>
      <trkpt lat="44.23361" lon="3.52315">
        <ele>1181.421</ele>
        <time>2019-07-29T13:15:46Z</time>
      </trkpt>
      <trkpt lat="44.23365" lon="3.52312">
        <ele>1182.085</ele>
        <time>2019-07-29T13:15:51Z</time>
      </trkpt>
      <trkpt lat="44.2337" lon="3.5231">
        <ele>1182.036</ele>
        <time>2019-07-29T13:15:54Z</time>
      </trkpt>
      <trkpt lat="44.23375" lon="3.52305">
        <ele>1181.65</ele>
        <time>2019-07-29T13:15:58Z</time>
      </trkpt>
      <trkpt lat="44.2338" lon="3.52305">
        <ele>1181.839</ele>
        <time>2019-07-29T13:16:04Z</time>
      </trkpt>
      <trkpt lat="44.23385" lon="3.52304">
        <ele>1182.313</ele>
        <time>2019-07-29T13:16:08Z</time>
      </trkpt>
      <trkpt lat="44.23391" lon="3.52302">
        <ele>1183.443</ele>
        <time>2019-07-29T13:16:12Z</time>
      </trkpt>
      <trkpt lat="44.23395" lon="3.523">
        <ele>1184.107</ele>
        <time>2019-07-29T13:16:16Z</time>
      </trkpt>
      <trkpt lat="44.234" lon="3.52296">
        <ele>1185.308</ele>
        <time>2019-07-29T13:16:23Z</time>
      </trkpt>
      <trkpt lat="44.23404" lon="3.52292">
        <ele>1186.034</ele>
        <time>2019-07-29T13:16:27Z</time>
      </trkpt>
      <trkpt lat="44.23409" lon="3.52288">
        <ele>1187.22</ele>
        <time>2019-07-29T13:16:31Z</time>
      </trkpt>
      <trkpt lat="44.23414" lon="3.52285">
        <ele>1187.595</ele>
        <time>2019-07-29T13:16:36Z</time>
      </trkpt>
      <trkpt lat="44.23419" lon="3.52284">
        <ele>1187.719</ele>
        <time>2019-07-29T13:16:39Z</time>
      </trkpt>
      <trkpt lat="44.23424" lon="3.52283">
        <ele>1188.283</ele>
        <time>2019-07-29T13:16:42Z</time>
      </trkpt>
      <trkpt lat="44.23429" lon="3.52282">
        <ele>1188.174</ele>
        <time>2019-07-29T13:16:46Z</time>
      </trkpt>
      <trkpt lat="44.23434" lon="3.5228">
        <ele>1186.878</ele>
        <time>2019-07-29T13:17:26Z</time>
      </trkpt>
      <trkpt lat="44.23438" lon="3.52277">
        <ele>1185.617</ele>
        <time>2019-07-29T13:17:29Z</time>
      </trkpt>
      <trkpt lat="44.23443" lon="3.52274">
        <ele>1185.396</ele>
        <time>2019-07-29T13:17:32Z</time>
      </trkpt>
      <trkpt lat="44.23448" lon="3.52272">
        <ele>1185.131</ele>
        <time>2019-07-29T13:17:35Z</time>
      </trkpt>
      <trkpt lat="44.23449" lon="3.52265">
        <ele>1186.224</ele>
        <time>2019-07-29T13:18:09Z</time>
      </trkpt>
      <trkpt lat="44.23453" lon="3.52262">
        <ele>1186.508</ele>
        <time>2019-07-29T13:18:13Z</time>
      </trkpt>
      <trkpt lat="44.23459" lon="3.52259">
        <ele>1185.582</ele>
        <time>2019-07-29T13:18:16Z</time>
      </trkpt>
      <trkpt lat="44.23463" lon="3.52255">
        <ele>1185.768</ele>
        <time>2019-07-29T13:18:20Z</time>
      </trkpt>
      <trkpt lat="44.23467" lon="3.5225">
        <ele>1185.813</ele>
        <time>2019-07-29T13:18:24Z</time>
      </trkpt>
      <trkpt lat="44.23472" lon="3.52245">
        <ele>1186.367</ele>
        <time>2019-07-29T13:18:28Z</time>
      </trkpt>
      <trkpt lat="44.23474" lon="3.52239">
        <ele>1186.251</ele>
        <time>2019-07-29T13:18:32Z</time>
      </trkpt>
      <trkpt lat="44.23476" lon="3.52232">
        <ele>1186.112</ele>
        <time>2019-07-29T13:18:36Z</time>
      </trkpt>
      <trkpt lat="44.23476" lon="3.52225">
        <ele>1186.576</ele>
        <time>2019-07-29T13:18:41Z</time>
      </trkpt>
      <trkpt lat="44.23477" lon="3.52217">
        <ele>1187.175</ele>
        <time>2019-07-29T13:18:46Z</time>
      </trkpt>
      <trkpt lat="44.23478" lon="3.52211">
        <ele>1187.126</ele>
        <time>2019-07-29T13:18:56Z</time>
      </trkpt>
      <trkpt lat="44.23479" lon="3.52204">
        <ele>1187.147</ele>
        <time>2019-07-29T13:19:00Z</time>
      </trkpt>
      <trkpt lat="44.23479" lon="3.52197">
        <ele>1187.911</ele>
        <time>2019-07-29T13:19:03Z</time>
      </trkpt>
      <trkpt lat="44.2348" lon="3.52191">
        <ele>1188.408</ele>
        <time>2019-07-29T13:19:06Z</time>
      </trkpt>
      <trkpt lat="44.2348" lon="3.52183">
        <ele>1189.185</ele>
        <time>2019-07-29T13:19:10Z</time>
      </trkpt>
      <trkpt lat="44.23479" lon="3.52176">
        <ele>1189.911</ele>
        <time>2019-07-29T13:19:14Z</time>
      </trkpt>
      <trkpt lat="44.23479" lon="3.52169">
        <ele>1190.876</ele>
        <time>2019-07-29T13:19:17Z</time>
      </trkpt>
      <trkpt lat="44.23478" lon="3.52162">
        <ele>1191.32</ele>
        <time>2019-07-29T13:19:22Z</time>
      </trkpt>
      <trkpt lat="44.23476" lon="3.52154">
        <ele>1192.014</ele>
        <time>2019-07-29T13:19:26Z</time>
      </trkpt>
      <trkpt lat="44.23473" lon="3.52148">
        <ele>1192.085</ele>
        <time>2019-07-29T13:19:29Z</time>
      </trkpt>
      <trkpt lat="44.23471" lon="3.52141">
        <ele>1192.899</ele>
        <time>2019-07-29T13:19:33Z</time>
      </trkpt>
      <trkpt lat="44.23469" lon="3.52135">
        <ele>1194.198</ele>
        <time>2019-07-29T13:19:36Z</time>
      </trkpt>
      <trkpt lat="44.23467" lon="3.52129">
        <ele>1195.374</ele>
        <time>2019-07-29T13:19:41Z</time>
      </trkpt>
      <trkpt lat="44.23464" lon="3.52122">
        <ele>1195.256</ele>
        <time>2019-07-29T13:19:47Z</time>
      </trkpt>
      <trkpt lat="44.23461" lon="3.52117">
        <ele>1194.721</ele>
        <time>2019-07-29T13:19:51Z</time>
      </trkpt>
      <trkpt lat="44.2346" lon="3.5211">
        <ele>1194.008</ele>
        <time>2019-07-29T13:19:56Z</time>
      </trkpt>
      <trkpt lat="44.23458" lon="3.52104">
        <ele>1193.21</ele>
        <time>2019-07-29T13:20:00Z</time>
      </trkpt>
      <trkpt lat="44.23456" lon="3.52097">
        <ele>1193.576</ele>
        <time>2019-07-29T13:20:05Z</time>
      </trkpt>
      <trkpt lat="44.23454" lon="3.52092">
        <ele>1193.371</ele>
        <time>2019-07-29T13:20:08Z</time>
      </trkpt>
      <trkpt lat="44.23452" lon="3.52086">
        <ele>1194.495</ele>
        <time>2019-07-29T13:20:12Z</time>
      </trkpt>
      <trkpt lat="44.23453" lon="3.52078">
        <ele>1193.839</ele>
        <time>2019-07-29T13:20:18Z</time>
      </trkpt>
      <trkpt lat="44.23456" lon="3.52071">
        <ele>1193.14</ele>
        <time>2019-07-29T13:20:23Z</time>
      </trkpt>
      <trkpt lat="44.23461" lon="3.5207">
        <ele>1193.194</ele>
        <time>2019-07-29T13:20:27Z</time>
      </trkpt>
      <trkpt lat="44.23466" lon="3.5207">
        <ele>1193.973</ele>
        <time>2019-07-29T13:20:34Z</time>
      </trkpt>
      <trkpt lat="44.2347" lon="3.52074">
        <ele>1194.454</ele>
        <time>2019-07-29T13:20:39Z</time>
      </trkpt>
      <trkpt lat="44.23475" lon="3.52076">
        <ele>1194.756</ele>
        <time>2019-07-29T13:20:44Z</time>
      </trkpt>
      <trkpt lat="44.2348" lon="3.52079">
        <ele>1195.311</ele>
        <time>2019-07-29T13:20:49Z</time>
      </trkpt>
      <trkpt lat="44.23485" lon="3.52081">
        <ele>1196.408</ele>
        <time>2019-07-29T13:20:53Z</time>
      </trkpt>
      <trkpt lat="44.2349" lon="3.52082">
        <ele>1197.168</ele>
        <time>2019-07-29T13:20:57Z</time>
      </trkpt>
      <trkpt lat="44.23496" lon="3.52083">
        <ele>1198.334</ele>
        <time>2019-07-29T13:21:01Z</time>
      </trkpt>
      <trkpt lat="44.23501" lon="3.52083">
        <ele>1197.079</ele>
        <time>2019-07-29T13:21:06Z</time>
      </trkpt>
      <trkpt lat="44.23506" lon="3.52085">
        <ele>1197.093</ele>
        <time>2019-07-29T13:21:12Z</time>
      </trkpt>
      <trkpt lat="44.2351" lon="3.52085">
        <ele>1197.857</ele>
        <time>2019-07-29T13:21:16Z</time>
      </trkpt>
      <trkpt lat="44.23515" lon="3.52085">
        <ele>1197.158</ele>
        <time>2019-07-29T13:21:22Z</time>
      </trkpt>
      <trkpt lat="44.23521" lon="3.52085">
        <ele>1196.362</ele>
        <time>2019-07-29T13:21:28Z</time>
      </trkpt>
      <trkpt lat="44.23526" lon="3.52086">
        <ele>1195.451</ele>
        <time>2019-07-29T13:21:32Z</time>
      </trkpt>
      <trkpt lat="44.23531" lon="3.52086">
        <ele>1195.328</ele>
        <time>2019-07-29T13:21:36Z</time>
      </trkpt>
      <trkpt lat="44.23536" lon="3.52088">
        <ele>1196.089</ele>
        <time>2019-07-29T13:21:40Z</time>
      </trkpt>
      <trkpt lat="44.23541" lon="3.52088">
        <ele>1197.217</ele>
        <time>2019-07-29T13:21:43Z</time>
      </trkpt>
      <trkpt lat="44.23547" lon="3.52091">
        <ele>1198.708</ele>
        <time>2019-07-29T13:22:30Z</time>
      </trkpt>
      <trkpt lat="44.23552" lon="3.52092">
        <ele>1200.865</ele>
        <time>2019-07-29T13:22:33Z</time>
      </trkpt>
      <trkpt lat="44.23557" lon="3.52093">
        <ele>1202.581</ele>
        <time>2019-07-29T13:22:36Z</time>
      </trkpt>
      <trkpt lat="44.23561" lon="3.52094">
        <ele>1202.726</ele>
        <time>2019-07-29T13:22:39Z</time>
      </trkpt>
      <trkpt lat="44.23566" lon="3.52094">
        <ele>1202.08</ele>
        <time>2019-07-29T13:22:42Z</time>
      </trkpt>
      <trkpt lat="44.23572" lon="3.52094">
        <ele>1201.254</ele>
        <time>2019-07-29T13:22:46Z</time>
      </trkpt>
      <trkpt lat="44.23577" lon="3.52095">
        <ele>1201.115</ele>
        <time>2019-07-29T13:22:49Z</time>
      </trkpt>
      <trkpt lat="44.23583" lon="3.52094">
        <ele>1200.649</ele>
        <time>2019-07-29T13:22:52Z</time>
      </trkpt>
      <trkpt lat="44.23588" lon="3.52092">
        <ele>1200.798</ele>
        <time>2019-07-29T13:22:58Z</time>
      </trkpt>
      <trkpt lat="44.23593" lon="3.52089">
        <ele>1200.432</ele>
        <time>2019-07-29T13:23:03Z</time>
      </trkpt>
      <trkpt lat="44.23599" lon="3.52086">
        <ele>1200.692</ele>
        <time>2019-07-29T13:23:07Z</time>
      </trkpt>
      <trkpt lat="44.23604" lon="3.52083">
        <ele>1201.111</ele>
        <time>2019-07-29T13:23:11Z</time>
      </trkpt>
      <trkpt lat="44.23608" lon="3.52081">
        <ele>1201.808</ele>
        <time>2019-07-29T13:23:14Z</time>
      </trkpt>
      <trkpt lat="44.23614" lon="3.5208">
        <ele>1201.066</ele>
        <time>2019-07-29T13:23:19Z</time>
      </trkpt>
      <trkpt lat="44.23618" lon="3.52077">
        <ele>1200.542</ele>
        <time>2019-07-29T13:23:22Z</time>
      </trkpt>
      <trkpt lat="44.23622" lon="3.52076">
        <ele>1199.467</ele>
        <time>2019-07-29T13:23:25Z</time>
      </trkpt>
      <trkpt lat="44.23626" lon="3.52073">
        <ele>1198.451</ele>
        <time>2019-07-29T13:23:29Z</time>
      </trkpt>
      <trkpt lat="44.23631" lon="3.5207">
        <ele>1198.255</ele>
        <time>2019-07-29T13:23:33Z</time>
      </trkpt>
      <trkpt lat="44.23635" lon="3.52065">
        <ele>1198.126</ele>
        <time>2019-07-29T13:23:39Z</time>
      </trkpt>
      <trkpt lat="44.23638" lon="3.5206">
        <ele>1199.64</ele>
        <time>2019-07-29T13:23:42Z</time>
      </trkpt>
      <trkpt lat="44.23642" lon="3.52055">
        <ele>1200.179</ele>
        <time>2019-07-29T13:23:46Z</time>
      </trkpt>
      <trkpt lat="44.23646" lon="3.52051">
        <ele>1201.291</ele>
        <time>2019-07-29T13:23:51Z</time>
      </trkpt>
      <trkpt lat="44.23649" lon="3.52045">
        <ele>1202.781</ele>
        <time>2019-07-29T13:23:55Z</time>
      </trkpt>
      <trkpt lat="44.23652" lon="3.52039">
        <ele>1203.619</ele>
        <time>2019-07-29T13:24:00Z</time>
      </trkpt>
      <trkpt lat="44.23656" lon="3.52035">
        <ele>1204.508</ele>
        <time>2019-07-29T13:24:04Z</time>
      </trkpt>
      <trkpt lat="44.2366" lon="3.52032">
        <ele>1205.592</ele>
        <time>2019-07-29T13:24:08Z</time>
      </trkpt>
      <trkpt lat="44.23665" lon="3.52029">
        <ele>1206.138</ele>
        <time>2019-07-29T13:24:14Z</time>
      </trkpt>
      <trkpt lat="44.2367" lon="3.52026">
        <ele>1205.683</ele>
        <time>2019-07-29T13:24:19Z</time>
      </trkpt>
      <trkpt lat="44.23675" lon="3.52023">
        <ele>1204.917</ele>
        <time>2019-07-29T13:24:23Z</time>
      </trkpt>
      <trkpt lat="44.23677" lon="3.52018">
        <ele>1204.591</ele>
        <time>2019-07-29T13:24:27Z</time>
      </trkpt>
      <trkpt lat="44.23681" lon="3.52013">
        <ele>1205.112</ele>
        <time>2019-07-29T13:24:31Z</time>
      </trkpt>
      <trkpt lat="44.23685" lon="3.5201">
        <ele>1205.876</ele>
        <time>2019-07-29T13:24:34Z</time>
      </trkpt>
      <trkpt lat="44.2369" lon="3.52006">
        <ele>1206.245</ele>
        <time>2019-07-29T13:24:38Z</time>
      </trkpt>
      <trkpt lat="44.23694" lon="3.52002">
        <ele>1206.519</ele>
        <time>2019-07-29T13:24:42Z</time>
      </trkpt>
      <trkpt lat="44.23699" lon="3.52">
        <ele>1206.709</ele>
        <time>2019-07-29T13:24:46Z</time>
      </trkpt>
      <trkpt lat="44.23704" lon="3.51999">
        <ele>1206.419</ele>
        <time>2019-07-29T13:24:49Z</time>
      </trkpt>
      <trkpt lat="44.23709" lon="3.51998">
        <ele>1206.208</ele>
        <time>2019-07-29T13:24:53Z</time>
      </trkpt>
      <trkpt lat="44.23714" lon="3.51997">
        <ele>1203.384</ele>
        <time>2019-07-29T13:25:27Z</time>
      </trkpt>
      <trkpt lat="44.23719" lon="3.51997">
        <ele>1200.47</ele>
        <time>2019-07-29T13:25:32Z</time>
      </trkpt>
      <trkpt lat="44.23724" lon="3.51997">
        <ele>1199.085</ele>
        <time>2019-07-29T13:25:35Z</time>
      </trkpt>
      <trkpt lat="44.23729" lon="3.51999">
        <ele>1198.659</ele>
        <time>2019-07-29T13:25:39Z</time>
      </trkpt>
      <trkpt lat="44.23734" lon="3.52002">
        <ele>1198.763</ele>
        <time>2019-07-29T13:25:44Z</time>
      </trkpt>
      <trkpt lat="44.23739" lon="3.52003">
        <ele>1198.814</ele>
        <time>2019-07-29T13:25:48Z</time>
      </trkpt>
      <trkpt lat="44.23744" lon="3.52005">
        <ele>1199.318</ele>
        <time>2019-07-29T13:25:53Z</time>
      </trkpt>
      <trkpt lat="44.23749" lon="3.52007">
        <ele>1200.087</ele>
        <time>2019-07-29T13:25:56Z</time>
      </trkpt>
      <trkpt lat="44.23753" lon="3.52008">
        <ele>1199.699</ele>
        <time>2019-07-29T13:25:59Z</time>
      </trkpt>
      <trkpt lat="44.23758" lon="3.5201">
        <ele>1199.807</ele>
        <time>2019-07-29T13:26:03Z</time>
      </trkpt>
      <trkpt lat="44.23762" lon="3.52013">
        <ele>1199.127</ele>
        <time>2019-07-29T13:26:07Z</time>
      </trkpt>
      <trkpt lat="44.23767" lon="3.52017">
        <ele>1198.708</ele>
        <time>2019-07-29T13:26:12Z</time>
      </trkpt>
      <trkpt lat="44.23771" lon="3.5202">
        <ele>1198.892</ele>
        <time>2019-07-29T13:26:16Z</time>
      </trkpt>
      <trkpt lat="44.23776" lon="3.52024">
        <ele>1198.918</ele>
        <time>2019-07-29T13:26:20Z</time>
      </trkpt>
      <trkpt lat="44.23781" lon="3.52027">
        <ele>1199.893</ele>
        <time>2019-07-29T13:26:24Z</time>
      </trkpt>
      <trkpt lat="44.23786" lon="3.5203">
        <ele>1200.367</ele>
        <time>2019-07-29T13:26:28Z</time>
      </trkpt>
      <trkpt lat="44.2379" lon="3.52033">
        <ele>1200.691</ele>
        <time>2019-07-29T13:26:33Z</time>
      </trkpt>
      <trkpt lat="44.23795" lon="3.52035">
        <ele>1200.022</ele>
        <time>2019-07-29T13:26:38Z</time>
      </trkpt>
      <trkpt lat="44.238" lon="3.52037">
        <ele>1198.846</ele>
        <time>2019-07-29T13:26:42Z</time>
      </trkpt>
      <trkpt lat="44.23805" lon="3.52038">
        <ele>1198.175</ele>
        <time>2019-07-29T13:26:45Z</time>
      </trkpt>
      <trkpt lat="44.2381" lon="3.52041">
        <ele>1197.715</ele>
        <time>2019-07-29T13:26:49Z</time>
      </trkpt>
      <trkpt lat="44.23815" lon="3.52043">
        <ele>1197.865</ele>
        <time>2019-07-29T13:26:53Z</time>
      </trkpt>
      <trkpt lat="44.2382" lon="3.52044">
        <ele>1197.511</ele>
        <time>2019-07-29T13:26:56Z</time>
      </trkpt>
      <trkpt lat="44.23826" lon="3.52046">
        <ele>1197.708</ele>
        <time>2019-07-29T13:27:00Z</time>
      </trkpt>
      <trkpt lat="44.2383" lon="3.52047">
        <ele>1197.824</ele>
        <time>2019-07-29T13:27:03Z</time>
      </trkpt>
      <trkpt lat="44.23835" lon="3.52049">
        <ele>1197.95</ele>
        <time>2019-07-29T13:27:07Z</time>
      </trkpt>
      <trkpt lat="44.2384" lon="3.52051">
        <ele>1197.955</ele>
        <time>2019-07-29T13:27:12Z</time>
      </trkpt>
      <trkpt lat="44.23845" lon="3.52052">
        <ele>1197.949</ele>
        <time>2019-07-29T13:27:15Z</time>
      </trkpt>
      <trkpt lat="44.2385" lon="3.52054">
        <ele>1198.313</ele>
        <time>2019-07-29T13:27:18Z</time>
      </trkpt>
      <trkpt lat="44.23854" lon="3.52057">
        <ele>1197.784</ele>
        <time>2019-07-29T13:27:23Z</time>
      </trkpt>
      <trkpt lat="44.23859" lon="3.52059">
        <ele>1197.078</ele>
        <time>2019-07-29T13:27:27Z</time>
      </trkpt>
      <trkpt lat="44.23864" lon="3.52061">
        <ele>1195.477</ele>
        <time>2019-07-29T13:27:31Z</time>
      </trkpt>
      <trkpt lat="44.23869" lon="3.52064">
        <ele>1196.043</ele>
        <time>2019-07-29T13:27:36Z</time>
      </trkpt>
      <trkpt lat="44.23873" lon="3.52068">
        <ele>1197.664</ele>
        <time>2019-07-29T13:27:41Z</time>
      </trkpt>
      <trkpt lat="44.23877" lon="3.5207">
        <ele>1198.51</ele>
        <time>2019-07-29T13:27:44Z</time>
      </trkpt>
      <trkpt lat="44.23881" lon="3.52074">
        <ele>1199.108</ele>
        <time>2019-07-29T13:27:48Z</time>
      </trkpt>
      <trkpt lat="44.23885" lon="3.52078">
        <ele>1198.637</ele>
        <time>2019-07-29T13:27:53Z</time>
      </trkpt>
      <trkpt lat="44.23889" lon="3.52082">
        <ele>1198.733</ele>
        <time>2019-07-29T13:27:57Z</time>
      </trkpt>
      <trkpt lat="44.23893" lon="3.52087">
        <ele>1198.858</ele>
        <time>2019-07-29T13:28:02Z</time>
      </trkpt>
      <trkpt lat="44.23897" lon="3.52091">
        <ele>1198.822</ele>
        <time>2019-07-29T13:28:06Z</time>
      </trkpt>
      <trkpt lat="44.239" lon="3.52097">
        <ele>1198.416</ele>
        <time>2019-07-29T13:28:11Z</time>
      </trkpt>
      <trkpt lat="44.23903" lon="3.52103">
        <ele>1197.827</ele>
        <time>2019-07-29T13:28:15Z</time>
      </trkpt>
      <trkpt lat="44.23906" lon="3.52108">
        <ele>1197.061</ele>
        <time>2019-07-29T13:28:20Z</time>
      </trkpt>
      <trkpt lat="44.2391" lon="3.52113">
        <ele>1196.92</ele>
        <time>2019-07-29T13:28:24Z</time>
      </trkpt>
      <trkpt lat="44.23913" lon="3.52118">
        <ele>1197.348</ele>
        <time>2019-07-29T13:28:28Z</time>
      </trkpt>
      <trkpt lat="44.23916" lon="3.52124">
        <ele>1197.561</ele>
        <time>2019-07-29T13:28:32Z</time>
      </trkpt>
      <trkpt lat="44.23921" lon="3.52128">
        <ele>1198.817</ele>
        <time>2019-07-29T13:28:36Z</time>
      </trkpt>
      <trkpt lat="44.23925" lon="3.52132">
        <ele>1198.808</ele>
        <time>2019-07-29T13:28:40Z</time>
      </trkpt>
      <trkpt lat="44.23928" lon="3.52136">
        <ele>1198.837</ele>
        <time>2019-07-29T13:28:44Z</time>
      </trkpt>
      <trkpt lat="44.23932" lon="3.5214">
        <ele>1199.653</ele>
        <time>2019-07-29T13:28:48Z</time>
      </trkpt>
      <trkpt lat="44.23937" lon="3.52144">
        <ele>1200.178</ele>
        <time>2019-07-29T13:28:52Z</time>
      </trkpt>
      <trkpt lat="44.23942" lon="3.52147">
        <ele>1200.442</ele>
        <time>2019-07-29T13:28:57Z</time>
      </trkpt>
      <trkpt lat="44.23947" lon="3.52148">
        <ele>1200.276</ele>
        <time>2019-07-29T13:29:02Z</time>
      </trkpt>
      <trkpt lat="44.23953" lon="3.52148">
        <ele>1200.997</ele>
        <time>2019-07-29T13:29:06Z</time>
      </trkpt>
      <trkpt lat="44.23958" lon="3.52148">
        <ele>1201.711</ele>
        <time>2019-07-29T13:29:09Z</time>
      </trkpt>
      <trkpt lat="44.23963" lon="3.52148">
        <ele>1201.42</ele>
        <time>2019-07-29T13:29:13Z</time>
      </trkpt>
      <trkpt lat="44.23968" lon="3.52148">
        <ele>1202.057</ele>
        <time>2019-07-29T13:29:17Z</time>
      </trkpt>
      <trkpt lat="44.23973" lon="3.52147">
        <ele>1202.4</ele>
        <time>2019-07-29T13:29:21Z</time>
      </trkpt>
      <trkpt lat="44.23978" lon="3.52148">
        <ele>1203.82</ele>
        <time>2019-07-29T13:29:26Z</time>
      </trkpt>
      <trkpt lat="44.23983" lon="3.52147">
        <ele>1204.308</ele>
        <time>2019-07-29T13:29:29Z</time>
      </trkpt>
      <trkpt lat="44.23988" lon="3.52146">
        <ele>1205.028</ele>
        <time>2019-07-29T13:29:32Z</time>
      </trkpt>
      <trkpt lat="44.23993" lon="3.52146">
        <ele>1204.654</ele>
        <time>2019-07-29T13:29:37Z</time>
      </trkpt>
      <trkpt lat="44.23998" lon="3.52143">
        <ele>1203.699</ele>
        <time>2019-07-29T13:29:43Z</time>
      </trkpt>
      <trkpt lat="44.24002" lon="3.52142">
        <ele>1203.423</ele>
        <time>2019-07-29T13:29:47Z</time>
      </trkpt>
      <trkpt lat="44.24007" lon="3.52142">
        <ele>1203.387</ele>
        <time>2019-07-29T13:29:51Z</time>
      </trkpt>
      <trkpt lat="44.24013" lon="3.52141">
        <ele>1203.288</ele>
        <time>2019-07-29T13:29:55Z</time>
      </trkpt>
      <trkpt lat="44.24018" lon="3.5214">
        <ele>1203.222</ele>
        <time>2019-07-29T13:29:59Z</time>
      </trkpt>
      <trkpt lat="44.24022" lon="3.52138">
        <ele>1203.631</ele>
        <time>2019-07-29T13:30:03Z</time>
      </trkpt>
      <trkpt lat="44.24028" lon="3.52138">
        <ele>1203.091</ele>
        <time>2019-07-29T13:30:08Z</time>
      </trkpt>
      <trkpt lat="44.24033" lon="3.52136">
        <ele>1203.181</ele>
        <time>2019-07-29T13:30:12Z</time>
      </trkpt>
      <trkpt lat="44.24038" lon="3.52135">
        <ele>1203.119</ele>
        <time>2019-07-29T13:31:04Z</time>
      </trkpt>
      <trkpt lat="44.24043" lon="3.52135">
        <ele>1204.308</ele>
        <time>2019-07-29T13:31:08Z</time>
      </trkpt>
      <trkpt lat="44.24048" lon="3.52134">
        <ele>1205.092</ele>
        <time>2019-07-29T13:31:11Z</time>
      </trkpt>
      <trkpt lat="44.24053" lon="3.52135">
        <ele>1205.018</ele>
        <time>2019-07-29T13:31:15Z</time>
      </trkpt>
      <trkpt lat="44.24057" lon="3.52134">
        <ele>1204.693</ele>
        <time>2019-07-29T13:31:19Z</time>
      </trkpt>
      <trkpt lat="44.24063" lon="3.52135">
        <ele>1204.847</ele>
        <time>2019-07-29T13:31:24Z</time>
      </trkpt>
      <trkpt lat="44.24069" lon="3.52135">
        <ele>1204.981</ele>
        <time>2019-07-29T13:31:28Z</time>
      </trkpt>
      <trkpt lat="44.24074" lon="3.52136">
        <ele>1205.092</ele>
        <time>2019-07-29T13:31:31Z</time>
      </trkpt>
      <trkpt lat="44.24078" lon="3.52135">
        <ele>1205.026</ele>
        <time>2019-07-29T13:31:33Z</time>
      </trkpt>
      <trkpt lat="44.24085" lon="3.52136">
        <ele>1205.835</ele>
        <time>2019-07-29T13:31:37Z</time>
      </trkpt>
      <trkpt lat="44.2409" lon="3.52138">
        <ele>1205.926</ele>
        <time>2019-07-29T13:31:41Z</time>
      </trkpt>
      <trkpt lat="44.24094" lon="3.5214">
        <ele>1205.647</ele>
        <time>2019-07-29T13:31:46Z</time>
      </trkpt>
      <trkpt lat="44.241" lon="3.52139">
        <ele>1205.411</ele>
        <time>2019-07-29T13:31:51Z</time>
      </trkpt>
      <trkpt lat="44.24104" lon="3.5214">
        <ele>1203.708</ele>
        <time>2019-07-29T13:31:57Z</time>
      </trkpt>
      <trkpt lat="44.24109" lon="3.5214">
        <ele>1202.715</ele>
        <time>2019-07-29T13:32:01Z</time>
      </trkpt>
      <trkpt lat="44.24114" lon="3.52142">
        <ele>1202.591</ele>
        <time>2019-07-29T13:32:04Z</time>
      </trkpt>
      <trkpt lat="44.24118" lon="3.52145">
        <ele>1201.616</ele>
        <time>2019-07-29T13:32:09Z</time>
      </trkpt>
      <trkpt lat="44.24123" lon="3.52146">
        <ele>1201.02</ele>
        <time>2019-07-29T13:32:13Z</time>
      </trkpt>
      <trkpt lat="44.24128" lon="3.52145">
        <ele>1201.184</ele>
        <time>2019-07-29T13:32:16Z</time>
      </trkpt>
      <trkpt lat="44.24134" lon="3.52147">
        <ele>1201.525</ele>
        <time>2019-07-29T13:32:20Z</time>
      </trkpt>
      <trkpt lat="44.24139" lon="3.52149">
        <ele>1202.679</ele>
        <time>2019-07-29T13:32:25Z</time>
      </trkpt>
      <trkpt lat="44.24145" lon="3.52151">
        <ele>1203.268</ele>
        <time>2019-07-29T13:32:29Z</time>
      </trkpt>
      <trkpt lat="44.24149" lon="3.52152">
        <ele>1203.259</ele>
        <time>2019-07-29T13:32:33Z</time>
      </trkpt>
      <trkpt lat="44.24154" lon="3.52153">
        <ele>1203.203</ele>
        <time>2019-07-29T13:32:37Z</time>
      </trkpt>
      <trkpt lat="44.2416" lon="3.52153">
        <ele>1202.423</ele>
        <time>2019-07-29T13:32:42Z</time>
      </trkpt>
      <trkpt lat="44.24164" lon="3.52154">
        <ele>1201.908</ele>
        <time>2019-07-29T13:32:46Z</time>
      </trkpt>
      <trkpt lat="44.2417" lon="3.52155">
        <ele>1200.428</ele>
        <time>2019-07-29T13:32:50Z</time>
      </trkpt>
      <trkpt lat="44.24175" lon="3.52155">
        <ele>1199.924</ele>
        <time>2019-07-29T13:32:54Z</time>
      </trkpt>
      <trkpt lat="44.2418" lon="3.52155">
        <ele>1199.649</ele>
        <time>2019-07-29T13:32:58Z</time>
      </trkpt>
      <trkpt lat="44.24185" lon="3.52156">
        <ele>1199.413</ele>
        <time>2019-07-29T13:33:02Z</time>
      </trkpt>
      <trkpt lat="44.2419" lon="3.52156">
        <ele>1198.987</ele>
        <time>2019-07-29T13:33:06Z</time>
      </trkpt>
      <trkpt lat="44.24194" lon="3.52157">
        <ele>1198.288</ele>
        <time>2019-07-29T13:33:11Z</time>
      </trkpt>
      <trkpt lat="44.242" lon="3.52159">
        <ele>1198.232</ele>
        <time>2019-07-29T13:33:15Z</time>
      </trkpt>
      <trkpt lat="44.24204" lon="3.5216">
        <ele>1198.281</ele>
        <time>2019-07-29T13:33:37Z</time>
      </trkpt>
      <trkpt lat="44.24209" lon="3.52161">
        <ele>1199.059</ele>
        <time>2019-07-29T13:33:40Z</time>
      </trkpt>
      <trkpt lat="44.24214" lon="3.52162">
        <ele>1199.503</ele>
        <time>2019-07-29T13:33:42Z</time>
      </trkpt>
      <trkpt lat="44.24219" lon="3.52162">
        <ele>1199.823</ele>
        <time>2019-07-29T13:33:45Z</time>
      </trkpt>
      <trkpt lat="44.24224" lon="3.52164">
        <ele>1200.008</ele>
        <time>2019-07-29T13:33:50Z</time>
      </trkpt>
      <trkpt lat="44.24228" lon="3.52167">
        <ele>1199.728</ele>
        <time>2019-07-29T13:33:54Z</time>
      </trkpt>
      <trkpt lat="44.24234" lon="3.52168">
        <ele>1200.314</ele>
        <time>2019-07-29T13:33:57Z</time>
      </trkpt>
      <trkpt lat="44.24239" lon="3.5217">
        <ele>1200.799</ele>
        <time>2019-07-29T13:34:01Z</time>
      </trkpt>
      <trkpt lat="44.24244" lon="3.5217">
        <ele>1200.193</ele>
        <time>2019-07-29T13:34:06Z</time>
      </trkpt>
      <trkpt lat="44.2425" lon="3.52173">
        <ele>1201.067</ele>
        <time>2019-07-29T13:34:10Z</time>
      </trkpt>
      <trkpt lat="44.24255" lon="3.52174">
        <ele>1201.528</ele>
        <time>2019-07-29T13:34:14Z</time>
      </trkpt>
      <trkpt lat="44.2426" lon="3.52175">
        <ele>1201.432</ele>
        <time>2019-07-29T13:34:18Z</time>
      </trkpt>
      <trkpt lat="44.24266" lon="3.52177">
        <ele>1200.581</ele>
        <time>2019-07-29T13:34:22Z</time>
      </trkpt>
      <trkpt lat="44.24271" lon="3.52176">
        <ele>1198.838</ele>
        <time>2019-07-29T13:34:27Z</time>
      </trkpt>
      <trkpt lat="44.24276" lon="3.52176">
        <ele>1197.87</ele>
        <time>2019-07-29T13:34:30Z</time>
      </trkpt>
      <trkpt lat="44.24281" lon="3.52178">
        <ele>1197.217</ele>
        <time>2019-07-29T13:34:34Z</time>
      </trkpt>
      <trkpt lat="44.24286" lon="3.52181">
        <ele>1196.408</ele>
        <time>2019-07-29T13:34:38Z</time>
      </trkpt>
      <trkpt lat="44.2429" lon="3.52182">
        <ele>1195.596</ele>
        <time>2019-07-29T13:34:42Z</time>
      </trkpt>
      <trkpt lat="44.24295" lon="3.52184">
        <ele>1195.452</ele>
        <time>2019-07-29T13:34:46Z</time>
      </trkpt>
      <trkpt lat="44.243" lon="3.52184">
        <ele>1194.917</ele>
        <time>2019-07-29T13:34:50Z</time>
      </trkpt>
      <trkpt lat="44.24305" lon="3.52186">
        <ele>1193.881</ele>
        <time>2019-07-29T13:34:56Z</time>
      </trkpt>
      <trkpt lat="44.2431" lon="3.52187">
        <ele>1193.655</ele>
        <time>2019-07-29T13:35:00Z</time>
      </trkpt>
      <trkpt lat="44.24315" lon="3.52188">
        <ele>1193.586</ele>
        <time>2019-07-29T13:35:04Z</time>
      </trkpt>
      <trkpt lat="44.24321" lon="3.52187">
        <ele>1193.89</ele>
        <time>2019-07-29T13:35:08Z</time>
      </trkpt>
      <trkpt lat="44.24326" lon="3.52191">
        <ele>1193.689</ele>
        <time>2019-07-29T13:35:12Z</time>
      </trkpt>
      <trkpt lat="44.2433" lon="3.52193">
        <ele>1193.597</ele>
        <time>2019-07-29T13:35:16Z</time>
      </trkpt>
      <trkpt lat="44.24335" lon="3.52195">
        <ele>1193.423</ele>
        <time>2019-07-29T13:35:20Z</time>
      </trkpt>
      <trkpt lat="44.24341" lon="3.52197">
        <ele>1194.625</ele>
        <time>2019-07-29T13:35:23Z</time>
      </trkpt>
      <trkpt lat="44.24345" lon="3.52199">
        <ele>1194.908</ele>
        <time>2019-07-29T13:35:27Z</time>
      </trkpt>
      <trkpt lat="44.2435" lon="3.52202">
        <ele>1195.182</ele>
        <time>2019-07-29T13:35:32Z</time>
      </trkpt>
      <trkpt lat="44.24355" lon="3.52204">
        <ele>1195.238</ele>
        <time>2019-07-29T13:35:36Z</time>
      </trkpt>
      <trkpt lat="44.24361" lon="3.52204">
        <ele>1194.543</ele>
        <time>2019-07-29T13:35:40Z</time>
      </trkpt>
      <trkpt lat="44.24367" lon="3.52208">
        <ele>1194.137</ele>
        <time>2019-07-29T13:35:50Z</time>
      </trkpt>
      <trkpt lat="44.24372" lon="3.52211">
        <ele>1194.681</ele>
        <time>2019-07-29T13:35:55Z</time>
      </trkpt>
      <trkpt lat="44.24377" lon="3.52213">
        <ele>1192.932</ele>
        <time>2019-07-29T13:36:00Z</time>
      </trkpt>
      <trkpt lat="44.24381" lon="3.52213">
        <ele>1190.796</ele>
        <time>2019-07-29T13:36:05Z</time>
      </trkpt>
      <trkpt lat="44.24386" lon="3.52212">
        <ele>1189.025</ele>
        <time>2019-07-29T13:36:10Z</time>
      </trkpt>
      <trkpt lat="44.24392" lon="3.52206">
        <ele>1188.426</ele>
        <time>2019-07-29T13:36:18Z</time>
      </trkpt>
      <trkpt lat="44.24394" lon="3.522">
        <ele>1187.247</ele>
        <time>2019-07-29T13:36:59Z</time>
      </trkpt>
      <trkpt lat="44.24392" lon="3.52193">
        <ele>1184.511</ele>
        <time>2019-07-29T13:37:06Z</time>
      </trkpt>
      <trkpt lat="44.2439" lon="3.52185">
        <ele>1182.908</ele>
        <time>2019-07-29T13:37:10Z</time>
      </trkpt>
      <trkpt lat="44.24387" lon="3.52179">
        <ele>1181.965</ele>
        <time>2019-07-29T13:37:14Z</time>
      </trkpt>
      <trkpt lat="44.24385" lon="3.52172">
        <ele>1181.321</ele>
        <time>2019-07-29T13:37:18Z</time>
      </trkpt>
      <trkpt lat="44.24384" lon="3.52165">
        <ele>1180.166</ele>
        <time>2019-07-29T13:37:22Z</time>
      </trkpt>
      <trkpt lat="44.24383" lon="3.52158">
        <ele>1180.28</ele>
        <time>2019-07-29T13:37:26Z</time>
      </trkpt>
      <trkpt lat="44.24382" lon="3.52151">
        <ele>1180.334</ele>
        <time>2019-07-29T13:37:30Z</time>
      </trkpt>
      <trkpt lat="44.24382" lon="3.52144">
        <ele>1179.545</ele>
        <time>2019-07-29T13:37:34Z</time>
      </trkpt>
      <trkpt lat="44.24383" lon="3.52137">
        <ele>1180.229</ele>
        <time>2019-07-29T13:37:38Z</time>
      </trkpt>
      <trkpt lat="44.24383" lon="3.52131">
        <ele>1181.848</ele>
        <time>2019-07-29T13:37:41Z</time>
      </trkpt>
      <trkpt lat="44.24382" lon="3.52124">
        <ele>1182.478</ele>
        <time>2019-07-29T13:37:45Z</time>
      </trkpt>
      <trkpt lat="44.2438" lon="3.52117">
        <ele>1182.833</ele>
        <time>2019-07-29T13:37:49Z</time>
      </trkpt>
      <trkpt lat="44.24377" lon="3.52111">
        <ele>1183.026</ele>
        <time>2019-07-29T13:37:53Z</time>
      </trkpt>
      <trkpt lat="44.24373" lon="3.52104">
        <ele>1182.708</ele>
        <time>2019-07-29T13:37:57Z</time>
      </trkpt>
      <trkpt lat="44.2437" lon="3.521">
        <ele>1182.96</ele>
        <time>2019-07-29T13:38:01Z</time>
      </trkpt>
      <trkpt lat="44.24366" lon="3.52096">
        <ele>1181.846</ele>
        <time>2019-07-29T13:38:05Z</time>
      </trkpt>
      <trkpt lat="44.24364" lon="3.5209">
        <ele>1182.011</ele>
        <time>2019-07-29T13:38:08Z</time>
      </trkpt>
      <trkpt lat="44.24361" lon="3.52085">
        <ele>1181.315</ele>
        <time>2019-07-29T13:38:13Z</time>
      </trkpt>
      <trkpt lat="44.24359" lon="3.52079">
        <ele>1181.319</ele>
        <time>2019-07-29T13:38:18Z</time>
      </trkpt>
      <trkpt lat="44.24355" lon="3.52074">
        <ele>1180.55</ele>
        <time>2019-07-29T13:38:23Z</time>
      </trkpt>
      <trkpt lat="44.24352" lon="3.52067">
        <ele>1179.284</ele>
        <time>2019-07-29T13:38:28Z</time>
      </trkpt>
      <trkpt lat="44.2435" lon="3.52061">
        <ele>1176.863</ele>
        <time>2019-07-29T13:38:33Z</time>
      </trkpt>
      <trkpt lat="44.24347" lon="3.52054">
        <ele>1175.812</ele>
        <time>2019-07-29T13:38:37Z</time>
      </trkpt>
      <trkpt lat="44.24346" lon="3.52047">
        <ele>1175.632</ele>
        <time>2019-07-29T13:38:40Z</time>
      </trkpt>
      <trkpt lat="44.24344" lon="3.5204">
        <ele>1175.505</ele>
        <time>2019-07-29T13:38:43Z</time>
      </trkpt>
      <trkpt lat="44.24342" lon="3.52034">
        <ele>1175.408</ele>
        <time>2019-07-29T13:38:46Z</time>
      </trkpt>
      <trkpt lat="44.24339" lon="3.52028">
        <ele>1175.434</ele>
        <time>2019-07-29T13:38:50Z</time>
      </trkpt>
      <trkpt lat="44.24337" lon="3.52023">
        <ele>1175.44</ele>
        <time>2019-07-29T13:38:54Z</time>
      </trkpt>
      <trkpt lat="44.24335" lon="3.52016">
        <ele>1175.045</ele>
        <time>2019-07-29T13:38:58Z</time>
      </trkpt>
      <trkpt lat="44.24334" lon="3.52009">
        <ele>1174.499</ele>
        <time>2019-07-29T13:39:02Z</time>
      </trkpt>
      <trkpt lat="44.24335" lon="3.52002">
        <ele>1173.293</ele>
        <time>2019-07-29T13:39:07Z</time>
      </trkpt>
      <trkpt lat="44.24337" lon="3.51996">
        <ele>1172.184</ele>
        <time>2019-07-29T13:39:11Z</time>
      </trkpt>
      <trkpt lat="44.24342" lon="3.51991">
        <ele>1171.418</ele>
        <time>2019-07-29T13:39:15Z</time>
      </trkpt>
      <trkpt lat="44.24348" lon="3.51989">
        <ele>1170.677</ele>
        <time>2019-07-29T13:39:19Z</time>
      </trkpt>
      <trkpt lat="44.24354" lon="3.51989">
        <ele>1169.742</ele>
        <time>2019-07-29T13:39:23Z</time>
      </trkpt>
      <trkpt lat="44.2436" lon="3.51988">
        <ele>1169.222</ele>
        <time>2019-07-29T13:39:31Z</time>
      </trkpt>
      <trkpt lat="44.24367" lon="3.51987">
        <ele>1168.914</ele>
        <time>2019-07-29T13:39:59Z</time>
      </trkpt>
      <trkpt lat="44.24373" lon="3.51986">
        <ele>1167.908</ele>
        <time>2019-07-29T13:40:02Z</time>
      </trkpt>
      <trkpt lat="44.24379" lon="3.51985">
        <ele>1167.347</ele>
        <time>2019-07-29T13:40:06Z</time>
      </trkpt>
      <trkpt lat="44.24384" lon="3.51984">
        <ele>1167.363</ele>
        <time>2019-07-29T13:40:10Z</time>
      </trkpt>
      <trkpt lat="44.24389" lon="3.51981">
        <ele>1166.568</ele>
        <time>2019-07-29T13:40:15Z</time>
      </trkpt>
      <trkpt lat="44.24393" lon="3.51977">
        <ele>1166.432</ele>
        <time>2019-07-29T13:40:20Z</time>
      </trkpt>
      <trkpt lat="44.24397" lon="3.51973">
        <ele>1166.476</ele>
        <time>2019-07-29T13:40:24Z</time>
      </trkpt>
      <trkpt lat="44.24401" lon="3.51969">
        <ele>1166.497</ele>
        <time>2019-07-29T13:40:29Z</time>
      </trkpt>
      <trkpt lat="44.24405" lon="3.51966">
        <ele>1166.461</ele>
        <time>2019-07-29T13:40:33Z</time>
      </trkpt>
      <trkpt lat="44.2441" lon="3.51963">
        <ele>1166.01</ele>
        <time>2019-07-29T13:40:37Z</time>
      </trkpt>
      <trkpt lat="44.24414" lon="3.51962">
        <ele>1165.845</ele>
        <time>2019-07-29T13:40:41Z</time>
      </trkpt>
      <trkpt lat="44.2442" lon="3.51959">
        <ele>1165.747</ele>
        <time>2019-07-29T13:40:46Z</time>
      </trkpt>
      <trkpt lat="44.24424" lon="3.51957">
        <ele>1165.211</ele>
        <time>2019-07-29T13:40:50Z</time>
      </trkpt>
      <trkpt lat="44.24429" lon="3.51955">
        <ele>1164.908</ele>
        <time>2019-07-29T13:40:54Z</time>
      </trkpt>
      <trkpt lat="44.24435" lon="3.51954">
        <ele>1165.197</ele>
        <time>2019-07-29T13:40:58Z</time>
      </trkpt>
      <trkpt lat="44.2444" lon="3.51952">
        <ele>1164.483</ele>
        <time>2019-07-29T13:41:02Z</time>
      </trkpt>
      <trkpt lat="44.24444" lon="3.51951">
        <ele>1164.088</ele>
        <time>2019-07-29T13:41:06Z</time>
      </trkpt>
      <trkpt lat="44.24449" lon="3.51948">
        <ele>1163.062</ele>
        <time>2019-07-29T13:41:11Z</time>
      </trkpt>
      <trkpt lat="44.24454" lon="3.51946">
        <ele>1162.056</ele>
        <time>2019-07-29T13:41:16Z</time>
      </trkpt>
      <trkpt lat="44.24459" lon="3.51944">
        <ele>1161.097</ele>
        <time>2019-07-29T13:41:21Z</time>
      </trkpt>
      <trkpt lat="44.24463" lon="3.51939">
        <ele>1160.451</ele>
        <time>2019-07-29T13:41:26Z</time>
      </trkpt>
      <trkpt lat="44.24467" lon="3.51934">
        <ele>1160.06</ele>
        <time>2019-07-29T13:41:31Z</time>
      </trkpt>
      <trkpt lat="44.24471" lon="3.5193">
        <ele>1159.493</ele>
        <time>2019-07-29T13:41:35Z</time>
      </trkpt>
      <trkpt lat="44.24476" lon="3.51926">
        <ele>1159.065</ele>
        <time>2019-07-29T13:41:39Z</time>
      </trkpt>
      <trkpt lat="44.24479" lon="3.51921">
        <ele>1158.421</ele>
        <time>2019-07-29T13:41:43Z</time>
      </trkpt>
      <trkpt lat="44.24482" lon="3.51915">
        <ele>1157.608</ele>
        <time>2019-07-29T13:41:47Z</time>
      </trkpt>
      <trkpt lat="44.24485" lon="3.5191">
        <ele>1157.172</ele>
        <time>2019-07-29T13:41:51Z</time>
      </trkpt>
      <trkpt lat="44.24488" lon="3.51904">
        <ele>1156.088</ele>
        <time>2019-07-29T13:41:56Z</time>
      </trkpt>
      <trkpt lat="44.24489" lon="3.51897">
        <ele>1155.043</ele>
        <time>2019-07-29T13:42:01Z</time>
      </trkpt>
      <trkpt lat="44.24489" lon="3.5189">
        <ele>1154.097</ele>
        <time>2019-07-29T13:42:05Z</time>
      </trkpt>
      <trkpt lat="44.2449" lon="3.51883">
        <ele>1153.061</ele>
        <time>2019-07-29T13:42:09Z</time>
      </trkpt>
      <trkpt lat="44.24491" lon="3.51876">
        <ele>1153.252</ele>
        <time>2019-07-29T13:42:13Z</time>
      </trkpt>
      <trkpt lat="44.24494" lon="3.5187">
        <ele>1153.336</ele>
        <time>2019-07-29T13:42:17Z</time>
      </trkpt>
      <trkpt lat="44.24496" lon="3.51863">
        <ele>1152.635</ele>
        <time>2019-07-29T13:42:21Z</time>
      </trkpt>
      <trkpt lat="44.24497" lon="3.51857">
        <ele>1152.611</ele>
        <time>2019-07-29T13:42:25Z</time>
      </trkpt>
      <trkpt lat="44.24498" lon="3.5185">
        <ele>1151.821</ele>
        <time>2019-07-29T13:42:29Z</time>
      </trkpt>
      <trkpt lat="44.24501" lon="3.51844">
        <ele>1150.903</ele>
        <time>2019-07-29T13:42:33Z</time>
      </trkpt>
      <trkpt lat="44.24503" lon="3.51838">
        <ele>1150.008</ele>
        <time>2019-07-29T13:42:37Z</time>
      </trkpt>
      <trkpt lat="44.24505" lon="3.51832">
        <ele>1149.424</ele>
        <time>2019-07-29T13:42:41Z</time>
      </trkpt>
      <trkpt lat="44.24509" lon="3.51825">
        <ele>1148.79</ele>
        <time>2019-07-29T13:42:46Z</time>
      </trkpt>
      <trkpt lat="44.24512" lon="3.51819">
        <ele>1148.735</ele>
        <time>2019-07-29T13:42:58Z</time>
      </trkpt>
      <trkpt lat="44.24515" lon="3.51813">
        <ele>1148.719</ele>
        <time>2019-07-29T13:43:03Z</time>
      </trkpt>
      <trkpt lat="44.24517" lon="3.51806">
        <ele>1148.323</ele>
        <time>2019-07-29T13:43:08Z</time>
      </trkpt>
      <trkpt lat="44.24519" lon="3.51799">
        <ele>1147.774</ele>
        <time>2019-07-29T13:43:12Z</time>
      </trkpt>
      <trkpt lat="44.24522" lon="3.51793">
        <ele>1147.358</ele>
        <time>2019-07-29T13:43:16Z</time>
      </trkpt>
      <trkpt lat="44.24524" lon="3.51786">
        <ele>1147.147</ele>
        <time>2019-07-29T13:43:20Z</time>
      </trkpt>
      <trkpt lat="44.24525" lon="3.51779">
        <ele>1147.036</ele>
        <time>2019-07-29T13:43:24Z</time>
      </trkpt>
      <trkpt lat="44.24527" lon="3.51773">
        <ele>1146.917</ele>
        <time>2019-07-29T13:43:28Z</time>
      </trkpt>
      <trkpt lat="44.24531" lon="3.51767">
        <ele>1146.818</ele>
        <time>2019-07-29T13:43:32Z</time>
      </trkpt>
      <trkpt lat="44.24533" lon="3.51761">
        <ele>1146.408</ele>
        <time>2019-07-29T13:43:36Z</time>
      </trkpt>
      <trkpt lat="44.24535" lon="3.51755">
        <ele>1145.766</ele>
        <time>2019-07-29T13:43:40Z</time>
      </trkpt>
      <trkpt lat="44.24537" lon="3.51747">
        <ele>1145.322</ele>
        <time>2019-07-29T13:43:45Z</time>
      </trkpt>
      <trkpt lat="44.24539" lon="3.51741">
        <ele>1143.947</ele>
        <time>2019-07-29T13:43:55Z</time>
      </trkpt>
      <trkpt lat="44.24541" lon="3.51734">
        <ele>1143.031</ele>
        <time>2019-07-29T13:43:59Z</time>
      </trkpt>
      <trkpt lat="44.24542" lon="3.51728">
        <ele>1142.565</ele>
        <time>2019-07-29T13:44:02Z</time>
      </trkpt>
      <trkpt lat="44.24544" lon="3.51722">
        <ele>1141.816</ele>
        <time>2019-07-29T13:44:05Z</time>
      </trkpt>
      <trkpt lat="44.24545" lon="3.51714">
        <ele>1141.46</ele>
        <time>2019-07-29T13:44:09Z</time>
      </trkpt>
      <trkpt lat="44.24547" lon="3.51708">
        <ele>1140.769</ele>
        <time>2019-07-29T13:44:12Z</time>
      </trkpt>
      <trkpt lat="44.24548" lon="3.51702">
        <ele>1140.342</ele>
        <time>2019-07-29T13:44:16Z</time>
      </trkpt>
      <trkpt lat="44.24552" lon="3.51698">
        <ele>1139.722</ele>
        <time>2019-07-29T13:44:29Z</time>
      </trkpt>
      <trkpt lat="44.24554" lon="3.51692">
        <ele>1138.114</ele>
        <time>2019-07-29T13:44:35Z</time>
      </trkpt>
      <trkpt lat="44.24556" lon="3.51686">
        <ele>1137.208</ele>
        <time>2019-07-29T13:44:39Z</time>
      </trkpt>
      <trkpt lat="44.24558" lon="3.51679">
        <ele>1136.287</ele>
        <time>2019-07-29T13:44:43Z</time>
      </trkpt>
      <trkpt lat="44.2456" lon="3.51672">
        <ele>1135.613</ele>
        <time>2019-07-29T13:44:47Z</time>
      </trkpt>
      <trkpt lat="44.24563" lon="3.51666">
        <ele>1135.748</ele>
        <time>2019-07-29T13:44:51Z</time>
      </trkpt>
      <trkpt lat="44.24565" lon="3.51659">
        <ele>1136.122</ele>
        <time>2019-07-29T13:44:55Z</time>
      </trkpt>
      <trkpt lat="44.24569" lon="3.51653">
        <ele>1136.016</ele>
        <time>2019-07-29T13:44:59Z</time>
      </trkpt>
      <trkpt lat="44.2457" lon="3.51647">
        <ele>1135.567</ele>
        <time>2019-07-29T13:45:03Z</time>
      </trkpt>
      <trkpt lat="44.24572" lon="3.51641">
        <ele>1135.271</ele>
        <time>2019-07-29T13:45:07Z</time>
      </trkpt>
      <trkpt lat="44.24573" lon="3.51634">
        <ele>1134.63</ele>
        <time>2019-07-29T13:45:11Z</time>
      </trkpt>
      <trkpt lat="44.24575" lon="3.51628">
        <ele>1134.721</ele>
        <time>2019-07-29T13:45:15Z</time>
      </trkpt>
      <trkpt lat="44.24576" lon="3.51621">
        <ele>1133.541</ele>
        <time>2019-07-29T13:45:20Z</time>
      </trkpt>
      <trkpt lat="44.24578" lon="3.51613">
        <ele>1132.805</ele>
        <time>2019-07-29T13:45:25Z</time>
      </trkpt>
      <trkpt lat="44.24579" lon="3.51607">
        <ele>1132.808</ele>
        <time>2019-07-29T13:45:28Z</time>
      </trkpt>
      <trkpt lat="44.24581" lon="3.516">
        <ele>1132.835</ele>
        <time>2019-07-29T13:45:32Z</time>
      </trkpt>
      <trkpt lat="44.24584" lon="3.51595">
        <ele>1133.211</ele>
        <time>2019-07-29T13:45:35Z</time>
      </trkpt>
      <trkpt lat="44.24588" lon="3.51589">
        <ele>1132.636</ele>
        <time>2019-07-29T13:45:39Z</time>
      </trkpt>
      <trkpt lat="44.24591" lon="3.51583">
        <ele>1132.74</ele>
        <time>2019-07-29T13:45:43Z</time>
      </trkpt>
      <trkpt lat="44.24594" lon="3.51577">
        <ele>1132.374</ele>
        <time>2019-07-29T13:45:48Z</time>
      </trkpt>
      <trkpt lat="44.24594" lon="3.5157">
        <ele>1132.125</ele>
        <time>2019-07-29T13:45:53Z</time>
      </trkpt>
      <trkpt lat="44.24595" lon="3.51564">
        <ele>1132.459</ele>
        <time>2019-07-29T13:45:57Z</time>
      </trkpt>
      <trkpt lat="44.24594" lon="3.51556">
        <ele>1132.248</ele>
        <time>2019-07-29T13:46:04Z</time>
      </trkpt>
      <trkpt lat="44.24595" lon="3.51548">
        <ele>1132.112</ele>
        <time>2019-07-29T13:46:09Z</time>
      </trkpt>
      <trkpt lat="44.24596" lon="3.51541">
        <ele>1132.032</ele>
        <time>2019-07-29T13:46:13Z</time>
      </trkpt>
      <trkpt lat="44.24597" lon="3.51535">
        <ele>1132.305</ele>
        <time>2019-07-29T13:46:17Z</time>
      </trkpt>
      <trkpt lat="44.24599" lon="3.51529">
        <ele>1132.508</ele>
        <time>2019-07-29T13:46:21Z</time>
      </trkpt>
      <trkpt lat="44.24601" lon="3.51522">
        <ele>1132.654</ele>
        <time>2019-07-29T13:46:25Z</time>
      </trkpt>
      <trkpt lat="44.24603" lon="3.51515">
        <ele>1133.12</ele>
        <time>2019-07-29T13:46:29Z</time>
      </trkpt>
      <trkpt lat="44.24605" lon="3.5151">
        <ele>1133.085</ele>
        <time>2019-07-29T13:46:32Z</time>
      </trkpt>
      <trkpt lat="44.24607" lon="3.51502">
        <ele>1132.969</ele>
        <time>2019-07-29T13:46:36Z</time>
      </trkpt>
      <trkpt lat="44.24607" lon="3.51495">
        <ele>1132.943</ele>
        <time>2019-07-29T13:46:40Z</time>
      </trkpt>
      <trkpt lat="44.24608" lon="3.51488">
        <ele>1132.544</ele>
        <time>2019-07-29T13:46:44Z</time>
      </trkpt>
      <trkpt lat="44.24609" lon="3.51481">
        <ele>1132.258</ele>
        <time>2019-07-29T13:46:48Z</time>
      </trkpt>
      <trkpt lat="44.24611" lon="3.51474">
        <ele>1132.057</ele>
        <time>2019-07-29T13:46:52Z</time>
      </trkpt>
      <trkpt lat="44.24612" lon="3.51466">
        <ele>1131.938</ele>
        <time>2019-07-29T13:46:56Z</time>
      </trkpt>
      <trkpt lat="44.24613" lon="3.51459">
        <ele>1132.27</ele>
        <time>2019-07-29T13:47:01Z</time>
      </trkpt>
      <trkpt lat="44.24614" lon="3.51452">
        <ele>1132.417</ele>
        <time>2019-07-29T13:47:06Z</time>
      </trkpt>
      <trkpt lat="44.24616" lon="3.51447">
        <ele>1132.508</ele>
        <time>2019-07-29T13:47:10Z</time>
      </trkpt>
      <trkpt lat="44.24619" lon="3.5144">
        <ele>1133.026</ele>
        <time>2019-07-29T13:47:15Z</time>
      </trkpt>
      <trkpt lat="44.24622" lon="3.51434">
        <ele>1133.382</ele>
        <time>2019-07-29T13:47:19Z</time>
      </trkpt>
      <trkpt lat="44.24625" lon="3.51428">
        <ele>1133.527</ele>
        <time>2019-07-29T13:47:24Z</time>
      </trkpt>
      <trkpt lat="44.24629" lon="3.51422">
        <ele>1134.031</ele>
        <time>2019-07-29T13:47:28Z</time>
      </trkpt>
      <trkpt lat="44.24633" lon="3.51417">
        <ele>1135.145</ele>
        <time>2019-07-29T13:47:33Z</time>
      </trkpt>
      <trkpt lat="44.24637" lon="3.51411">
        <ele>1135.836</ele>
        <time>2019-07-29T13:47:44Z</time>
      </trkpt>
      <trkpt lat="44.24641" lon="3.51406">
        <ele>1135.85</ele>
        <time>2019-07-29T13:47:49Z</time>
      </trkpt>
      <trkpt lat="44.24645" lon="3.51402">
        <ele>1135.879</ele>
        <time>2019-07-29T13:47:53Z</time>
      </trkpt>
      <trkpt lat="44.2465" lon="3.51398">
        <ele>1136.698</ele>
        <time>2019-07-29T13:47:57Z</time>
      </trkpt>
      <trkpt lat="44.24654" lon="3.51393">
        <ele>1137.515</ele>
        <time>2019-07-29T13:48:01Z</time>
      </trkpt>
      <trkpt lat="44.24658" lon="3.51389">
        <ele>1138.826</ele>
        <time>2019-07-29T13:48:05Z</time>
      </trkpt>
      <trkpt lat="44.24663" lon="3.51384">
        <ele>1140.008</ele>
        <time>2019-07-29T13:48:09Z</time>
      </trkpt>
      <trkpt lat="44.24666" lon="3.51379">
        <ele>1140.772</ele>
        <time>2019-07-29T13:48:14Z</time>
      </trkpt>
      <trkpt lat="44.2467" lon="3.51375">
        <ele>1141.998</ele>
        <time>2019-07-29T13:48:18Z</time>
      </trkpt>
      <trkpt lat="44.24672" lon="3.51369">
        <ele>1142.693</ele>
        <time>2019-07-29T13:48:23Z</time>
      </trkpt>
      <trkpt lat="44.24674" lon="3.51363">
        <ele>1143.477</ele>
        <time>2019-07-29T13:48:27Z</time>
      </trkpt>
      <trkpt lat="44.24676" lon="3.51356">
        <ele>1143.541</ele>
        <time>2019-07-29T13:48:32Z</time>
      </trkpt>
      <trkpt lat="44.24676" lon="3.51348">
        <ele>1144.022</ele>
        <time>2019-07-29T13:48:37Z</time>
      </trkpt>
      <trkpt lat="44.24674" lon="3.51342">
        <ele>1143.536</ele>
        <time>2019-07-29T13:48:41Z</time>
      </trkpt>
      <trkpt lat="44.24672" lon="3.51335">
        <ele>1142.875</ele>
        <time>2019-07-29T13:48:45Z</time>
      </trkpt>
      <trkpt lat="44.24669" lon="3.51329">
        <ele>1142.035</ele>
        <time>2019-07-29T13:48:49Z</time>
      </trkpt>
      <trkpt lat="44.24665" lon="3.51325">
        <ele>1140.786</ele>
        <time>2019-07-29T13:48:54Z</time>
      </trkpt>
      <trkpt lat="44.2466" lon="3.51319">
        <ele>1139.514</ele>
        <time>2019-07-29T13:48:58Z</time>
      </trkpt>
      <trkpt lat="44.24655" lon="3.51316">
        <ele>1138.808</ele>
        <time>2019-07-29T13:49:02Z</time>
      </trkpt>
      <trkpt lat="44.24651" lon="3.51312">
        <ele>1138.026</ele>
        <time>2019-07-29T13:49:06Z</time>
      </trkpt>
      <trkpt lat="44.24647" lon="3.51307">
        <ele>1137.162</ele>
        <time>2019-07-29T13:49:11Z</time>
      </trkpt>
      <trkpt lat="44.24645" lon="3.51301">
        <ele>1136.687</ele>
        <time>2019-07-29T13:49:16Z</time>
      </trkpt>
      <trkpt lat="44.24643" lon="3.51294">
        <ele>1136.331</ele>
        <time>2019-07-29T13:49:21Z</time>
      </trkpt>
      <trkpt lat="44.24641" lon="3.51286">
        <ele>1136.585</ele>
        <time>2019-07-29T13:49:25Z</time>
      </trkpt>
      <trkpt lat="44.2464" lon="3.51279">
        <ele>1136.696</ele>
        <time>2019-07-29T13:49:30Z</time>
      </trkpt>
      <trkpt lat="44.2464" lon="3.51273">
        <ele>1137.16</ele>
        <time>2019-07-29T13:49:34Z</time>
      </trkpt>
      <trkpt lat="44.2464" lon="3.51266">
        <ele>1137.429</ele>
        <time>2019-07-29T13:49:38Z</time>
      </trkpt>
      <trkpt lat="44.2464" lon="3.5126">
        <ele>1138.026</ele>
        <time>2019-07-29T13:49:42Z</time>
      </trkpt>
      <trkpt lat="44.24641" lon="3.51252">
        <ele>1139.147</ele>
        <time>2019-07-29T13:49:46Z</time>
      </trkpt>
      <trkpt lat="44.24641" lon="3.51244">
        <ele>1139.811</ele>
        <time>2019-07-29T13:52:08Z</time>
      </trkpt>
      <trkpt lat="44.24636" lon="3.51239">
        <ele>1139.408</ele>
        <time>2019-07-29T13:52:13Z</time>
      </trkpt>
      <trkpt lat="44.24632" lon="3.51234">
        <ele>1138.875</ele>
        <time>2019-07-29T13:52:17Z</time>
      </trkpt>
      <trkpt lat="44.24629" lon="3.51229">
        <ele>1138.491</ele>
        <time>2019-07-29T13:52:20Z</time>
      </trkpt>
      <trkpt lat="44.24625" lon="3.51225">
        <ele>1137.426</ele>
        <time>2019-07-29T13:52:24Z</time>
      </trkpt>
      <trkpt lat="44.24621" lon="3.5122">
        <ele>1137.69</ele>
        <time>2019-07-29T13:52:27Z</time>
      </trkpt>
      <trkpt lat="44.24616" lon="3.51213">
        <ele>1138.574</ele>
        <time>2019-07-29T13:52:40Z</time>
      </trkpt>
      <trkpt lat="44.24614" lon="3.51206">
        <ele>1137.865</ele>
        <time>2019-07-29T13:52:48Z</time>
      </trkpt>
      <trkpt lat="44.24612" lon="3.51199">
        <ele>1137.469</ele>
        <time>2019-07-29T13:52:53Z</time>
      </trkpt>
      <trkpt lat="44.24609" lon="3.51192">
        <ele>1137.228</ele>
        <time>2019-07-29T13:52:57Z</time>
      </trkpt>
      <trkpt lat="44.24606" lon="3.51187">
        <ele>1137.171</ele>
        <time>2019-07-29T13:53:02Z</time>
      </trkpt>
      <trkpt lat="44.24603" lon="3.5118">
        <ele>1136.641</ele>
        <time>2019-07-29T13:53:06Z</time>
      </trkpt>
      <trkpt lat="44.24601" lon="3.51174">
        <ele>1135.915</ele>
        <time>2019-07-29T13:53:11Z</time>
      </trkpt>
      <trkpt lat="44.24598" lon="3.51168">
        <ele>1135.508</ele>
        <time>2019-07-29T13:53:15Z</time>
      </trkpt>
      <trkpt lat="44.24596" lon="3.51162">
        <ele>1134.58</ele>
        <time>2019-07-29T13:53:19Z</time>
      </trkpt>
      <trkpt lat="44.24593" lon="3.51156">
        <ele>1133.936</ele>
        <time>2019-07-29T13:53:23Z</time>
      </trkpt>
      <trkpt lat="44.2459" lon="3.5115">
        <ele>1132.781</ele>
        <time>2019-07-29T13:53:28Z</time>
      </trkpt>
      <trkpt lat="44.24587" lon="3.51145">
        <ele>1132.025</ele>
        <time>2019-07-29T13:53:32Z</time>
      </trkpt>
      <trkpt lat="44.24584" lon="3.51139">
        <ele>1131.269</ele>
        <time>2019-07-29T13:53:37Z</time>
      </trkpt>
      <trkpt lat="44.24582" lon="3.51133">
        <ele>1130.74</ele>
        <time>2019-07-29T13:53:40Z</time>
      </trkpt>
      <trkpt lat="44.2458" lon="3.51127">
        <ele>1129.674</ele>
        <time>2019-07-29T13:53:44Z</time>
      </trkpt>
      <trkpt lat="44.24579" lon="3.5112">
        <ele>1128.583</ele>
        <time>2019-07-29T13:53:49Z</time>
      </trkpt>
      <trkpt lat="44.24578" lon="3.51113">
        <ele>1128.795</ele>
        <time>2019-07-29T13:53:54Z</time>
      </trkpt>
      <trkpt lat="44.24578" lon="3.51105">
        <ele>1128.849</ele>
        <time>2019-07-29T13:53:58Z</time>
      </trkpt>
      <trkpt lat="44.24579" lon="3.51098">
        <ele>1128.923</ele>
        <time>2019-07-29T13:54:02Z</time>
      </trkpt>
      <trkpt lat="44.24579" lon="3.5109">
        <ele>1128.908</ele>
        <time>2019-07-29T13:54:06Z</time>
      </trkpt>
      <trkpt lat="44.24578" lon="3.51082">
        <ele>1129.332</ele>
        <time>2019-07-29T13:54:10Z</time>
      </trkpt>
      <trkpt lat="44.24578" lon="3.51075">
        <ele>1129.288</ele>
        <time>2019-07-29T13:54:14Z</time>
      </trkpt>
      <trkpt lat="44.24577" lon="3.51068">
        <ele>1129.183</ele>
        <time>2019-07-29T13:54:18Z</time>
      </trkpt>
      <trkpt lat="44.24575" lon="3.51061">
        <ele>1128.647</ele>
        <time>2019-07-29T13:54:22Z</time>
      </trkpt>
      <trkpt lat="44.24573" lon="3.51053">
        <ele>1129.161</ele>
        <time>2019-07-29T13:54:26Z</time>
      </trkpt>
      <trkpt lat="44.24571" lon="3.51047">
        <ele>1129.012</ele>
        <time>2019-07-29T13:54:30Z</time>
      </trkpt>
      <trkpt lat="44.24571" lon="3.51041">
        <ele>1129.416</ele>
        <time>2019-07-29T13:54:35Z</time>
      </trkpt>
      <trkpt lat="44.24572" lon="3.51033">
        <ele>1129.645</ele>
        <time>2019-07-29T13:54:39Z</time>
      </trkpt>
      <trkpt lat="44.24571" lon="3.51026">
        <ele>1130.935</ele>
        <time>2019-07-29T13:54:44Z</time>
      </trkpt>
      <trkpt lat="44.24571" lon="3.51019">
        <ele>1131.386</ele>
        <time>2019-07-29T13:54:48Z</time>
      </trkpt>
      <trkpt lat="44.2457" lon="3.51012">
        <ele>1131.914</ele>
        <time>2019-07-29T13:54:52Z</time>
      </trkpt>
      <trkpt lat="44.24571" lon="3.51005">
        <ele>1132.708</ele>
        <time>2019-07-29T13:54:56Z</time>
      </trkpt>
      <trkpt lat="44.24572" lon="3.50998">
        <ele>1133.666</ele>
        <time>2019-07-29T13:55:00Z</time>
      </trkpt>
      <trkpt lat="44.24572" lon="3.5099">
        <ele>1133.772</ele>
        <time>2019-07-29T13:55:05Z</time>
      </trkpt>
      <trkpt lat="44.24572" lon="3.50983">
        <ele>1133.427</ele>
        <time>2019-07-29T13:55:09Z</time>
      </trkpt>
      <trkpt lat="44.24572" lon="3.50976">
        <ele>1133.651</ele>
        <time>2019-07-29T13:55:13Z</time>
      </trkpt>
      <trkpt lat="44.24573" lon="3.50968">
        <ele>1133.345</ele>
        <time>2019-07-29T13:55:18Z</time>
      </trkpt>
      <trkpt lat="44.24572" lon="3.5096">
        <ele>1132.726</ele>
        <time>2019-07-29T13:55:23Z</time>
      </trkpt>
      <trkpt lat="44.24572" lon="3.50954">
        <ele>1132.82</ele>
        <time>2019-07-29T13:55:27Z</time>
      </trkpt>
      <trkpt lat="44.24571" lon="3.50947">
        <ele>1132.449</ele>
        <time>2019-07-29T13:55:31Z</time>
      </trkpt>
      <trkpt lat="44.24569" lon="3.50941">
        <ele>1132.282</ele>
        <time>2019-07-29T13:55:35Z</time>
      </trkpt>
      <trkpt lat="44.24568" lon="3.50934">
        <ele>1132.143</ele>
        <time>2019-07-29T13:55:40Z</time>
      </trkpt>
      <trkpt lat="44.24567" lon="3.50928">
        <ele>1132.017</ele>
        <time>2019-07-29T13:55:44Z</time>
      </trkpt>
      <trkpt lat="44.24566" lon="3.5092">
        <ele>1132.008</ele>
        <time>2019-07-29T13:55:48Z</time>
      </trkpt>
      <trkpt lat="44.24564" lon="3.50915">
        <ele>1132.061</ele>
        <time>2019-07-29T13:55:51Z</time>
      </trkpt>
      <trkpt lat="44.24563" lon="3.50907">
        <ele>1132.467</ele>
        <time>2019-07-29T13:55:55Z</time>
      </trkpt>
      <trkpt lat="44.24562" lon="3.509">
        <ele>1133.022</ele>
        <time>2019-07-29T13:55:58Z</time>
      </trkpt>
      <trkpt lat="44.24561" lon="3.50894">
        <ele>1133.076</ele>
        <time>2019-07-29T13:56:02Z</time>
      </trkpt>
      <trkpt lat="44.24559" lon="3.50888">
        <ele>1133.03</ele>
        <time>2019-07-29T13:56:08Z</time>
      </trkpt>
      <trkpt lat="44.24557" lon="3.50881">
        <ele>1133.031</ele>
        <time>2019-07-29T13:56:12Z</time>
      </trkpt>
      <trkpt lat="44.24556" lon="3.50874">
        <ele>1133.065</ele>
        <time>2019-07-29T13:56:17Z</time>
      </trkpt>
      <trkpt lat="44.24555" lon="3.50867">
        <ele>1133.854</ele>
        <time>2019-07-29T13:56:21Z</time>
      </trkpt>
      <trkpt lat="44.24554" lon="3.50861">
        <ele>1134.773</ele>
        <time>2019-07-29T13:56:24Z</time>
      </trkpt>
      <trkpt lat="44.24553" lon="3.50854">
        <ele>1134.885</ele>
        <time>2019-07-29T13:56:28Z</time>
      </trkpt>
      <trkpt lat="44.24552" lon="3.50847">
        <ele>1135.313</ele>
        <time>2019-07-29T13:56:32Z</time>
      </trkpt>
      <trkpt lat="44.24551" lon="3.50839">
        <ele>1135.208</ele>
        <time>2019-07-29T13:56:37Z</time>
      </trkpt>
      <trkpt lat="44.24551" lon="3.50832">
        <ele>1135.14</ele>
        <time>2019-07-29T13:56:41Z</time>
      </trkpt>
      <trkpt lat="44.2455" lon="3.50825">
        <ele>1135.576</ele>
        <time>2019-07-29T13:56:45Z</time>
      </trkpt>
      <trkpt lat="44.24549" lon="3.50818">
        <ele>1135.741</ele>
        <time>2019-07-29T13:56:50Z</time>
      </trkpt>
      <trkpt lat="44.24549" lon="3.50811">
        <ele>1135.875</ele>
        <time>2019-07-29T13:56:54Z</time>
      </trkpt>
      <trkpt lat="44.2455" lon="3.50804">
        <ele>1135.549</ele>
        <time>2019-07-29T13:56:58Z</time>
      </trkpt>
      <trkpt lat="44.2455" lon="3.50796">
        <ele>1135.37</ele>
        <time>2019-07-29T13:57:03Z</time>
      </trkpt>
      <trkpt lat="44.24549" lon="3.50789">
        <ele>1135.684</ele>
        <time>2019-07-29T13:57:07Z</time>
      </trkpt>
      <trkpt lat="44.24549" lon="3.50782">
        <ele>1135.413</ele>
        <time>2019-07-29T13:57:11Z</time>
      </trkpt>
      <trkpt lat="44.24549" lon="3.50775">
        <ele>1135.759</ele>
        <time>2019-07-29T13:57:15Z</time>
      </trkpt>
      <trkpt lat="44.24549" lon="3.50768">
        <ele>1136.303</ele>
        <time>2019-07-29T13:57:19Z</time>
      </trkpt>
      <trkpt lat="44.24549" lon="3.50761">
        <ele>1136.623</ele>
        <time>2019-07-29T13:57:23Z</time>
      </trkpt>
      <trkpt lat="44.24548" lon="3.50753">
        <ele>1136.808</ele>
        <time>2019-07-29T13:57:27Z</time>
      </trkpt>
      <trkpt lat="44.24548" lon="3.50746">
        <ele>1136.598</ele>
        <time>2019-07-29T13:57:31Z</time>
      </trkpt>
      <trkpt lat="44.24548" lon="3.50739">
        <ele>1135.964</ele>
        <time>2019-07-29T13:57:36Z</time>
      </trkpt>
      <trkpt lat="44.24548" lon="3.50733">
        <ele>1135.659</ele>
        <time>2019-07-29T13:57:40Z</time>
      </trkpt>
      <trkpt lat="44.24547" lon="3.50726">
        <ele>1135.053</ele>
        <time>2019-07-29T13:57:44Z</time>
      </trkpt>
      <trkpt lat="44.24546" lon="3.50719">
        <ele>1135.497</ele>
        <time>2019-07-29T13:57:48Z</time>
      </trkpt>
      <trkpt lat="44.24547" lon="3.50712">
        <ele>1136.198</ele>
        <time>2019-07-29T13:57:52Z</time>
      </trkpt>
      <trkpt lat="44.24547" lon="3.50705">
        <ele>1136.522</ele>
        <time>2019-07-29T13:57:57Z</time>
      </trkpt>
      <trkpt lat="44.24547" lon="3.50697">
        <ele>1136.311</ele>
        <time>2019-07-29T13:58:02Z</time>
      </trkpt>
      <trkpt lat="44.24547" lon="3.5069">
        <ele>1136.253</ele>
        <time>2019-07-29T13:58:06Z</time>
      </trkpt>
      <trkpt lat="44.24547" lon="3.50683">
        <ele>1136.104</ele>
        <time>2019-07-29T13:58:10Z</time>
      </trkpt>
      <trkpt lat="44.24546" lon="3.50676">
        <ele>1136.114</ele>
        <time>2019-07-29T13:58:14Z</time>
      </trkpt>
      <trkpt lat="44.24545" lon="3.5067">
        <ele>1135.708</ele>
        <time>2019-07-29T13:58:18Z</time>
      </trkpt>
      <trkpt lat="44.24545" lon="3.50663">
        <ele>1135.468</ele>
        <time>2019-07-29T13:58:23Z</time>
      </trkpt>
      <trkpt lat="44.24544" lon="3.50655">
        <ele>1135.694</ele>
        <time>2019-07-29T13:58:28Z</time>
      </trkpt>
      <trkpt lat="44.24545" lon="3.50647">
        <ele>1136.189</ele>
        <time>2019-07-29T13:58:33Z</time>
      </trkpt>
      <trkpt lat="44.24544" lon="3.5064">
        <ele>1136.093</ele>
        <time>2019-07-29T13:58:37Z</time>
      </trkpt>
      <trkpt lat="44.24544" lon="3.50633">
        <ele>1136.017</ele>
        <time>2019-07-29T13:58:41Z</time>
      </trkpt>
      <trkpt lat="44.24544" lon="3.50627">
        <ele>1136.048</ele>
        <time>2019-07-29T13:58:45Z</time>
      </trkpt>
      <trkpt lat="44.24543" lon="3.5062">
        <ele>1136.012</ele>
        <time>2019-07-29T13:58:49Z</time>
      </trkpt>
      <trkpt lat="44.24542" lon="3.50613">
        <ele>1135.671</ele>
        <time>2019-07-29T13:58:53Z</time>
      </trkpt>
      <trkpt lat="44.24542" lon="3.50606">
        <ele>1135.813</ele>
        <time>2019-07-29T13:58:57Z</time>
      </trkpt>
      <trkpt lat="44.24541" lon="3.50599">
        <ele>1135.943</ele>
        <time>2019-07-29T13:59:01Z</time>
      </trkpt>
      <trkpt lat="44.24541" lon="3.50592">
        <ele>1136.007</ele>
        <time>2019-07-29T13:59:05Z</time>
      </trkpt>
      <trkpt lat="44.2454" lon="3.50584">
        <ele>1136.008</ele>
        <time>2019-07-29T13:59:11Z</time>
      </trkpt>
      <trkpt lat="44.24539" lon="3.50577">
        <ele>1135.634</ele>
        <time>2019-07-29T13:59:15Z</time>
      </trkpt>
      <trkpt lat="44.24538" lon="3.50569">
        <ele>1135.49</ele>
        <time>2019-07-29T13:59:20Z</time>
      </trkpt>
      <trkpt lat="44.24538" lon="3.50562">
        <ele>1135.765</ele>
        <time>2019-07-29T13:59:24Z</time>
      </trkpt>
      <trkpt lat="44.24539" lon="3.50555">
        <ele>1135.529</ele>
        <time>2019-07-29T13:59:28Z</time>
      </trkpt>
      <trkpt lat="44.24539" lon="3.50548">
        <ele>1135.823</ele>
        <time>2019-07-29T13:59:33Z</time>
      </trkpt>
      <trkpt lat="44.24538" lon="3.50541">
        <ele>1136.454</ele>
        <time>2019-07-29T13:59:38Z</time>
      </trkpt>
      <trkpt lat="44.24538" lon="3.50534">
        <ele>1137.528</ele>
        <time>2019-07-29T13:59:43Z</time>
      </trkpt>
      <trkpt lat="44.24537" lon="3.50527">
        <ele>1138.217</ele>
        <time>2019-07-29T13:59:48Z</time>
      </trkpt>
      <trkpt lat="44.24536" lon="3.5052">
        <ele>1138.219</ele>
        <time>2019-07-29T13:59:53Z</time>
      </trkpt>
      <trkpt lat="44.24535" lon="3.50513">
        <ele>1138.209</ele>
        <time>2019-07-29T13:59:57Z</time>
      </trkpt>
      <trkpt lat="44.24533" lon="3.50506">
        <ele>1139.419</ele>
        <time>2019-07-29T14:00:01Z</time>
      </trkpt>
      <trkpt lat="44.2453" lon="3.505">
        <ele>1139.708</ele>
        <time>2019-07-29T14:00:06Z</time>
      </trkpt>
      <trkpt lat="44.24527" lon="3.50494">
        <ele>1139.914</ele>
        <time>2019-07-29T14:00:10Z</time>
      </trkpt>
      <trkpt lat="44.24525" lon="3.50488">
        <ele>1139.68</ele>
        <time>2019-07-29T14:00:14Z</time>
      </trkpt>
      <trkpt lat="44.24523" lon="3.50482">
        <ele>1141.015</ele>
        <time>2019-07-29T14:00:18Z</time>
      </trkpt>
      <trkpt lat="44.2452" lon="3.50475">
        <ele>1141.979</ele>
        <time>2019-07-29T14:00:23Z</time>
      </trkpt>
      <trkpt lat="44.24517" lon="3.5047">
        <ele>1139.623</ele>
        <time>2019-07-29T14:00:30Z</time>
      </trkpt>
      <trkpt lat="44.24514" lon="3.50463">
        <ele>1137.824</ele>
        <time>2019-07-29T14:00:36Z</time>
      </trkpt>
      <trkpt lat="44.24511" lon="3.50457">
        <ele>1136.728</ele>
        <time>2019-07-29T14:00:41Z</time>
      </trkpt>
      <trkpt lat="44.24509" lon="3.50451">
        <ele>1135.717</ele>
        <time>2019-07-29T14:00:45Z</time>
      </trkpt>
      <trkpt lat="44.24507" lon="3.50444">
        <ele>1135.999</ele>
        <time>2019-07-29T14:00:49Z</time>
      </trkpt>
      <trkpt lat="44.24505" lon="3.50437">
        <ele>1136.407</ele>
        <time>2019-07-29T14:00:53Z</time>
      </trkpt>
      <trkpt lat="44.24502" lon="3.50431">
        <ele>1138.727</ele>
        <time>2019-07-29T14:00:57Z</time>
      </trkpt>
      <trkpt lat="44.24499" lon="3.50427">
        <ele>1141.308</ele>
        <time>2019-07-29T14:01:01Z</time>
      </trkpt>
      <trkpt lat="44.24494" lon="3.50422">
        <ele>1142.872</ele>
        <time>2019-07-29T14:01:05Z</time>
      </trkpt>
      <trkpt lat="44.2449" lon="3.50418">
        <ele>1144.598</ele>
        <time>2019-07-29T14:01:09Z</time>
      </trkpt>
      <trkpt lat="44.24487" lon="3.50412">
        <ele>1144.373</ele>
        <time>2019-07-29T14:01:15Z</time>
      </trkpt>
      <trkpt lat="44.24483" lon="3.50407">
        <ele>1143.837</ele>
        <time>2019-07-29T14:01:23Z</time>
      </trkpt>
      <trkpt lat="44.24479" lon="3.50403">
        <ele>1143.541</ele>
        <time>2019-07-29T14:01:29Z</time>
      </trkpt>
      <trkpt lat="44.24476" lon="3.50397">
        <ele>1144.142</ele>
        <time>2019-07-29T14:01:34Z</time>
      </trkpt>
      <trkpt lat="44.24481" lon="3.50394">
        <ele>1143.766</ele>
        <time>2019-07-29T14:01:41Z</time>
      </trkpt>
      <trkpt lat="44.24484" lon="3.50389">
        <ele>1143.435</ele>
        <time>2019-07-29T14:01:45Z</time>
      </trkpt>
      <trkpt lat="44.24487" lon="3.50383">
        <ele>1142.051</ele>
        <time>2019-07-29T14:01:50Z</time>
      </trkpt>
      <trkpt lat="44.24491" lon="3.50378">
        <ele>1141.601</ele>
        <time>2019-07-29T14:01:55Z</time>
      </trkpt>
      <trkpt lat="44.24495" lon="3.50374">
        <ele>1141.811</ele>
        <time>2019-07-29T14:02:00Z</time>
      </trkpt>
      <trkpt lat="44.24499" lon="3.50369">
        <ele>1142.308</ele>
        <time>2019-07-29T14:02:05Z</time>
      </trkpt>
      <trkpt lat="44.24504" lon="3.50365">
        <ele>1142.648</ele>
        <time>2019-07-29T14:02:09Z</time>
      </trkpt>
      <trkpt lat="44.24508" lon="3.50361">
        <ele>1142.844</ele>
        <time>2019-07-29T14:02:15Z</time>
      </trkpt>
      <trkpt lat="44.24512" lon="3.50356">
        <ele>1143.399</ele>
        <time>2019-07-29T14:02:20Z</time>
      </trkpt>
      <trkpt lat="44.24515" lon="3.50351">
        <ele>1144.073</ele>
        <time>2019-07-29T14:02:25Z</time>
      </trkpt>
      <trkpt lat="44.24519" lon="3.50346">
        <ele>1144.457</ele>
        <time>2019-07-29T14:02:30Z</time>
      </trkpt>
      <trkpt lat="44.24522" lon="3.50341">
        <ele>1145.568</ele>
        <time>2019-07-29T14:02:37Z</time>
      </trkpt>
      <trkpt lat="44.24523" lon="3.50334">
        <ele>1146.982</ele>
        <time>2019-07-29T14:02:44Z</time>
      </trkpt>
      <trkpt lat="44.24527" lon="3.50329">
        <ele>1147.871</ele>
        <time>2019-07-29T14:02:49Z</time>
      </trkpt>
      <trkpt lat="44.24531" lon="3.50325">
        <ele>1148.312</ele>
        <time>2019-07-29T14:02:54Z</time>
      </trkpt>
      <trkpt lat="44.24536" lon="3.50323">
        <ele>1150.232</ele>
        <time>2019-07-29T14:03:00Z</time>
      </trkpt>
      <trkpt lat="44.2454" lon="3.50318">
        <ele>1150.905</ele>
        <time>2019-07-29T14:03:13Z</time>
      </trkpt>
      <trkpt lat="44.24545" lon="3.50315">
        <ele>1152.108</ele>
        <time>2019-07-29T14:03:18Z</time>
      </trkpt>
      <trkpt lat="44.24547" lon="3.50308">
        <ele>1152.894</ele>
        <time>2019-07-29T14:03:24Z</time>
      </trkpt>
      <trkpt lat="44.2455" lon="3.50303">
        <ele>1154.09</ele>
        <time>2019-07-29T14:03:28Z</time>
      </trkpt>
      <trkpt lat="44.24553" lon="3.50297">
        <ele>1154.365</ele>
        <time>2019-07-29T14:03:33Z</time>
      </trkpt>
      <trkpt lat="44.24553" lon="3.5029">
        <ele>1155.789</ele>
        <time>2019-07-29T14:03:40Z</time>
      </trkpt>
      <trkpt lat="44.24555" lon="3.50284">
        <ele>1156.183</ele>
        <time>2019-07-29T14:03:49Z</time>
      </trkpt>
      <trkpt lat="44.24558" lon="3.50279">
        <ele>1156.894</ele>
        <time>2019-07-29T14:03:57Z</time>
      </trkpt>
      <trkpt lat="44.24562" lon="3.50276">
        <ele>1158.078</ele>
        <time>2019-07-29T14:04:04Z</time>
      </trkpt>
      <trkpt lat="44.24562" lon="3.50268">
        <ele>1157.127</ele>
        <time>2019-07-29T14:07:14Z</time>
      </trkpt>
      <trkpt lat="44.24563" lon="3.50262">
        <ele>1157.453</ele>
        <time>2019-07-29T14:07:17Z</time>
      </trkpt>
      <trkpt lat="44.24561" lon="3.50239">
        <ele>1159.604</ele>
        <time>2019-07-29T14:09:42Z</time>
      </trkpt>
      <trkpt lat="44.24562" lon="3.50233">
        <ele>1163.614</ele>
        <time>2019-07-29T14:09:46Z</time>
      </trkpt>
      <trkpt lat="44.24567" lon="3.5023">
        <ele>1167.608</ele>
        <time>2019-07-29T14:09:50Z</time>
      </trkpt>
      <trkpt lat="44.24574" lon="3.50215">
        <ele>1168.938</ele>
        <time>2019-07-29T14:10:13Z</time>
      </trkpt>
      <trkpt lat="44.24572" lon="3.50207">
        <ele>1169.724</ele>
        <time>2019-07-29T14:10:16Z</time>
      </trkpt>
      <trkpt lat="44.24572" lon="3.50199">
        <ele>1170.279</ele>
        <time>2019-07-29T14:10:19Z</time>
      </trkpt>
      <trkpt lat="44.24573" lon="3.50193">
        <ele>1170.593</ele>
        <time>2019-07-29T14:10:22Z</time>
      </trkpt>
      <trkpt lat="44.24573" lon="3.50186">
        <ele>1170.757</ele>
        <time>2019-07-29T14:10:26Z</time>
      </trkpt>
      <trkpt lat="44.24571" lon="3.5018">
        <ele>1172.068</ele>
        <time>2019-07-29T14:10:30Z</time>
      </trkpt>
      <trkpt lat="44.24569" lon="3.50174">
        <ele>1172.412</ele>
        <time>2019-07-29T14:10:34Z</time>
      </trkpt>
      <trkpt lat="44.24567" lon="3.50168">
        <ele>1173.471</ele>
        <time>2019-07-29T14:10:38Z</time>
      </trkpt>
      <trkpt lat="44.24564" lon="3.50162">
        <ele>1174.044</ele>
        <time>2019-07-29T14:10:42Z</time>
      </trkpt>
      <trkpt lat="44.24563" lon="3.50155">
        <ele>1175.205</ele>
        <time>2019-07-29T14:10:46Z</time>
      </trkpt>
      <trkpt lat="44.24562" lon="3.50147">
        <ele>1177.515</ele>
        <time>2019-07-29T14:10:50Z</time>
      </trkpt>
      <trkpt lat="44.2456" lon="3.50139">
        <ele>1180.108</ele>
        <time>2019-07-29T14:10:53Z</time>
      </trkpt>
      <trkpt lat="44.24559" lon="3.50132">
        <ele>1182.087</ele>
        <time>2019-07-29T14:11:00Z</time>
      </trkpt>
      <trkpt lat="44.2456" lon="3.50126">
        <ele>1182.463</ele>
        <time>2019-07-29T14:11:05Z</time>
      </trkpt>
      <trkpt lat="44.24555" lon="3.50122">
        <ele>1181.878</ele>
        <time>2019-07-29T14:11:10Z</time>
      </trkpt>
      <trkpt lat="44.24552" lon="3.50116">
        <ele>1182.362</ele>
        <time>2019-07-29T14:11:16Z</time>
      </trkpt>
      <trkpt lat="44.2455" lon="3.5011">
        <ele>1183.016</ele>
        <time>2019-07-29T14:11:21Z</time>
      </trkpt>
      <trkpt lat="44.24547" lon="3.50104">
        <ele>1185.017</ele>
        <time>2019-07-29T14:11:27Z</time>
      </trkpt>
      <trkpt lat="44.24543" lon="3.50099">
        <ele>1186.261</ele>
        <time>2019-07-29T14:11:31Z</time>
      </trkpt>
      <trkpt lat="44.24544" lon="3.50093">
        <ele>1188.54</ele>
        <time>2019-07-29T14:11:41Z</time>
      </trkpt>
      <trkpt lat="44.24545" lon="3.50085">
        <ele>1189.169</ele>
        <time>2019-07-29T14:11:46Z</time>
      </trkpt>
      <trkpt lat="44.24545" lon="3.50078">
        <ele>1189.904</ele>
        <time>2019-07-29T14:11:50Z</time>
      </trkpt>
      <trkpt lat="44.24545" lon="3.50071">
        <ele>1189.624</ele>
        <time>2019-07-29T14:11:54Z</time>
      </trkpt>
      <trkpt lat="44.24544" lon="3.50065">
        <ele>1189.408</ele>
        <time>2019-07-29T14:11:58Z</time>
      </trkpt>
      <trkpt lat="44.2454" lon="3.5006">
        <ele>1188.979</ele>
        <time>2019-07-29T14:12:01Z</time>
      </trkpt>
      <trkpt lat="44.24537" lon="3.50055">
        <ele>1187.825</ele>
        <time>2019-07-29T14:12:06Z</time>
      </trkpt>
      <trkpt lat="44.24535" lon="3.5005">
        <ele>1186.78</ele>
        <time>2019-07-29T14:12:10Z</time>
      </trkpt>
      <trkpt lat="44.24531" lon="3.50043">
        <ele>1185.364</ele>
        <time>2019-07-29T14:12:15Z</time>
      </trkpt>
      <trkpt lat="44.24529" lon="3.50038">
        <ele>1186.848</ele>
        <time>2019-07-29T14:12:19Z</time>
      </trkpt>
      <trkpt lat="44.24529" lon="3.5003">
        <ele>1188.959</ele>
        <time>2019-07-29T14:12:24Z</time>
      </trkpt>
      <trkpt lat="44.2453" lon="3.50024">
        <ele>1190.663</ele>
        <time>2019-07-29T14:12:27Z</time>
      </trkpt>
      <trkpt lat="44.24527" lon="3.50019">
        <ele>1192.032</ele>
        <time>2019-07-29T14:12:31Z</time>
      </trkpt>
      <trkpt lat="44.24524" lon="3.50014">
        <ele>1194.027</ele>
        <time>2019-07-29T14:12:36Z</time>
      </trkpt>
      <trkpt lat="44.24521" lon="3.50008">
        <ele>1194.868</ele>
        <time>2019-07-29T14:12:41Z</time>
      </trkpt>
      <trkpt lat="44.24518" lon="3.50002">
        <ele>1195.314</ele>
        <time>2019-07-29T14:12:46Z</time>
      </trkpt>
      <trkpt lat="44.24515" lon="3.49997">
        <ele>1196.408</ele>
        <time>2019-07-29T14:12:51Z</time>
      </trkpt>
      <trkpt lat="44.24513" lon="3.4999">
        <ele>1198.365</ele>
        <time>2019-07-29T14:12:59Z</time>
      </trkpt>
      <trkpt lat="44.24512" lon="3.49984">
        <ele>1198.651</ele>
        <time>2019-07-29T14:13:04Z</time>
      </trkpt>
      <trkpt lat="44.24512" lon="3.49977">
        <ele>1198.896</ele>
        <time>2019-07-29T14:13:12Z</time>
      </trkpt>
      <trkpt lat="44.24515" lon="3.4997">
        <ele>1198.56</ele>
        <time>2019-07-29T14:13:17Z</time>
      </trkpt>
      <trkpt lat="44.24513" lon="3.49964">
        <ele>1198.384</ele>
        <time>2019-07-29T14:13:22Z</time>
      </trkpt>
      <trkpt lat="44.2451" lon="3.4996">
        <ele>1197.425</ele>
        <time>2019-07-29T14:13:26Z</time>
      </trkpt>
      <trkpt lat="44.24508" lon="3.49953">
        <ele>1196.529</ele>
        <time>2019-07-29T14:13:30Z</time>
      </trkpt>
      <trkpt lat="44.24505" lon="3.49946">
        <ele>1195.548</ele>
        <time>2019-07-29T14:13:35Z</time>
      </trkpt>
      <trkpt lat="44.24502" lon="3.4994">
        <ele>1194.953</ele>
        <time>2019-07-29T14:13:39Z</time>
      </trkpt>
      <trkpt lat="44.245" lon="3.49934">
        <ele>1195.404</ele>
        <time>2019-07-29T14:13:45Z</time>
      </trkpt>
      <trkpt lat="44.24498" lon="3.49927">
        <ele>1196.114</ele>
        <time>2019-07-29T14:15:35Z</time>
      </trkpt>
      <trkpt lat="44.245" lon="3.49921">
        <ele>1197.708</ele>
        <time>2019-07-29T14:15:38Z</time>
      </trkpt>
      <trkpt lat="44.24497" lon="3.49914">
        <ele>1199.168</ele>
        <time>2019-07-29T14:15:42Z</time>
      </trkpt>
      <trkpt lat="44.24494" lon="3.49907">
        <ele>1198.784</ele>
        <time>2019-07-29T14:15:46Z</time>
      </trkpt>
      <trkpt lat="44.24492" lon="3.499">
        <ele>1198.959</ele>
        <time>2019-07-29T14:15:50Z</time>
      </trkpt>
      <trkpt lat="44.2449" lon="3.49894">
        <ele>1199.063</ele>
        <time>2019-07-29T14:15:53Z</time>
      </trkpt>
      <trkpt lat="44.24488" lon="3.49887">
        <ele>1199.547</ele>
        <time>2019-07-29T14:15:57Z</time>
      </trkpt>
      <trkpt lat="44.24486" lon="3.49881">
        <ele>1199.838</ele>
        <time>2019-07-29T14:16:01Z</time>
      </trkpt>
      <trkpt lat="44.24485" lon="3.49874">
        <ele>1199.692</ele>
        <time>2019-07-29T14:16:06Z</time>
      </trkpt>
      <trkpt lat="44.24482" lon="3.49868">
        <ele>1200.711</ele>
        <time>2019-07-29T14:16:10Z</time>
      </trkpt>
      <trkpt lat="44.24478" lon="3.49863">
        <ele>1202.552</ele>
        <time>2019-07-29T14:16:14Z</time>
      </trkpt>
      <trkpt lat="44.24475" lon="3.49859">
        <ele>1202.853</ele>
        <time>2019-07-29T14:16:18Z</time>
      </trkpt>
      <trkpt lat="44.24469" lon="3.49857">
        <ele>1203.008</ele>
        <time>2019-07-29T14:16:21Z</time>
      </trkpt>
      <trkpt lat="44.24464" lon="3.49856">
        <ele>1203.908</ele>
        <time>2019-07-29T14:16:36Z</time>
      </trkpt>
      <trkpt lat="44.24461" lon="3.4985">
        <ele>1204.458</ele>
        <time>2019-07-29T14:16:40Z</time>
      </trkpt>
      <trkpt lat="44.2446" lon="3.49843">
        <ele>1204.784</ele>
        <time>2019-07-29T14:16:43Z</time>
      </trkpt>
      <trkpt lat="44.24459" lon="3.49835">
        <ele>1205.389</ele>
        <time>2019-07-29T14:16:46Z</time>
      </trkpt>
      <trkpt lat="44.24461" lon="3.49829">
        <ele>1206.123</ele>
        <time>2019-07-29T14:16:49Z</time>
      </trkpt>
      <trkpt lat="44.24462" lon="3.49822">
        <ele>1206.257</ele>
        <time>2019-07-29T14:16:53Z</time>
      </trkpt>
      <trkpt lat="44.24463" lon="3.49816">
        <ele>1205.878</ele>
        <time>2019-07-29T14:17:05Z</time>
      </trkpt>
      <trkpt lat="44.24465" lon="3.4981">
        <ele>1206.012</ele>
        <time>2019-07-29T14:17:11Z</time>
      </trkpt>
      <trkpt lat="44.24466" lon="3.49803">
        <ele>1206.131</ele>
        <time>2019-07-29T14:17:16Z</time>
      </trkpt>
      <trkpt lat="44.24465" lon="3.49795">
        <ele>1205.815</ele>
        <time>2019-07-29T14:17:21Z</time>
      </trkpt>
      <trkpt lat="44.24463" lon="3.49788">
        <ele>1206.065</ele>
        <time>2019-07-29T14:17:26Z</time>
      </trkpt>
      <trkpt lat="44.24459" lon="3.49778">
        <ele>1205.311</ele>
        <time>2019-07-29T14:18:01Z</time>
      </trkpt>
      <trkpt lat="44.2446" lon="3.49772">
        <ele>1205.708</ele>
        <time>2019-07-29T14:18:06Z</time>
      </trkpt>
      <trkpt lat="44.24461" lon="3.49765">
        <ele>1207.534</ele>
        <time>2019-07-29T14:18:12Z</time>
      </trkpt>
      <trkpt lat="44.2446" lon="3.49758">
        <ele>1208.69</ele>
        <time>2019-07-29T14:18:17Z</time>
      </trkpt>
      <trkpt lat="44.24461" lon="3.49752">
        <ele>1208.985</ele>
        <time>2019-07-29T14:18:22Z</time>
      </trkpt>
      <trkpt lat="44.24464" lon="3.49745">
        <ele>1209.169</ele>
        <time>2019-07-29T14:18:27Z</time>
      </trkpt>
      <trkpt lat="44.24466" lon="3.49739">
        <ele>1210.023</ele>
        <time>2019-07-29T14:18:32Z</time>
      </trkpt>
      <trkpt lat="44.2447" lon="3.49735">
        <ele>1211.394</ele>
        <time>2019-07-29T14:18:39Z</time>
      </trkpt>
      <trkpt lat="44.24474" lon="3.4973">
        <ele>1212.988</ele>
        <time>2019-07-29T14:18:51Z</time>
      </trkpt>
      <trkpt lat="44.24479" lon="3.49727">
        <ele>1214.347</ele>
        <time>2019-07-29T14:19:00Z</time>
      </trkpt>
      <trkpt lat="44.24482" lon="3.49722">
        <ele>1214.745</ele>
        <time>2019-07-29T14:19:04Z</time>
      </trkpt>
      <trkpt lat="44.24486" lon="3.49718">
        <ele>1215.347</ele>
        <time>2019-07-29T14:19:09Z</time>
      </trkpt>
      <trkpt lat="44.24491" lon="3.49714">
        <ele>1215.711</ele>
        <time>2019-07-29T14:19:14Z</time>
      </trkpt>
      <trkpt lat="44.24495" lon="3.49709">
        <ele>1215.508</ele>
        <time>2019-07-29T14:19:18Z</time>
      </trkpt>
      <trkpt lat="44.24499" lon="3.49704">
        <ele>1215.467</ele>
        <time>2019-07-29T14:19:23Z</time>
      </trkpt>
      <trkpt lat="44.24502" lon="3.49699">
        <ele>1216.173</ele>
        <time>2019-07-29T14:19:27Z</time>
      </trkpt>
      <trkpt lat="44.24505" lon="3.49693">
        <ele>1216.578</ele>
        <time>2019-07-29T14:19:31Z</time>
      </trkpt>
      <trkpt lat="44.24508" lon="3.49688">
        <ele>1216.822</ele>
        <time>2019-07-29T14:19:35Z</time>
      </trkpt>
      <trkpt lat="44.24512" lon="3.49681">
        <ele>1217.096</ele>
        <time>2019-07-29T14:19:39Z</time>
      </trkpt>
      <trkpt lat="44.24514" lon="3.49674">
        <ele>1217.177</ele>
        <time>2019-07-29T14:19:43Z</time>
      </trkpt>
      <trkpt lat="44.24515" lon="3.49668">
        <ele>1217.211</ele>
        <time>2019-07-29T14:19:47Z</time>
      </trkpt>
      <trkpt lat="44.24517" lon="3.49661">
        <ele>1217.64</ele>
        <time>2019-07-29T14:19:51Z</time>
      </trkpt>
      <trkpt lat="44.24518" lon="3.49655">
        <ele>1217.923</ele>
        <time>2019-07-29T14:19:55Z</time>
      </trkpt>
      <trkpt lat="44.24521" lon="3.49649">
        <ele>1218.583</ele>
        <time>2019-07-29T14:19:59Z</time>
      </trkpt>
      <trkpt lat="44.24521" lon="3.49643">
        <ele>1218.011</ele>
        <time>2019-07-29T14:20:04Z</time>
      </trkpt>
      <trkpt lat="44.24522" lon="3.49636">
        <ele>1217.308</ele>
        <time>2019-07-29T14:20:08Z</time>
      </trkpt>
      <trkpt lat="44.24523" lon="3.4963">
        <ele>1216.975</ele>
        <time>2019-07-29T14:20:12Z</time>
      </trkpt>
      <trkpt lat="44.24524" lon="3.49623">
        <ele>1216.721</ele>
        <time>2019-07-29T14:20:16Z</time>
      </trkpt>
      <trkpt lat="44.24524" lon="3.49616">
        <ele>1216.656</ele>
        <time>2019-07-29T14:20:21Z</time>
      </trkpt>
      <trkpt lat="44.24525" lon="3.49609">
        <ele>1216.15</ele>
        <time>2019-07-29T14:20:25Z</time>
      </trkpt>
      <trkpt lat="44.24527" lon="3.49603">
        <ele>1216.254</ele>
        <time>2019-07-29T14:20:29Z</time>
      </trkpt>
      <trkpt lat="44.24528" lon="3.49597">
        <ele>1215.965</ele>
        <time>2019-07-29T14:20:33Z</time>
      </trkpt>
      <trkpt lat="44.24529" lon="3.4959">
        <ele>1216.519</ele>
        <time>2019-07-29T14:20:57Z</time>
      </trkpt>
      <trkpt lat="44.24531" lon="3.49583">
        <ele>1216.558</ele>
        <time>2019-07-29T14:21:02Z</time>
      </trkpt>
      <trkpt lat="44.24532" lon="3.49577">
        <ele>1216.535</ele>
        <time>2019-07-29T14:21:06Z</time>
      </trkpt>
      <trkpt lat="44.24533" lon="3.49569">
        <ele>1216.186</ele>
        <time>2019-07-29T14:21:11Z</time>
      </trkpt>
      <trkpt lat="44.24532" lon="3.49559">
        <ele>1216.314</ele>
        <time>2019-07-29T14:21:15Z</time>
      </trkpt>
      <trkpt lat="44.24532" lon="3.49552">
        <ele>1216.008</ele>
        <time>2019-07-29T14:21:20Z</time>
      </trkpt>
      <trkpt lat="44.24532" lon="3.49545">
        <ele>1215.856</ele>
        <time>2019-07-29T14:21:24Z</time>
      </trkpt>
      <trkpt lat="44.24531" lon="3.49538">
        <ele>1215.722</ele>
        <time>2019-07-29T14:21:29Z</time>
      </trkpt>
      <trkpt lat="44.2453" lon="3.49531">
        <ele>1215.287</ele>
        <time>2019-07-29T14:21:34Z</time>
      </trkpt>
      <trkpt lat="44.2453" lon="3.49524">
        <ele>1214.941</ele>
        <time>2019-07-29T14:21:38Z</time>
      </trkpt>
      <trkpt lat="44.24529" lon="3.49517">
        <ele>1214.715</ele>
        <time>2019-07-29T14:21:42Z</time>
      </trkpt>
      <trkpt lat="44.24526" lon="3.4951">
        <ele>1214.216</ele>
        <time>2019-07-29T14:21:46Z</time>
      </trkpt>
      <trkpt lat="44.24524" lon="3.49504">
        <ele>1213.97</ele>
        <time>2019-07-29T14:21:50Z</time>
      </trkpt>
      <trkpt lat="44.24521" lon="3.49498">
        <ele>1214.119</ele>
        <time>2019-07-29T14:21:53Z</time>
      </trkpt>
      <trkpt lat="44.24518" lon="3.49492">
        <ele>1213.814</ele>
        <time>2019-07-29T14:21:57Z</time>
      </trkpt>
      <trkpt lat="44.24516" lon="3.49487">
        <ele>1213.654</ele>
        <time>2019-07-29T14:22:01Z</time>
      </trkpt>
      <trkpt lat="44.24512" lon="3.49481">
        <ele>1213.509</ele>
        <time>2019-07-29T14:22:05Z</time>
      </trkpt>
      <trkpt lat="44.24509" lon="3.49476">
        <ele>1213.008</ele>
        <time>2019-07-29T14:22:09Z</time>
      </trkpt>
      <trkpt lat="44.24506" lon="3.49471">
        <ele>1213.154</ele>
        <time>2019-07-29T14:22:14Z</time>
      </trkpt>
      <trkpt lat="44.24502" lon="3.49469">
        <ele>1213.26</ele>
        <time>2019-07-29T14:22:17Z</time>
      </trkpt>
      <trkpt lat="44.24497" lon="3.49467">
        <ele>1212.895</ele>
        <time>2019-07-29T14:22:20Z</time>
      </trkpt>
      <trkpt lat="44.24492" lon="3.49464">
        <ele>1212.629</ele>
        <time>2019-07-29T14:22:24Z</time>
      </trkpt>
      <trkpt lat="44.24488" lon="3.4946">
        <ele>1212.513</ele>
        <time>2019-07-29T14:22:28Z</time>
      </trkpt>
      <trkpt lat="44.24483" lon="3.49457">
        <ele>1212.414</ele>
        <time>2019-07-29T14:22:32Z</time>
      </trkpt>
      <trkpt lat="44.24479" lon="3.49454">
        <ele>1212.448</ele>
        <time>2019-07-29T14:22:59Z</time>
      </trkpt>
      <trkpt lat="44.24474" lon="3.4945">
        <ele>1211.667</ele>
        <time>2019-07-29T14:23:04Z</time>
      </trkpt>
      <trkpt lat="44.24469" lon="3.49447">
        <ele>1211.146</ele>
        <time>2019-07-29T14:23:08Z</time>
      </trkpt>
      <trkpt lat="44.24466" lon="3.49441">
        <ele>1210.888</ele>
        <time>2019-07-29T14:23:12Z</time>
      </trkpt>
      <trkpt lat="44.24465" lon="3.49434">
        <ele>1210.216</ele>
        <time>2019-07-29T14:23:16Z</time>
      </trkpt>
      <trkpt lat="44.24465" lon="3.49427">
        <ele>1208.308</ele>
        <time>2019-07-29T14:23:21Z</time>
      </trkpt>
      <trkpt lat="44.24467" lon="3.49421">
        <ele>1207.117</ele>
        <time>2019-07-29T14:23:25Z</time>
      </trkpt>
      <trkpt lat="44.24472" lon="3.49418">
        <ele>1206.483</ele>
        <time>2019-07-29T14:23:30Z</time>
      </trkpt>
      <trkpt lat="44.24477" lon="3.49413">
        <ele>1206.038</ele>
        <time>2019-07-29T14:23:37Z</time>
      </trkpt>
      <trkpt lat="44.2448" lon="3.49409">
        <ele>1206.992</ele>
        <time>2019-07-29T14:23:49Z</time>
      </trkpt>
      <trkpt lat="44.24484" lon="3.49404">
        <ele>1208.796</ele>
        <time>2019-07-29T14:23:52Z</time>
      </trkpt>
      <trkpt lat="44.24489" lon="3.49399">
        <ele>1209.457</ele>
        <time>2019-07-29T14:23:55Z</time>
      </trkpt>
      <trkpt lat="44.24492" lon="3.49393">
        <ele>1209.871</ele>
        <time>2019-07-29T14:23:58Z</time>
      </trkpt>
      <trkpt lat="44.24495" lon="3.49388">
        <ele>1210.02</ele>
        <time>2019-07-29T14:24:01Z</time>
      </trkpt>
      <trkpt lat="44.24497" lon="3.49382">
        <ele>1209.329</ele>
        <time>2019-07-29T14:24:04Z</time>
      </trkpt>
      <trkpt lat="44.24498" lon="3.49375">
        <ele>1208.1</ele>
        <time>2019-07-29T14:24:08Z</time>
      </trkpt>
      <trkpt lat="44.245" lon="3.49367">
        <ele>1207.02</ele>
        <time>2019-07-29T14:24:12Z</time>
      </trkpt>
      <trkpt lat="44.24502" lon="3.49361">
        <ele>1206.308</ele>
        <time>2019-07-29T14:24:17Z</time>
      </trkpt>
      <trkpt lat="44.24502" lon="3.49354">
        <ele>1205.575</ele>
        <time>2019-07-29T14:24:21Z</time>
      </trkpt>
      <trkpt lat="44.24503" lon="3.49347">
        <ele>1205.031</ele>
        <time>2019-07-29T14:24:25Z</time>
      </trkpt>
      <trkpt lat="44.24501" lon="3.4934">
        <ele>1204.796</ele>
        <time>2019-07-29T14:24:29Z</time>
      </trkpt>
      <trkpt lat="44.24499" lon="3.49334">
        <ele>1203.78</ele>
        <time>2019-07-29T14:24:33Z</time>
      </trkpt>
      <trkpt lat="44.24497" lon="3.49327">
        <ele>1203.194</ele>
        <time>2019-07-29T14:24:35Z</time>
      </trkpt>
      <trkpt lat="44.24496" lon="3.4932">
        <ele>1202.365</ele>
        <time>2019-07-29T14:24:39Z</time>
      </trkpt>
      <trkpt lat="44.24496" lon="3.49313">
        <ele>1201.459</ele>
        <time>2019-07-29T14:24:43Z</time>
      </trkpt>
      <trkpt lat="44.24494" lon="3.49306">
        <ele>1200.558</ele>
        <time>2019-07-29T14:24:47Z</time>
      </trkpt>
      <trkpt lat="44.24493" lon="3.49298">
        <ele>1199.635</ele>
        <time>2019-07-29T14:24:51Z</time>
      </trkpt>
      <trkpt lat="44.24491" lon="3.49292">
        <ele>1198.286</ele>
        <time>2019-07-29T14:24:55Z</time>
      </trkpt>
      <trkpt lat="44.24488" lon="3.49286">
        <ele>1197.414</ele>
        <time>2019-07-29T14:24:59Z</time>
      </trkpt>
      <trkpt lat="44.24487" lon="3.49279">
        <ele>1196.908</ele>
        <time>2019-07-29T14:25:03Z</time>
      </trkpt>
      <trkpt lat="44.24485" lon="3.49272">
        <ele>1196.636</ele>
        <time>2019-07-29T14:25:07Z</time>
      </trkpt>
      <trkpt lat="44.24483" lon="3.49265">
        <ele>1196.442</ele>
        <time>2019-07-29T14:25:11Z</time>
      </trkpt>
      <trkpt lat="44.24485" lon="3.49257">
        <ele>1196.337</ele>
        <time>2019-07-29T14:25:15Z</time>
      </trkpt>
      <trkpt lat="44.24489" lon="3.49252">
        <ele>1195.451</ele>
        <time>2019-07-29T14:25:18Z</time>
      </trkpt>
      <trkpt lat="44.24493" lon="3.49247">
        <ele>1194.565</ele>
        <time>2019-07-29T14:25:27Z</time>
      </trkpt>
      <trkpt lat="44.24496" lon="3.49242">
        <ele>1194.366</ele>
        <time>2019-07-29T14:25:30Z</time>
      </trkpt>
      <trkpt lat="44.245" lon="3.49234">
        <ele>1193.89</ele>
        <time>2019-07-29T14:25:39Z</time>
      </trkpt>
      <trkpt lat="44.24504" lon="3.49228">
        <ele>1193.529</ele>
        <time>2019-07-29T14:25:43Z</time>
      </trkpt>
      <trkpt lat="44.24508" lon="3.49222">
        <ele>1192.959</ele>
        <time>2019-07-29T14:25:49Z</time>
      </trkpt>
      <trkpt lat="44.24513" lon="3.49216">
        <ele>1192.203</ele>
        <time>2019-07-29T14:25:56Z</time>
      </trkpt>
      <trkpt lat="44.24519" lon="3.49209">
        <ele>1191.823</ele>
        <time>2019-07-29T14:26:02Z</time>
      </trkpt>
      <trkpt lat="44.24522" lon="3.49203">
        <ele>1191.508</ele>
        <time>2019-07-29T14:26:05Z</time>
      </trkpt>
      <trkpt lat="44.24526" lon="3.49197">
        <ele>1191.348</ele>
        <time>2019-07-29T14:26:08Z</time>
      </trkpt>
      <trkpt lat="44.24529" lon="3.49192">
        <ele>1191.214</ele>
        <time>2019-07-29T14:26:11Z</time>
      </trkpt>
      <trkpt lat="44.24531" lon="3.49186">
        <ele>1191.529</ele>
        <time>2019-07-29T14:26:15Z</time>
      </trkpt>
      <trkpt lat="44.24533" lon="3.49179">
        <ele>1191.373</ele>
        <time>2019-07-29T14:26:18Z</time>
      </trkpt>
      <trkpt lat="44.24536" lon="3.49173">
        <ele>1190.877</ele>
        <time>2019-07-29T14:26:21Z</time>
      </trkpt>
      <trkpt lat="44.24539" lon="3.49168">
        <ele>1189.758</ele>
        <time>2019-07-29T14:26:24Z</time>
      </trkpt>
      <trkpt lat="44.24541" lon="3.49161">
        <ele>1188.612</ele>
        <time>2019-07-29T14:26:28Z</time>
      </trkpt>
      <trkpt lat="44.24541" lon="3.49154">
        <ele>1188.021</ele>
        <time>2019-07-29T14:26:59Z</time>
      </trkpt>
      <trkpt lat="44.24541" lon="3.49147">
        <ele>1187.675</ele>
        <time>2019-07-29T14:27:03Z</time>
      </trkpt>
      <trkpt lat="44.24543" lon="3.49139">
        <ele>1187.028</ele>
        <time>2019-07-29T14:27:08Z</time>
      </trkpt>
      <trkpt lat="44.24543" lon="3.49132">
        <ele>1186.22</ele>
        <time>2019-07-29T14:27:13Z</time>
      </trkpt>
      <trkpt lat="44.24546" lon="3.49127">
        <ele>1186.108</ele>
        <time>2019-07-29T14:27:17Z</time>
      </trkpt>
      <trkpt lat="44.24551" lon="3.49119">
        <ele>1186.58</ele>
        <time>2019-07-29T14:27:23Z</time>
      </trkpt>
      <trkpt lat="44.24554" lon="3.49114">
        <ele>1187.126</ele>
        <time>2019-07-29T14:27:28Z</time>
      </trkpt>
      <trkpt lat="44.24557" lon="3.49109">
        <ele>1186.311</ele>
        <time>2019-07-29T14:27:33Z</time>
      </trkpt>
      <trkpt lat="44.24561" lon="3.491">
        <ele>1185.095</ele>
        <time>2019-07-29T14:27:43Z</time>
      </trkpt>
      <trkpt lat="44.24564" lon="3.49093">
        <ele>1184.639</ele>
        <time>2019-07-29T14:27:49Z</time>
      </trkpt>
      <trkpt lat="44.24566" lon="3.49088">
        <ele>1184.46</ele>
        <time>2019-07-29T14:27:52Z</time>
      </trkpt>
      <trkpt lat="44.24569" lon="3.49082">
        <ele>1183.934</ele>
        <time>2019-07-29T14:27:55Z</time>
      </trkpt>
      <trkpt lat="44.24572" lon="3.49078">
        <ele>1183.693</ele>
        <time>2019-07-29T14:27:59Z</time>
      </trkpt>
      <trkpt lat="44.24576" lon="3.49073">
        <ele>1183.432</ele>
        <time>2019-07-29T14:28:02Z</time>
      </trkpt>
      <trkpt lat="44.24579" lon="3.49069">
        <ele>1183.392</ele>
        <time>2019-07-29T14:28:05Z</time>
      </trkpt>
      <trkpt lat="44.24582" lon="3.49064">
        <ele>1182.811</ele>
        <time>2019-07-29T14:28:08Z</time>
      </trkpt>
      <trkpt lat="44.24586" lon="3.49057">
        <ele>1181.708</ele>
        <time>2019-07-29T14:28:12Z</time>
      </trkpt>
      <trkpt lat="44.24589" lon="3.49051">
        <ele>1180.716</ele>
        <time>2019-07-29T14:28:16Z</time>
      </trkpt>
      <trkpt lat="44.24591" lon="3.49046">
        <ele>1179.722</ele>
        <time>2019-07-29T14:28:19Z</time>
      </trkpt>
      <trkpt lat="44.24594" lon="3.49039">
        <ele>1179.197</ele>
        <time>2019-07-29T14:28:23Z</time>
      </trkpt>
      <trkpt lat="44.24597" lon="3.49033">
        <ele>1178.391</ele>
        <time>2019-07-29T14:28:27Z</time>
      </trkpt>
      <trkpt lat="44.246" lon="3.49027">
        <ele>1177.885</ele>
        <time>2019-07-29T14:28:31Z</time>
      </trkpt>
      <trkpt lat="44.24602" lon="3.49021">
        <ele>1177.966</ele>
        <time>2019-07-29T14:28:35Z</time>
      </trkpt>
      <trkpt lat="44.24604" lon="3.49014">
        <ele>1177.69</ele>
        <time>2019-07-29T14:28:39Z</time>
      </trkpt>
      <trkpt lat="44.24606" lon="3.49006">
        <ele>1177.069</ele>
        <time>2019-07-29T14:28:43Z</time>
      </trkpt>
      <trkpt lat="44.24609" lon="3.48999">
        <ele>1175.811</ele>
        <time>2019-07-29T14:28:47Z</time>
      </trkpt>
      <trkpt lat="44.2461" lon="3.48992">
        <ele>1174.721</ele>
        <time>2019-07-29T14:28:51Z</time>
      </trkpt>
      <trkpt lat="44.24611" lon="3.48984">
        <ele>1173.603</ele>
        <time>2019-07-29T14:28:55Z</time>
      </trkpt>
      <trkpt lat="44.24612" lon="3.48976">
        <ele>1173.008</ele>
        <time>2019-07-29T14:28:59Z</time>
      </trkpt>
      <trkpt lat="44.24614" lon="3.48968">
        <ele>1173.434</ele>
        <time>2019-07-29T14:29:03Z</time>
      </trkpt>
      <trkpt lat="44.24616" lon="3.48961">
        <ele>1174.14</ele>
        <time>2019-07-29T14:29:07Z</time>
      </trkpt>
      <trkpt lat="44.24619" lon="3.48953">
        <ele>1174.915</ele>
        <time>2019-07-29T14:29:11Z</time>
      </trkpt>
      <trkpt lat="44.24621" lon="3.48946">
        <ele>1175.069</ele>
        <time>2019-07-29T14:29:15Z</time>
      </trkpt>
      <trkpt lat="44.24623" lon="3.4894">
        <ele>1174.623</ele>
        <time>2019-07-29T14:29:19Z</time>
      </trkpt>
      <trkpt lat="44.24625" lon="3.48934">
        <ele>1174.814</ele>
        <time>2019-07-29T14:29:22Z</time>
      </trkpt>
      <trkpt lat="44.24628" lon="3.48929">
        <ele>1176.138</ele>
        <time>2019-07-29T14:29:25Z</time>
      </trkpt>
      <trkpt lat="44.2463" lon="3.48924">
        <ele>1176.557</ele>
        <time>2019-07-29T14:29:28Z</time>
      </trkpt>
      <trkpt lat="44.24633" lon="3.48917">
        <ele>1177.117</ele>
        <time>2019-07-29T14:29:32Z</time>
      </trkpt>
      <trkpt lat="44.24635" lon="3.48911">
        <ele>1177.987</ele>
        <time>2019-07-29T14:29:36Z</time>
      </trkpt>
      <trkpt lat="44.24637" lon="3.48904">
        <ele>1178.015</ele>
        <time>2019-07-29T14:29:40Z</time>
      </trkpt>
      <trkpt lat="44.24639" lon="3.48897">
        <ele>1178.408</ele>
        <time>2019-07-29T14:29:44Z</time>
      </trkpt>
      <trkpt lat="44.24641" lon="3.4889">
        <ele>1179.184</ele>
        <time>2019-07-29T14:29:48Z</time>
      </trkpt>
      <trkpt lat="44.24642" lon="3.48884">
        <ele>1178.72</ele>
        <time>2019-07-29T14:29:51Z</time>
      </trkpt>
      <trkpt lat="44.24644" lon="3.48878">
        <ele>1178.515</ele>
        <time>2019-07-29T14:29:54Z</time>
      </trkpt>
      <trkpt lat="44.24646" lon="3.48871">
        <ele>1178.069</ele>
        <time>2019-07-29T14:29:58Z</time>
      </trkpt>
      <trkpt lat="44.24648" lon="3.48865">
        <ele>1177.713</ele>
        <time>2019-07-29T14:30:01Z</time>
      </trkpt>
      <trkpt lat="44.24649" lon="3.48858">
        <ele>1177.934</ele>
        <time>2019-07-29T14:30:05Z</time>
      </trkpt>
      <trkpt lat="44.24649" lon="3.4885">
        <ele>1178.868</ele>
        <time>2019-07-29T14:30:09Z</time>
      </trkpt>
      <trkpt lat="44.24647" lon="3.48842">
        <ele>1179.047</ele>
        <time>2019-07-29T14:30:13Z</time>
      </trkpt>
      <trkpt lat="44.24646" lon="3.48835">
        <ele>1178.788</ele>
        <time>2019-07-29T14:30:17Z</time>
      </trkpt>
      <trkpt lat="44.24646" lon="3.48827">
        <ele>1178.924</ele>
        <time>2019-07-29T14:30:21Z</time>
      </trkpt>
      <trkpt lat="44.24644" lon="3.48821">
        <ele>1179.426</ele>
        <time>2019-07-29T14:30:25Z</time>
      </trkpt>
      <trkpt lat="44.24641" lon="3.48815">
        <ele>1180.108</ele>
        <time>2019-07-29T14:30:29Z</time>
      </trkpt>
      <trkpt lat="44.24639" lon="3.48809">
        <ele>1180.961</ele>
        <time>2019-07-29T14:30:33Z</time>
      </trkpt>
      <trkpt lat="44.24637" lon="3.48802">
        <ele>1181.477</ele>
        <time>2019-07-29T14:30:38Z</time>
      </trkpt>
      <trkpt lat="44.24636" lon="3.48796">
        <ele>1182.112</ele>
        <time>2019-07-29T14:30:42Z</time>
      </trkpt>
      <trkpt lat="44.24637" lon="3.48789">
        <ele>1182.966</ele>
        <time>2019-07-29T14:30:48Z</time>
      </trkpt>
      <trkpt lat="44.24639" lon="3.48783">
        <ele>1184.65</ele>
        <time>2019-07-29T14:30:54Z</time>
      </trkpt>
      <trkpt lat="44.24645" lon="3.48783">
        <ele>1186.831</ele>
        <time>2019-07-29T14:31:01Z</time>
      </trkpt>
      <trkpt lat="44.24649" lon="3.48785">
        <ele>1188.945</ele>
        <time>2019-07-29T14:31:06Z</time>
      </trkpt>
      <trkpt lat="44.24654" lon="3.48787">
        <ele>1190.214</ele>
        <time>2019-07-29T14:31:11Z</time>
      </trkpt>
      <trkpt lat="44.24658" lon="3.48789">
        <ele>1191.458</ele>
        <time>2019-07-29T14:31:16Z</time>
      </trkpt>
      <trkpt lat="44.24664" lon="3.48788">
        <ele>1192.552</ele>
        <time>2019-07-29T14:31:22Z</time>
      </trkpt>
      <trkpt lat="44.24669" lon="3.48787">
        <ele>1193.617</ele>
        <time>2019-07-29T14:31:26Z</time>
      </trkpt>
      <trkpt lat="44.24673" lon="3.48788">
        <ele>1195.808</ele>
        <time>2019-07-29T14:32:22Z</time>
      </trkpt>
      <trkpt lat="44.24678" lon="3.48786">
        <ele>1196.778</ele>
        <time>2019-07-29T14:32:28Z</time>
      </trkpt>
      <trkpt lat="44.24683" lon="3.48783">
        <ele>1197.324</ele>
        <time>2019-07-29T14:32:33Z</time>
      </trkpt>
      <trkpt lat="44.24687" lon="3.48782">
        <ele>1197.659</ele>
        <time>2019-07-29T14:32:38Z</time>
      </trkpt>
      <trkpt lat="44.24693" lon="3.4878">
        <ele>1197.473</ele>
        <time>2019-07-29T14:32:49Z</time>
      </trkpt>
      <trkpt lat="44.24697" lon="3.4878">
        <ele>1197.777</ele>
        <time>2019-07-29T14:32:54Z</time>
      </trkpt>
      <trkpt lat="44.24702" lon="3.48779">
        <ele>1198.338</ele>
        <time>2019-07-29T14:32:58Z</time>
      </trkpt>
      <trkpt lat="44.24707" lon="3.48778">
        <ele>1199.052</ele>
        <time>2019-07-29T14:33:02Z</time>
      </trkpt>
      <trkpt lat="44.24712" lon="3.48776">
        <ele>1200.271</ele>
        <time>2019-07-29T14:33:07Z</time>
      </trkpt>
      <trkpt lat="44.24716" lon="3.48773">
        <ele>1200.979</ele>
        <time>2019-07-29T14:33:11Z</time>
      </trkpt>
      <trkpt lat="44.24721" lon="3.48768">
        <ele>1201.705</ele>
        <time>2019-07-29T14:33:15Z</time>
      </trkpt>
      <trkpt lat="44.24725" lon="3.48762">
        <ele>1202.225</ele>
        <time>2019-07-29T14:33:19Z</time>
      </trkpt>
      <trkpt lat="44.24728" lon="3.48758">
        <ele>1202.108</ele>
        <time>2019-07-29T14:33:23Z</time>
      </trkpt>
      <trkpt lat="44.24732" lon="3.48754">
        <ele>1202.05</ele>
        <time>2019-07-29T14:33:32Z</time>
      </trkpt>
      <trkpt lat="44.24736" lon="3.4875">
        <ele>1202.056</ele>
        <time>2019-07-29T14:33:38Z</time>
      </trkpt>
      <trkpt lat="44.24741" lon="3.48746">
        <ele>1202.451</ele>
        <time>2019-07-29T14:33:43Z</time>
      </trkpt>
      <trkpt lat="44.24744" lon="3.48742">
        <ele>1203.025</ele>
        <time>2019-07-29T14:33:48Z</time>
      </trkpt>
      <trkpt lat="44.24748" lon="3.48738">
        <ele>1203.889</ele>
        <time>2019-07-29T14:33:52Z</time>
      </trkpt>
      <trkpt lat="44.24752" lon="3.48734">
        <ele>1204.39</ele>
        <time>2019-07-29T14:33:56Z</time>
      </trkpt>
      <trkpt lat="44.24756" lon="3.4873">
        <ele>1204.674</ele>
        <time>2019-07-29T14:34:00Z</time>
      </trkpt>
      <trkpt lat="44.24759" lon="3.48725">
        <ele>1205.293</ele>
        <time>2019-07-29T14:34:04Z</time>
      </trkpt>
      <trkpt lat="44.24763" lon="3.4872">
        <ele>1205.596</ele>
        <time>2019-07-29T14:34:08Z</time>
      </trkpt>
      <trkpt lat="44.24766" lon="3.48714">
        <ele>1205.331</ele>
        <time>2019-07-29T14:34:12Z</time>
      </trkpt>
      <trkpt lat="44.2477" lon="3.48709">
        <ele>1204.824</ele>
        <time>2019-07-29T14:34:17Z</time>
      </trkpt>
      <trkpt lat="44.24773" lon="3.48703">
        <ele>1204.908</ele>
        <time>2019-07-29T14:34:33Z</time>
      </trkpt>
      <trkpt lat="44.24776" lon="3.48698">
        <ele>1204.252</ele>
        <time>2019-07-29T14:34:38Z</time>
      </trkpt>
      <trkpt lat="44.24779" lon="3.48692">
        <ele>1203.468</ele>
        <time>2019-07-29T14:34:42Z</time>
      </trkpt>
      <trkpt lat="44.24782" lon="3.48686">
        <ele>1202.543</ele>
        <time>2019-07-29T14:34:46Z</time>
      </trkpt>
      <trkpt lat="44.24786" lon="3.4868">
        <ele>1202.027</ele>
        <time>2019-07-29T14:34:52Z</time>
      </trkpt>
      <trkpt lat="44.24789" lon="3.48673">
        <ele>1201.791</ele>
        <time>2019-07-29T14:34:56Z</time>
      </trkpt>
      <trkpt lat="44.24791" lon="3.48667">
        <ele>1201.172</ele>
        <time>2019-07-29T14:34:59Z</time>
      </trkpt>
      <trkpt lat="44.24793" lon="3.48661">
        <ele>1201.526</ele>
        <time>2019-07-29T14:35:03Z</time>
      </trkpt>
      <trkpt lat="44.24796" lon="3.48654">
        <ele>1201.815</ele>
        <time>2019-07-29T14:35:07Z</time>
      </trkpt>
      <trkpt lat="44.24799" lon="3.48647">
        <ele>1202.027</ele>
        <time>2019-07-29T14:35:11Z</time>
      </trkpt>
      <trkpt lat="44.24801" lon="3.48641">
        <ele>1202.168</ele>
        <time>2019-07-29T14:35:14Z</time>
      </trkpt>
      <trkpt lat="44.24803" lon="3.48634">
        <ele>1201.414</ele>
        <time>2019-07-29T14:35:19Z</time>
      </trkpt>
      <trkpt lat="44.24806" lon="3.48627">
        <ele>1201.808</ele>
        <time>2019-07-29T14:35:24Z</time>
      </trkpt>
      <trkpt lat="44.24809" lon="3.48622">
        <ele>1202.075</ele>
        <time>2019-07-29T14:35:27Z</time>
      </trkpt>
      <trkpt lat="44.24812" lon="3.48616">
        <ele>1202.121</ele>
        <time>2019-07-29T14:35:31Z</time>
      </trkpt>
      <trkpt lat="44.24816" lon="3.48611">
        <ele>1201.816</ele>
        <time>2019-07-29T14:35:37Z</time>
      </trkpt>
      <trkpt lat="44.24821" lon="3.48607">
        <ele>1202.04</ele>
        <time>2019-07-29T14:35:41Z</time>
      </trkpt>
      <trkpt lat="44.24825" lon="3.48604">
        <ele>1202.574</ele>
        <time>2019-07-29T14:35:45Z</time>
      </trkpt>
      <trkpt lat="44.24829" lon="3.48601">
        <ele>1203.225</ele>
        <time>2019-07-29T14:35:48Z</time>
      </trkpt>
      <trkpt lat="44.24834" lon="3.48598">
        <ele>1203.659</ele>
        <time>2019-07-29T14:35:52Z</time>
      </trkpt>
      <trkpt lat="44.24839" lon="3.48595">
        <ele>1203.598</ele>
        <time>2019-07-29T14:35:56Z</time>
      </trkpt>
      <trkpt lat="44.24844" lon="3.48593">
        <ele>1203.474</ele>
        <time>2019-07-29T14:36:00Z</time>
      </trkpt>
      <trkpt lat="44.24848" lon="3.48592">
        <ele>1203.756</ele>
        <time>2019-07-29T14:36:16Z</time>
      </trkpt>
      <trkpt lat="44.24855" lon="3.4859">
        <ele>1203.921</ele>
        <time>2019-07-29T14:36:32Z</time>
      </trkpt>
      <trkpt lat="44.24859" lon="3.48588">
        <ele>1203.608</ele>
        <time>2019-07-29T14:36:36Z</time>
      </trkpt>
      <trkpt lat="44.24864" lon="3.48586">
        <ele>1203.81</ele>
        <time>2019-07-29T14:36:40Z</time>
      </trkpt>
      <trkpt lat="44.24869" lon="3.48585">
        <ele>1204.396</ele>
        <time>2019-07-29T14:36:43Z</time>
      </trkpt>
      <trkpt lat="44.24874" lon="3.48581">
        <ele>1203.831</ele>
        <time>2019-07-29T14:36:47Z</time>
      </trkpt>
      <trkpt lat="44.24878" lon="3.48579">
        <ele>1203.935</ele>
        <time>2019-07-29T14:36:51Z</time>
      </trkpt>
      <trkpt lat="44.24883" lon="3.48575">
        <ele>1203.699</ele>
        <time>2019-07-29T14:36:55Z</time>
      </trkpt>
      <trkpt lat="44.2489" lon="3.48569">
        <ele>1201.03</ele>
        <time>2019-07-29T14:38:12Z</time>
      </trkpt>
      <trkpt lat="44.24895" lon="3.48566">
        <ele>1198.614</ele>
        <time>2019-07-29T14:38:15Z</time>
      </trkpt>
      <trkpt lat="44.24901" lon="3.48563">
        <ele>1197.213</ele>
        <time>2019-07-29T14:38:18Z</time>
      </trkpt>
      <trkpt lat="44.24906" lon="3.48559">
        <ele>1196.467</ele>
        <time>2019-07-29T14:38:21Z</time>
      </trkpt>
      <trkpt lat="44.2491" lon="3.48555">
        <ele>1195.981</ele>
        <time>2019-07-29T14:38:23Z</time>
      </trkpt>
      <trkpt lat="44.24914" lon="3.48552">
        <ele>1196.019</ele>
        <time>2019-07-29T14:38:26Z</time>
      </trkpt>
      <trkpt lat="44.24919" lon="3.48547">
        <ele>1195.308</ele>
        <time>2019-07-29T14:38:30Z</time>
      </trkpt>
      <trkpt lat="44.24922" lon="3.48543">
        <ele>1195.389</ele>
        <time>2019-07-29T14:38:34Z</time>
      </trkpt>
      <trkpt lat="44.24928" lon="3.48539">
        <ele>1194.985</ele>
        <time>2019-07-29T14:38:38Z</time>
      </trkpt>
      <trkpt lat="44.24931" lon="3.48532">
        <ele>1195.04</ele>
        <time>2019-07-29T14:38:45Z</time>
      </trkpt>
      <trkpt lat="44.24926" lon="3.48532">
        <ele>1193.914</ele>
        <time>2019-07-29T14:39:04Z</time>
      </trkpt>
      <trkpt lat="44.24924" lon="3.48525">
        <ele>1193.638</ele>
        <time>2019-07-29T14:39:11Z</time>
      </trkpt>
      <trkpt lat="44.24925" lon="3.48519">
        <ele>1193.449</ele>
        <time>2019-07-29T14:39:15Z</time>
      </trkpt>
      <trkpt lat="44.24927" lon="3.48512">
        <ele>1192.153</ele>
        <time>2019-07-29T14:39:20Z</time>
      </trkpt>
      <trkpt lat="44.24929" lon="3.48505">
        <ele>1190.562</ele>
        <time>2019-07-29T14:39:25Z</time>
      </trkpt>
      <trkpt lat="44.24932" lon="3.485">
        <ele>1190.065</ele>
        <time>2019-07-29T14:39:29Z</time>
      </trkpt>
      <trkpt lat="44.24934" lon="3.48493">
        <ele>1189.768</ele>
        <time>2019-07-29T14:39:33Z</time>
      </trkpt>
      <trkpt lat="44.24935" lon="3.48487">
        <ele>1189.914</ele>
        <time>2019-07-29T14:39:37Z</time>
      </trkpt>
      <trkpt lat="44.24934" lon="3.4848">
        <ele>1190.008</ele>
        <time>2019-07-29T14:39:41Z</time>
      </trkpt>
      <trkpt lat="44.24935" lon="3.48473">
        <ele>1189.779</ele>
        <time>2019-07-29T14:39:46Z</time>
      </trkpt>
      <trkpt lat="44.24936" lon="3.48466">
        <ele>1189.575</ele>
        <time>2019-07-29T14:39:51Z</time>
      </trkpt>
      <trkpt lat="44.24937" lon="3.48459">
        <ele>1189.08</ele>
        <time>2019-07-29T14:39:55Z</time>
      </trkpt>
      <trkpt lat="44.24938" lon="3.48452">
        <ele>1188.334</ele>
        <time>2019-07-29T14:40:00Z</time>
      </trkpt>
      <trkpt lat="44.2494" lon="3.48445">
        <ele>1187.568</ele>
        <time>2019-07-29T14:40:04Z</time>
      </trkpt>
      <trkpt lat="44.2494" lon="3.48438">
        <ele>1187.459</ele>
        <time>2019-07-29T14:40:08Z</time>
      </trkpt>
      <trkpt lat="44.24939" lon="3.48431">
        <ele>1187.333</ele>
        <time>2019-07-29T14:40:12Z</time>
      </trkpt>
      <trkpt lat="44.2494" lon="3.48425">
        <ele>1187.362</ele>
        <time>2019-07-29T14:40:20Z</time>
      </trkpt>
      <trkpt lat="44.24942" lon="3.48417">
        <ele>1186.527</ele>
        <time>2019-07-29T14:40:26Z</time>
      </trkpt>
      <trkpt lat="44.24942" lon="3.48409">
        <ele>1186.468</ele>
        <time>2019-07-29T14:40:31Z</time>
      </trkpt>
      <trkpt lat="44.24942" lon="3.48403">
        <ele>1186.314</ele>
        <time>2019-07-29T14:40:36Z</time>
      </trkpt>
      <trkpt lat="44.2494" lon="3.48396">
        <ele>1185.108</ele>
        <time>2019-07-29T14:40:42Z</time>
      </trkpt>
      <trkpt lat="44.24937" lon="3.4839">
        <ele>1184.455</ele>
        <time>2019-07-29T14:40:47Z</time>
      </trkpt>
      <trkpt lat="44.24934" lon="3.48384">
        <ele>1183.651</ele>
        <time>2019-07-29T14:40:52Z</time>
      </trkpt>
      <trkpt lat="44.2493" lon="3.48381">
        <ele>1182.336</ele>
        <time>2019-07-29T14:40:56Z</time>
      </trkpt>
      <trkpt lat="44.24925" lon="3.48378">
        <ele>1180.72</ele>
        <time>2019-07-29T14:41:01Z</time>
      </trkpt>
      <trkpt lat="44.2492" lon="3.48374">
        <ele>1179.374</ele>
        <time>2019-07-29T14:41:04Z</time>
      </trkpt>
      <trkpt lat="44.24912" lon="3.48366">
        <ele>1180.135</ele>
        <time>2019-07-29T14:41:30Z</time>
      </trkpt>
      <trkpt lat="44.24911" lon="3.48359">
        <ele>1179.469</ele>
        <time>2019-07-29T14:41:34Z</time>
      </trkpt>
      <trkpt lat="44.24908" lon="3.48352">
        <ele>1179.058</ele>
        <time>2019-07-29T14:41:38Z</time>
      </trkpt>
      <trkpt lat="44.24905" lon="3.48347">
        <ele>1178.745</ele>
        <time>2019-07-29T14:41:42Z</time>
      </trkpt>
      <trkpt lat="44.24901" lon="3.48341">
        <ele>1179.347</ele>
        <time>2019-07-29T14:41:51Z</time>
      </trkpt>
      <trkpt lat="44.249" lon="3.48335">
        <ele>1179.711</ele>
        <time>2019-07-29T14:41:55Z</time>
      </trkpt>
      <trkpt lat="44.24896" lon="3.48331">
        <ele>1180.708</ele>
        <time>2019-07-29T14:42:07Z</time>
      </trkpt>
      <trkpt lat="44.24898" lon="3.48337">
        <ele>1182.937</ele>
        <time>2019-07-29T14:42:17Z</time>
      </trkpt>
      <trkpt lat="44.24901" lon="3.48341">
        <ele>1184.273</ele>
        <time>2019-07-29T14:42:22Z</time>
      </trkpt>
      <trkpt lat="44.24904" lon="3.48348">
        <ele>1184.688</ele>
        <time>2019-07-29T14:42:26Z</time>
      </trkpt>
      <trkpt lat="44.24905" lon="3.48354">
        <ele>1185.612</ele>
        <time>2019-07-29T14:42:31Z</time>
      </trkpt>
      <trkpt lat="44.24903" lon="3.48347">
        <ele>1185.026</ele>
        <time>2019-07-29T14:46:52Z</time>
      </trkpt>
      <trkpt lat="44.24901" lon="3.4834">
        <ele>1183.917</ele>
        <time>2019-07-29T14:46:56Z</time>
      </trkpt>
      <trkpt lat="44.24899" lon="3.48334">
        <ele>1182.891</ele>
        <time>2019-07-29T14:46:59Z</time>
      </trkpt>
      <trkpt lat="44.24898" lon="3.48326">
        <ele>1182.58</ele>
        <time>2019-07-29T14:47:02Z</time>
      </trkpt>
      <trkpt lat="44.24896" lon="3.48319">
        <ele>1183.149</ele>
        <time>2019-07-29T14:47:05Z</time>
      </trkpt>
      <trkpt lat="44.24893" lon="3.48314">
        <ele>1183.902</ele>
        <time>2019-07-29T14:47:08Z</time>
      </trkpt>
      <trkpt lat="44.24892" lon="3.48308">
        <ele>1184.422</ele>
        <time>2019-07-29T14:47:12Z</time>
      </trkpt>
      <trkpt lat="44.24887" lon="3.48307">
        <ele>1183.908</ele>
        <time>2019-07-29T14:47:24Z</time>
      </trkpt>
      <trkpt lat="44.2488" lon="3.48301">
        <ele>1182.037</ele>
        <time>2019-07-29T14:47:27Z</time>
      </trkpt>
      <trkpt lat="44.24886" lon="3.48301">
        <ele>1183.383</ele>
        <time>2019-07-29T14:47:47Z</time>
      </trkpt>
      <trkpt lat="44.24885" lon="3.48294">
        <ele>1183.788</ele>
        <time>2019-07-29T14:47:56Z</time>
      </trkpt>
      <trkpt lat="44.24882" lon="3.48289">
        <ele>1182.752</ele>
        <time>2019-07-29T14:48:02Z</time>
      </trkpt>
      <trkpt lat="44.24878" lon="3.48284">
        <ele>1181.316</ele>
        <time>2019-07-29T14:48:09Z</time>
      </trkpt>
      <trkpt lat="44.24875" lon="3.48278">
        <ele>1180.577</ele>
        <time>2019-07-29T14:48:13Z</time>
      </trkpt>
      <trkpt lat="44.2487" lon="3.48278">
        <ele>1181.691</ele>
        <time>2019-07-29T14:48:20Z</time>
      </trkpt>
      <trkpt lat="44.24868" lon="3.48271">
        <ele>1182.38</ele>
        <time>2019-07-29T14:48:31Z</time>
      </trkpt>
      <trkpt lat="44.24864" lon="3.48267">
        <ele>1182.769</ele>
        <time>2019-07-29T14:48:40Z</time>
      </trkpt>
      <trkpt lat="44.2486" lon="3.48264">
        <ele>1182.104</ele>
        <time>2019-07-29T14:48:46Z</time>
      </trkpt>
      <trkpt lat="44.24856" lon="3.48261">
        <ele>1181.824</ele>
        <time>2019-07-29T14:48:50Z</time>
      </trkpt>
      <trkpt lat="44.24851" lon="3.48257">
        <ele>1180.008</ele>
        <time>2019-07-29T14:48:56Z</time>
      </trkpt>
      <trkpt lat="44.24846" lon="3.48254">
        <ele>1179.729</ele>
        <time>2019-07-29T14:49:00Z</time>
      </trkpt>
      <trkpt lat="44.24841" lon="3.48253">
        <ele>1181.145</ele>
        <time>2019-07-29T14:49:08Z</time>
      </trkpt>
      <trkpt lat="44.24838" lon="3.48248">
        <ele>1182.01</ele>
        <time>2019-07-29T14:49:16Z</time>
      </trkpt>
      <trkpt lat="44.24843" lon="3.48251">
        <ele>1183.374</ele>
        <time>2019-07-29T14:49:23Z</time>
      </trkpt>
      <trkpt lat="44.24848" lon="3.48254">
        <ele>1183.768</ele>
        <time>2019-07-29T14:49:29Z</time>
      </trkpt>
      <trkpt lat="44.24852" lon="3.48256">
        <ele>1183.179</ele>
        <time>2019-07-29T14:49:34Z</time>
      </trkpt>
      <trkpt lat="44.24856" lon="3.48259">
        <ele>1183.223</ele>
        <time>2019-07-29T14:49:38Z</time>
      </trkpt>
      <trkpt lat="44.24861" lon="3.48262">
        <ele>1183.642</ele>
        <time>2019-07-29T14:49:43Z</time>
      </trkpt>
      <trkpt lat="44.24862" lon="3.48268">
        <ele>1184.363</ele>
        <time>2019-07-29T14:49:50Z</time>
      </trkpt>
      <trkpt lat="44.24866" lon="3.48272">
        <ele>1185.144</ele>
        <time>2019-07-29T14:49:53Z</time>
      </trkpt>
      <trkpt lat="44.24871" lon="3.48276">
        <ele>1185.618</ele>
        <time>2019-07-29T14:49:56Z</time>
      </trkpt>
      <trkpt lat="44.24875" lon="3.4828">
        <ele>1186.308</ele>
        <time>2019-07-29T14:50:01Z</time>
      </trkpt>
      <trkpt lat="44.2489" lon="3.48304">
        <ele>1184.369</ele>
        <time>2019-07-29T15:08:12Z</time>
      </trkpt>
      <trkpt lat="44.24886" lon="3.48298">
        <ele>1185.135</ele>
        <time>2019-07-29T15:08:17Z</time>
      </trkpt>
      <trkpt lat="44.24882" lon="3.48294">
        <ele>1185.23</ele>
        <time>2019-07-29T15:08:23Z</time>
      </trkpt>
      <trkpt lat="44.24877" lon="3.48294">
        <ele>1184.494</ele>
        <time>2019-07-29T15:08:54Z</time>
      </trkpt>
      <trkpt lat="44.24875" lon="3.48287">
        <ele>1184.798</ele>
        <time>2019-07-29T15:08:59Z</time>
      </trkpt>
      <trkpt lat="44.24871" lon="3.4828">
        <ele>1186.959</ele>
        <time>2019-07-29T15:09:02Z</time>
      </trkpt>
      <trkpt lat="44.24867" lon="3.48274">
        <ele>1189.033</ele>
        <time>2019-07-29T15:09:14Z</time>
      </trkpt>
      <trkpt lat="44.24866" lon="3.48268">
        <ele>1189.192</ele>
        <time>2019-07-29T15:09:20Z</time>
      </trkpt>
      <trkpt lat="44.24862" lon="3.48265">
        <ele>1187.992</ele>
        <time>2019-07-29T15:09:38Z</time>
      </trkpt>
      <trkpt lat="44.24857" lon="3.48263">
        <ele>1188.073</ele>
        <time>2019-07-29T15:09:43Z</time>
      </trkpt>
      <trkpt lat="44.24853" lon="3.48261">
        <ele>1186.52</ele>
        <time>2019-07-29T15:09:52Z</time>
      </trkpt>
      <trkpt lat="44.24848" lon="3.4826">
        <ele>1185.208</ele>
        <time>2019-07-29T15:09:56Z</time>
      </trkpt>
      <trkpt lat="44.24844" lon="3.48256">
        <ele>1184.482</ele>
        <time>2019-07-29T15:10:00Z</time>
      </trkpt>
      <trkpt lat="44.24837" lon="3.48252">
        <ele>1185.998</ele>
        <time>2019-07-29T15:11:07Z</time>
      </trkpt>
      <trkpt lat="44.24833" lon="3.48247">
        <ele>1185.293</ele>
        <time>2019-07-29T15:11:12Z</time>
      </trkpt>
      <trkpt lat="44.24831" lon="3.48241">
        <ele>1185.237</ele>
        <time>2019-07-29T15:11:17Z</time>
      </trkpt>
      <trkpt lat="44.24828" lon="3.48236">
        <ele>1184.861</ele>
        <time>2019-07-29T15:11:22Z</time>
      </trkpt>
      <trkpt lat="44.24825" lon="3.4823">
        <ele>1184.272</ele>
        <time>2019-07-29T15:11:27Z</time>
      </trkpt>
      <trkpt lat="44.24822" lon="3.48225">
        <ele>1183.836</ele>
        <time>2019-07-29T15:11:32Z</time>
      </trkpt>
      <trkpt lat="44.24818" lon="3.4822">
        <ele>1183.295</ele>
        <time>2019-07-29T15:11:38Z</time>
      </trkpt>
      <trkpt lat="44.24814" lon="3.48216">
        <ele>1182.487</ele>
        <time>2019-07-29T15:11:43Z</time>
      </trkpt>
      <trkpt lat="44.24808" lon="3.48215">
        <ele>1184.342</ele>
        <time>2019-07-29T15:12:26Z</time>
      </trkpt>
      <trkpt lat="44.24803" lon="3.48212">
        <ele>1186.726</ele>
        <time>2019-07-29T15:12:31Z</time>
      </trkpt>
      <trkpt lat="44.24798" lon="3.48209">
        <ele>1188.108</ele>
        <time>2019-07-29T15:12:35Z</time>
      </trkpt>
      <trkpt lat="44.24794" lon="3.48205">
        <ele>1186.151</ele>
        <time>2019-07-29T15:12:56Z</time>
      </trkpt>
      <trkpt lat="44.2479" lon="3.48203">
        <ele>1184.947</ele>
        <time>2019-07-29T15:13:00Z</time>
      </trkpt>
      <trkpt lat="44.24783" lon="3.48201">
        <ele>1183.012</ele>
        <time>2019-07-29T15:13:15Z</time>
      </trkpt>
      <trkpt lat="44.24779" lon="3.48204">
        <ele>1182.316</ele>
        <time>2019-07-29T15:13:20Z</time>
      </trkpt>
      <trkpt lat="44.24774" lon="3.48208">
        <ele>1181.59</ele>
        <time>2019-07-29T15:13:25Z</time>
      </trkpt>
      <trkpt lat="44.2477" lon="3.48212">
        <ele>1180.661</ele>
        <time>2019-07-29T15:13:29Z</time>
      </trkpt>
      <trkpt lat="44.24766" lon="3.48217">
        <ele>1179.355</ele>
        <time>2019-07-29T15:13:34Z</time>
      </trkpt>
      <trkpt lat="44.24762" lon="3.48221">
        <ele>1178.134</ele>
        <time>2019-07-29T15:13:38Z</time>
      </trkpt>
      <trkpt lat="44.24757" lon="3.48223">
        <ele>1177.433</ele>
        <time>2019-07-29T15:13:42Z</time>
      </trkpt>
      <trkpt lat="44.24752" lon="3.48225">
        <ele>1176.223</ele>
        <time>2019-07-29T15:13:46Z</time>
      </trkpt>
      <trkpt lat="44.24748" lon="3.48228">
        <ele>1175.515</ele>
        <time>2019-07-29T15:13:51Z</time>
      </trkpt>
      <trkpt lat="44.2474" lon="3.48232">
        <ele>1175.108</ele>
        <time>2019-07-29T15:15:12Z</time>
      </trkpt>
      <trkpt lat="44.24735" lon="3.48234">
        <ele>1176.026</ele>
        <time>2019-07-29T15:15:15Z</time>
      </trkpt>
      <trkpt lat="44.2473" lon="3.48238">
        <ele>1176.622</ele>
        <time>2019-07-29T15:15:18Z</time>
      </trkpt>
      <trkpt lat="44.24726" lon="3.48241">
        <ele>1176.937</ele>
        <time>2019-07-29T15:15:21Z</time>
      </trkpt>
      <trkpt lat="44.2472" lon="3.48245">
        <ele>1177.161</ele>
        <time>2019-07-29T15:15:25Z</time>
      </trkpt>
      <trkpt lat="44.24716" lon="3.48247">
        <ele>1177.225</ele>
        <time>2019-07-29T15:15:28Z</time>
      </trkpt>
      <trkpt lat="44.24712" lon="3.48249">
        <ele>1177.786</ele>
        <time>2019-07-29T15:15:31Z</time>
      </trkpt>
      <trkpt lat="44.24708" lon="3.48253">
        <ele>1177.64</ele>
        <time>2019-07-29T15:15:35Z</time>
      </trkpt>
      <trkpt lat="44.24706" lon="3.48261">
        <ele>1176.789</ele>
        <time>2019-07-29T15:15:39Z</time>
      </trkpt>
      <trkpt lat="44.24702" lon="3.48265">
        <ele>1176.657</ele>
        <time>2019-07-29T15:15:43Z</time>
      </trkpt>
      <trkpt lat="44.24698" lon="3.48268">
        <ele>1177.3</ele>
        <time>2019-07-29T15:15:47Z</time>
      </trkpt>
      <trkpt lat="44.24692" lon="3.48271">
        <ele>1177.72</ele>
        <time>2019-07-29T15:15:51Z</time>
      </trkpt>
      <trkpt lat="44.24689" lon="3.48275">
        <ele>1177.208</ele>
        <time>2019-07-29T15:15:55Z</time>
      </trkpt>
      <trkpt lat="44.24684" lon="3.48279">
        <ele>1177.338</ele>
        <time>2019-07-29T15:15:59Z</time>
      </trkpt>
      <trkpt lat="44.2468" lon="3.48281">
        <ele>1177.754</ele>
        <time>2019-07-29T15:16:03Z</time>
      </trkpt>
      <trkpt lat="44.24676" lon="3.48285">
        <ele>1177.259</ele>
        <time>2019-07-29T15:16:08Z</time>
      </trkpt>
      <trkpt lat="44.24672" lon="3.48289">
        <ele>1176.543</ele>
        <time>2019-07-29T15:16:12Z</time>
      </trkpt>
      <trkpt lat="44.24667" lon="3.48294">
        <ele>1176.977</ele>
        <time>2019-07-29T15:16:16Z</time>
      </trkpt>
      <trkpt lat="44.24664" lon="3.48299">
        <ele>1175.918</ele>
        <time>2019-07-29T15:16:20Z</time>
      </trkpt>
      <trkpt lat="44.2466" lon="3.48303">
        <ele>1174.562</ele>
        <time>2019-07-29T15:16:24Z</time>
      </trkpt>
      <trkpt lat="44.24656" lon="3.48306">
        <ele>1173.311</ele>
        <time>2019-07-29T15:16:28Z</time>
      </trkpt>
      <trkpt lat="44.24652" lon="3.48309">
        <ele>1172.293</ele>
        <time>2019-07-29T15:16:32Z</time>
      </trkpt>
      <trkpt lat="44.24648" lon="3.48314">
        <ele>1171.165</ele>
        <time>2019-07-29T15:16:36Z</time>
      </trkpt>
      <trkpt lat="44.24644" lon="3.48317">
        <ele>1171.221</ele>
        <time>2019-07-29T15:16:40Z</time>
      </trkpt>
      <trkpt lat="44.24639" lon="3.4832">
        <ele>1171.708</ele>
        <time>2019-07-29T15:16:44Z</time>
      </trkpt>
      <trkpt lat="44.24634" lon="3.48323">
        <ele>1172.862</ele>
        <time>2019-07-29T15:16:48Z</time>
      </trkpt>
      <trkpt lat="44.2463" lon="3.48326">
        <ele>1173.578</ele>
        <time>2019-07-29T15:16:52Z</time>
      </trkpt>
      <trkpt lat="44.24625" lon="3.4833">
        <ele>1173.553</ele>
        <time>2019-07-29T15:17:02Z</time>
      </trkpt>
      <trkpt lat="44.2462" lon="3.48333">
        <ele>1173.597</ele>
        <time>2019-07-29T15:17:07Z</time>
      </trkpt>
      <trkpt lat="44.24616" lon="3.48336">
        <ele>1172.741</ele>
        <time>2019-07-29T15:17:10Z</time>
      </trkpt>
      <trkpt lat="44.24612" lon="3.48339">
        <ele>1172.212</ele>
        <time>2019-07-29T15:17:14Z</time>
      </trkpt>
      <trkpt lat="44.24607" lon="3.48342">
        <ele>1172.756</ele>
        <time>2019-07-29T15:17:18Z</time>
      </trkpt>
      <trkpt lat="44.24601" lon="3.48343">
        <ele>1173.875</ele>
        <time>2019-07-29T15:17:23Z</time>
      </trkpt>
      <trkpt lat="44.24596" lon="3.48341">
        <ele>1174.526</ele>
        <time>2019-07-29T15:17:27Z</time>
      </trkpt>
      <trkpt lat="44.24591" lon="3.48342">
        <ele>1174.947</ele>
        <time>2019-07-29T15:17:32Z</time>
      </trkpt>
      <trkpt lat="44.24586" lon="3.48339">
        <ele>1175.511</ele>
        <time>2019-07-29T15:17:37Z</time>
      </trkpt>
      <trkpt lat="44.2458" lon="3.48338">
        <ele>1176.308</ele>
        <time>2019-07-29T15:17:41Z</time>
      </trkpt>
      <trkpt lat="44.24574" lon="3.48337">
        <ele>1176.825</ele>
        <time>2019-07-29T15:17:47Z</time>
      </trkpt>
      <trkpt lat="44.24569" lon="3.48338">
        <ele>1176.781</ele>
        <time>2019-07-29T15:17:53Z</time>
      </trkpt>
      <trkpt lat="44.24565" lon="3.48339">
        <ele>1176.636</ele>
        <time>2019-07-29T15:17:57Z</time>
      </trkpt>
      <trkpt lat="44.2456" lon="3.4834">
        <ele>1176.23</ele>
        <time>2019-07-29T15:18:01Z</time>
      </trkpt>
      <trkpt lat="44.24555" lon="3.4834">
        <ele>1176.354</ele>
        <time>2019-07-29T15:18:06Z</time>
      </trkpt>
      <trkpt lat="44.2455" lon="3.48341">
        <ele>1177.665</ele>
        <time>2019-07-29T15:18:10Z</time>
      </trkpt>
      <trkpt lat="44.24546" lon="3.48344">
        <ele>1181.669</ele>
        <time>2019-07-29T15:18:55Z</time>
      </trkpt>
      <trkpt lat="44.24539" lon="3.48339">
        <ele>1182.088</ele>
        <time>2019-07-29T15:19:10Z</time>
      </trkpt>
      <trkpt lat="44.24534" lon="3.48337">
        <ele>1182.268</ele>
        <time>2019-07-29T15:19:14Z</time>
      </trkpt>
      <trkpt lat="44.24529" lon="3.48336">
        <ele>1182.342</ele>
        <time>2019-07-29T15:19:17Z</time>
      </trkpt>
      <trkpt lat="44.24524" lon="3.48334">
        <ele>1182.026</ele>
        <time>2019-07-29T15:19:20Z</time>
      </trkpt>
      <trkpt lat="44.24517" lon="3.48332">
        <ele>1182.208</ele>
        <time>2019-07-29T15:19:23Z</time>
      </trkpt>
      <trkpt lat="44.24513" lon="3.48329">
        <ele>1182.339</ele>
        <time>2019-07-29T15:19:29Z</time>
      </trkpt>
      <trkpt lat="44.24508" lon="3.48326">
        <ele>1183.225</ele>
        <time>2019-07-29T15:19:44Z</time>
      </trkpt>
      <trkpt lat="44.24504" lon="3.48323">
        <ele>1184.14</ele>
        <time>2019-07-29T15:19:48Z</time>
      </trkpt>
      <trkpt lat="44.24499" lon="3.48319">
        <ele>1184.734</ele>
        <time>2019-07-29T15:19:53Z</time>
      </trkpt>
      <trkpt lat="44.24493" lon="3.48316">
        <ele>1185.488</ele>
        <time>2019-07-29T15:19:57Z</time>
      </trkpt>
      <trkpt lat="44.24488" lon="3.48315">
        <ele>1186.269</ele>
        <time>2019-07-29T15:20:01Z</time>
      </trkpt>
      <trkpt lat="44.24483" lon="3.48311">
        <ele>1186.763</ele>
        <time>2019-07-29T15:20:05Z</time>
      </trkpt>
      <trkpt lat="44.24478" lon="3.4831">
        <ele>1186.662</ele>
        <time>2019-07-29T15:20:09Z</time>
      </trkpt>
      <trkpt lat="44.24473" lon="3.48308">
        <ele>1186.534</ele>
        <time>2019-07-29T15:20:13Z</time>
      </trkpt>
      <trkpt lat="44.24467" lon="3.48307">
        <ele>1186.955</ele>
        <time>2019-07-29T15:20:19Z</time>
      </trkpt>
      <trkpt lat="44.24462" lon="3.48306">
        <ele>1186.71</ele>
        <time>2019-07-29T15:20:23Z</time>
      </trkpt>
      <trkpt lat="44.24458" lon="3.48304">
        <ele>1186.608</ele>
        <time>2019-07-29T15:20:26Z</time>
      </trkpt>
      <trkpt lat="44.24452" lon="3.48303">
        <ele>1186.186</ele>
        <time>2019-07-29T15:20:30Z</time>
      </trkpt>
      <trkpt lat="44.24448" lon="3.48301">
        <ele>1185.812</ele>
        <time>2019-07-29T15:20:33Z</time>
      </trkpt>
      <trkpt lat="44.24443" lon="3.48299">
        <ele>1186.497</ele>
        <time>2019-07-29T15:20:37Z</time>
      </trkpt>
      <trkpt lat="44.24438" lon="3.48297">
        <ele>1186.811</ele>
        <time>2019-07-29T15:20:41Z</time>
      </trkpt>
      <trkpt lat="44.24433" lon="3.48296">
        <ele>1187.035</ele>
        <time>2019-07-29T15:20:45Z</time>
      </trkpt>
      <trkpt lat="44.24427" lon="3.48295">
        <ele>1187.926</ele>
        <time>2019-07-29T15:20:49Z</time>
      </trkpt>
      <trkpt lat="44.24423" lon="3.48294">
        <ele>1187.75</ele>
        <time>2019-07-29T15:20:53Z</time>
      </trkpt>
      <trkpt lat="44.24418" lon="3.48295">
        <ele>1186.839</ele>
        <time>2019-07-29T15:20:57Z</time>
      </trkpt>
      <trkpt lat="44.24412" lon="3.48294">
        <ele>1185.413</ele>
        <time>2019-07-29T15:21:01Z</time>
      </trkpt>
      <trkpt lat="44.24407" lon="3.48295">
        <ele>1184.643</ele>
        <time>2019-07-29T15:21:05Z</time>
      </trkpt>
      <trkpt lat="44.24403" lon="3.48291">
        <ele>1183.707</ele>
        <time>2019-07-29T15:21:17Z</time>
      </trkpt>
      <trkpt lat="44.24398" lon="3.48292">
        <ele>1182.808</ele>
        <time>2019-07-29T15:21:22Z</time>
      </trkpt>
      <trkpt lat="44.24393" lon="3.48293">
        <ele>1182.674</ele>
        <time>2019-07-29T15:21:27Z</time>
      </trkpt>
      <trkpt lat="44.24388" lon="3.48294">
        <ele>1181.75</ele>
        <time>2019-07-29T15:21:32Z</time>
      </trkpt>
      <trkpt lat="44.24383" lon="3.48296">
        <ele>1182.015</ele>
        <time>2019-07-29T15:21:36Z</time>
      </trkpt>
      <trkpt lat="44.24378" lon="3.48298">
        <ele>1182.229</ele>
        <time>2019-07-29T15:21:40Z</time>
      </trkpt>
      <trkpt lat="44.24374" lon="3.483">
        <ele>1182.323</ele>
        <time>2019-07-29T15:21:44Z</time>
      </trkpt>
      <trkpt lat="44.24369" lon="3.483">
        <ele>1182.454</ele>
        <time>2019-07-29T15:21:48Z</time>
      </trkpt>
      <trkpt lat="44.24365" lon="3.48301">
        <ele>1182.488</ele>
        <time>2019-07-29T15:21:52Z</time>
      </trkpt>
      <trkpt lat="44.24359" lon="3.483">
        <ele>1180.857</ele>
        <time>2019-07-29T15:21:58Z</time>
      </trkpt>
      <trkpt lat="44.24355" lon="3.48301">
        <ele>1180.359</ele>
        <time>2019-07-29T15:22:02Z</time>
      </trkpt>
      <trkpt lat="44.2435" lon="3.48298">
        <ele>1179.603</ele>
        <time>2019-07-29T15:22:06Z</time>
      </trkpt>
      <trkpt lat="44.24346" lon="3.48292">
        <ele>1180.023</ele>
        <time>2019-07-29T15:22:09Z</time>
      </trkpt>
      <trkpt lat="44.24341" lon="3.48291">
        <ele>1180.208</ele>
        <time>2019-07-29T15:22:13Z</time>
      </trkpt>
      <trkpt lat="44.24337" lon="3.48289">
        <ele>1179.978</ele>
        <time>2019-07-29T15:22:18Z</time>
      </trkpt>
      <trkpt lat="44.24332" lon="3.48288">
        <ele>1178.914</ele>
        <time>2019-07-29T15:22:22Z</time>
      </trkpt>
      <trkpt lat="44.24328" lon="3.48286">
        <ele>1178.779</ele>
        <time>2019-07-29T15:22:25Z</time>
      </trkpt>
      <trkpt lat="44.24323" lon="3.48284">
        <ele>1179.423</ele>
        <time>2019-07-29T15:22:29Z</time>
      </trkpt>
      <trkpt lat="44.24318" lon="3.48282">
        <ele>1180.227</ele>
        <time>2019-07-29T15:22:33Z</time>
      </trkpt>
      <trkpt lat="44.24313" lon="3.48281">
        <ele>1180.778</ele>
        <time>2019-07-29T15:22:39Z</time>
      </trkpt>
      <trkpt lat="44.24309" lon="3.48278">
        <ele>1179.842</ele>
        <time>2019-07-29T15:22:43Z</time>
      </trkpt>
      <trkpt lat="44.24305" lon="3.48275">
        <ele>1178.551</ele>
        <time>2019-07-29T15:22:47Z</time>
      </trkpt>
      <trkpt lat="44.243" lon="3.48273">
        <ele>1178.119</ele>
        <time>2019-07-29T15:22:51Z</time>
      </trkpt>
      <trkpt lat="44.24295" lon="3.48269">
        <ele>1178.309</ele>
        <time>2019-07-29T15:22:55Z</time>
      </trkpt>
      <trkpt lat="44.24288" lon="3.48268">
        <ele>1178.419</ele>
        <time>2019-07-29T15:23:05Z</time>
      </trkpt>
      <trkpt lat="44.24283" lon="3.48265">
        <ele>1178.908</ele>
        <time>2019-07-29T15:23:09Z</time>
      </trkpt>
      <trkpt lat="44.24278" lon="3.4826">
        <ele>1179.264</ele>
        <time>2019-07-29T15:23:13Z</time>
      </trkpt>
      <trkpt lat="44.24274" lon="3.48256">
        <ele>1179.07</ele>
        <time>2019-07-29T15:23:16Z</time>
      </trkpt>
      <trkpt lat="44.24269" lon="3.48252">
        <ele>1178.925</ele>
        <time>2019-07-29T15:23:21Z</time>
      </trkpt>
      <trkpt lat="44.24264" lon="3.4825">
        <ele>1178.469</ele>
        <time>2019-07-29T15:23:25Z</time>
      </trkpt>
      <trkpt lat="44.24259" lon="3.48247">
        <ele>1178.153</ele>
        <time>2019-07-29T15:23:29Z</time>
      </trkpt>
      <trkpt lat="44.24254" lon="3.48245">
        <ele>1177.574</ele>
        <time>2019-07-29T15:23:33Z</time>
      </trkpt>
      <trkpt lat="44.2425" lon="3.48243">
        <ele>1177.278</ele>
        <time>2019-07-29T15:23:37Z</time>
      </trkpt>
      <trkpt lat="44.24245" lon="3.48244">
        <ele>1176.697</ele>
        <time>2019-07-29T15:23:47Z</time>
      </trkpt>
      <trkpt lat="44.2424" lon="3.48244">
        <ele>1176.221</ele>
        <time>2019-07-29T15:23:52Z</time>
      </trkpt>
      <trkpt lat="44.24235" lon="3.48244">
        <ele>1175.241</ele>
        <time>2019-07-29T15:23:57Z</time>
      </trkpt>
      <trkpt lat="44.2423" lon="3.48247">
        <ele>1174.205</ele>
        <time>2019-07-29T15:24:02Z</time>
      </trkpt>
      <trkpt lat="44.24226" lon="3.48249">
        <ele>1173.608</ele>
        <time>2019-07-29T15:24:06Z</time>
      </trkpt>
      <trkpt lat="44.24221" lon="3.48251">
        <ele>1173.235</ele>
        <time>2019-07-29T15:24:15Z</time>
      </trkpt>
      <trkpt lat="44.24216" lon="3.48252">
        <ele>1172.611</ele>
        <time>2019-07-29T15:24:21Z</time>
      </trkpt>
      <trkpt lat="44.24211" lon="3.48252">
        <ele>1171.896</ele>
        <time>2019-07-29T15:24:25Z</time>
      </trkpt>
      <trkpt lat="44.24207" lon="3.48252">
        <ele>1171.34</ele>
        <time>2019-07-29T15:24:29Z</time>
      </trkpt>
      <trkpt lat="44.24201" lon="3.48254">
        <ele>1169.894</ele>
        <time>2019-07-29T15:24:34Z</time>
      </trkpt>
      <trkpt lat="44.24196" lon="3.48256">
        <ele>1170.145</ele>
        <time>2019-07-29T15:24:38Z</time>
      </trkpt>
      <trkpt lat="44.24193" lon="3.48262">
        <ele>1169.529</ele>
        <time>2019-07-29T15:24:42Z</time>
      </trkpt>
      <trkpt lat="44.2419" lon="3.48268">
        <ele>1169.128</ele>
        <time>2019-07-29T15:24:46Z</time>
      </trkpt>
      <trkpt lat="44.24189" lon="3.48276">
        <ele>1168.974</ele>
        <time>2019-07-29T15:24:50Z</time>
      </trkpt>
      <trkpt lat="44.24191" lon="3.48282">
        <ele>1168.856</ele>
        <time>2019-07-29T15:24:55Z</time>
      </trkpt>
      <trkpt lat="44.24192" lon="3.4829">
        <ele>1169.121</ele>
        <time>2019-07-29T15:25:00Z</time>
      </trkpt>
      <trkpt lat="44.24193" lon="3.48297">
        <ele>1170.108</ele>
        <time>2019-07-29T15:25:04Z</time>
      </trkpt>
      <trkpt lat="44.24195" lon="3.48303">
        <ele>1170.79</ele>
        <time>2019-07-29T15:25:09Z</time>
      </trkpt>
      <trkpt lat="44.24196" lon="3.48309">
        <ele>1170.726</ele>
        <time>2019-07-29T15:25:13Z</time>
      </trkpt>
      <trkpt lat="44.24197" lon="3.48316">
        <ele>1170.341</ele>
        <time>2019-07-29T15:25:17Z</time>
      </trkpt>
      <trkpt lat="44.24197" lon="3.48323">
        <ele>1170.055</ele>
        <time>2019-07-29T15:25:21Z</time>
      </trkpt>
      <trkpt lat="44.24195" lon="3.4833">
        <ele>1170.269</ele>
        <time>2019-07-29T15:25:26Z</time>
      </trkpt>
      <trkpt lat="44.24193" lon="3.48337">
        <ele>1169.54</ele>
        <time>2019-07-29T15:25:32Z</time>
      </trkpt>
      <trkpt lat="44.2419" lon="3.48343">
        <ele>1169.154</ele>
        <time>2019-07-29T15:25:37Z</time>
      </trkpt>
      <trkpt lat="44.24187" lon="3.48349">
        <ele>1169.333</ele>
        <time>2019-07-29T15:25:41Z</time>
      </trkpt>
      <trkpt lat="44.24183" lon="3.48352">
        <ele>1169.891</ele>
        <time>2019-07-29T15:26:31Z</time>
      </trkpt>
      <trkpt lat="44.2418" lon="3.48357">
        <ele>1169.781</ele>
        <time>2019-07-29T15:26:38Z</time>
      </trkpt>
      <trkpt lat="44.24176" lon="3.48363">
        <ele>1169.219</ele>
        <time>2019-07-29T15:26:54Z</time>
      </trkpt>
      <trkpt lat="44.24174" lon="3.4837">
        <ele>1168.508</ele>
        <time>2019-07-29T15:27:01Z</time>
      </trkpt>
      <trkpt lat="44.24173" lon="3.48378">
        <ele>1168.142</ele>
        <time>2019-07-29T15:27:06Z</time>
      </trkpt>
      <trkpt lat="44.24171" lon="3.48384">
        <ele>1167.518</ele>
        <time>2019-07-29T15:27:11Z</time>
      </trkpt>
      <trkpt lat="44.2417" lon="3.4839">
        <ele>1166.783</ele>
        <time>2019-07-29T15:27:15Z</time>
      </trkpt>
      <trkpt lat="44.24169" lon="3.48398">
        <ele>1165.877</ele>
        <time>2019-07-29T15:27:19Z</time>
      </trkpt>
      <trkpt lat="44.24167" lon="3.48404">
        <ele>1164.921</ele>
        <time>2019-07-29T15:27:23Z</time>
      </trkpt>
      <trkpt lat="44.24165" lon="3.4841">
        <ele>1164.772</ele>
        <time>2019-07-29T15:27:27Z</time>
      </trkpt>
      <trkpt lat="44.24163" lon="3.48416">
        <ele>1164.666</ele>
        <time>2019-07-29T15:27:31Z</time>
      </trkpt>
      <trkpt lat="44.24161" lon="3.48423">
        <ele>1164.545</ele>
        <time>2019-07-29T15:27:35Z</time>
      </trkpt>
      <trkpt lat="44.24159" lon="3.4843">
        <ele>1162.919</ele>
        <time>2019-07-29T15:27:39Z</time>
      </trkpt>
      <trkpt lat="44.24159" lon="3.48437">
        <ele>1161.909</ele>
        <time>2019-07-29T15:27:43Z</time>
      </trkpt>
      <trkpt lat="44.24159" lon="3.48444">
        <ele>1161.719</ele>
        <time>2019-07-29T15:27:47Z</time>
      </trkpt>
      <trkpt lat="44.24157" lon="3.48452">
        <ele>1161.208</ele>
        <time>2019-07-29T15:27:51Z</time>
      </trkpt>
      <trkpt lat="44.24157" lon="3.48459">
        <ele>1160.944</ele>
        <time>2019-07-29T15:27:55Z</time>
      </trkpt>
      <trkpt lat="44.24156" lon="3.48466">
        <ele>1160.38</ele>
        <time>2019-07-29T15:27:59Z</time>
      </trkpt>
      <trkpt lat="44.24153" lon="3.48472">
        <ele>1160.375</ele>
        <time>2019-07-29T15:28:03Z</time>
      </trkpt>
      <trkpt lat="44.24151" lon="3.48479">
        <ele>1159.939</ele>
        <time>2019-07-29T15:28:08Z</time>
      </trkpt>
      <trkpt lat="44.24149" lon="3.48485">
        <ele>1160.123</ele>
        <time>2019-07-29T15:28:12Z</time>
      </trkpt>
      <trkpt lat="44.24149" lon="3.48492">
        <ele>1160.614</ele>
        <time>2019-07-29T15:28:16Z</time>
      </trkpt>
      <trkpt lat="44.24149" lon="3.48498">
        <ele>1161.338</ele>
        <time>2019-07-29T15:28:20Z</time>
      </trkpt>
      <trkpt lat="44.24146" lon="3.48504">
        <ele>1161.337</ele>
        <time>2019-07-29T15:28:24Z</time>
      </trkpt>
      <trkpt lat="44.24146" lon="3.4851">
        <ele>1162.193</ele>
        <time>2019-07-29T15:28:28Z</time>
      </trkpt>
      <trkpt lat="44.24146" lon="3.48517">
        <ele>1163.065</ele>
        <time>2019-07-29T15:28:32Z</time>
      </trkpt>
      <trkpt lat="44.24145" lon="3.48524">
        <ele>1163.521</ele>
        <time>2019-07-29T15:28:36Z</time>
      </trkpt>
      <trkpt lat="44.24146" lon="3.48532">
        <ele>1163.808</ele>
        <time>2019-07-29T15:28:40Z</time>
      </trkpt>
      <trkpt lat="44.24147" lon="3.48539">
        <ele>1164.472</ele>
        <time>2019-07-29T15:28:44Z</time>
      </trkpt>
      <trkpt lat="44.24148" lon="3.48547">
        <ele>1164.858</ele>
        <time>2019-07-29T15:28:48Z</time>
      </trkpt>
      <trkpt lat="44.24147" lon="3.48553">
        <ele>1164.613</ele>
        <time>2019-07-29T15:28:52Z</time>
      </trkpt>
      <trkpt lat="44.24146" lon="3.4856">
        <ele>1164.937</ele>
        <time>2019-07-29T15:28:57Z</time>
      </trkpt>
      <trkpt lat="44.24145" lon="3.48567">
        <ele>1165.191</ele>
        <time>2019-07-29T15:29:01Z</time>
      </trkpt>
      <trkpt lat="44.24144" lon="3.48573">
        <ele>1165.632</ele>
        <time>2019-07-29T15:29:05Z</time>
      </trkpt>
      <trkpt lat="44.24144" lon="3.4858">
        <ele>1165.926</ele>
        <time>2019-07-29T15:29:09Z</time>
      </trkpt>
      <trkpt lat="44.24143" lon="3.48588">
        <ele>1165.325</ele>
        <time>2019-07-29T15:29:14Z</time>
      </trkpt>
      <trkpt lat="44.24143" lon="3.48595">
        <ele>1164.986</ele>
        <time>2019-07-29T15:29:18Z</time>
      </trkpt>
      <trkpt lat="44.24143" lon="3.48604">
        <ele>1163.96</ele>
        <time>2019-07-29T15:29:22Z</time>
      </trkpt>
      <trkpt lat="44.24141" lon="3.4861">
        <ele>1164.126</ele>
        <time>2019-07-29T15:29:26Z</time>
      </trkpt>
      <trkpt lat="44.24139" lon="3.48616">
        <ele>1163.808</ele>
        <time>2019-07-29T15:29:30Z</time>
      </trkpt>
      <trkpt lat="44.24137" lon="3.48623">
        <ele>1162.881</ele>
        <time>2019-07-29T15:29:35Z</time>
      </trkpt>
      <trkpt lat="44.24137" lon="3.4863">
        <ele>1162.677</ele>
        <time>2019-07-29T15:29:40Z</time>
      </trkpt>
      <trkpt lat="44.24136" lon="3.48638">
        <ele>1162.172</ele>
        <time>2019-07-29T15:29:44Z</time>
      </trkpt>
      <trkpt lat="44.24135" lon="3.48644">
        <ele>1162.246</ele>
        <time>2019-07-29T15:29:48Z</time>
      </trkpt>
      <trkpt lat="44.24135" lon="3.48651">
        <ele>1161.54</ele>
        <time>2019-07-29T15:29:52Z</time>
      </trkpt>
      <trkpt lat="44.24134" lon="3.48658">
        <ele>1161.541</ele>
        <time>2019-07-29T15:29:56Z</time>
      </trkpt>
      <trkpt lat="44.24132" lon="3.48664">
        <ele>1160.775</ele>
        <time>2019-07-29T15:30:00Z</time>
      </trkpt>
      <trkpt lat="44.2413" lon="3.4867">
        <ele>1159.854</ele>
        <time>2019-07-29T15:30:04Z</time>
      </trkpt>
      <trkpt lat="44.24129" lon="3.48677">
        <ele>1159.318</ele>
        <time>2019-07-29T15:30:08Z</time>
      </trkpt>
      <trkpt lat="44.24128" lon="3.48684">
        <ele>1158.698</ele>
        <time>2019-07-29T15:30:12Z</time>
      </trkpt>
      <trkpt lat="44.24128" lon="3.4869">
        <ele>1158.217</ele>
        <time>2019-07-29T15:30:16Z</time>
      </trkpt>
      <trkpt lat="44.24127" lon="3.48696">
        <ele>1157.908</ele>
        <time>2019-07-29T15:30:20Z</time>
      </trkpt>
      <trkpt lat="44.24125" lon="3.48703">
        <ele>1158.144</ele>
        <time>2019-07-29T15:30:24Z</time>
      </trkpt>
      <trkpt lat="44.24124" lon="3.4871">
        <ele>1158.26</ele>
        <time>2019-07-29T15:30:28Z</time>
      </trkpt>
      <trkpt lat="44.24122" lon="3.48716">
        <ele>1158.315</ele>
        <time>2019-07-29T15:30:46Z</time>
      </trkpt>
      <trkpt lat="44.2412" lon="3.48723">
        <ele>1157.639</ele>
        <time>2019-07-29T15:30:51Z</time>
      </trkpt>
      <trkpt lat="44.24117" lon="3.48729">
        <ele>1157.213</ele>
        <time>2019-07-29T15:30:55Z</time>
      </trkpt>
      <trkpt lat="44.24115" lon="3.48735">
        <ele>1156.984</ele>
        <time>2019-07-29T15:30:59Z</time>
      </trkpt>
      <trkpt lat="44.24113" lon="3.48741">
        <ele>1156.368</ele>
        <time>2019-07-29T15:31:03Z</time>
      </trkpt>
      <trkpt lat="44.24114" lon="3.48749">
        <ele>1157.277</ele>
        <time>2019-07-29T15:31:08Z</time>
      </trkpt>
      <trkpt lat="44.24114" lon="3.48756">
        <ele>1158.146</ele>
        <time>2019-07-29T15:31:12Z</time>
      </trkpt>
      <trkpt lat="44.2411" lon="3.48761">
        <ele>1158.788</ele>
        <time>2019-07-29T15:31:16Z</time>
      </trkpt>
      <trkpt lat="44.24109" lon="3.48767">
        <ele>1159.816</ele>
        <time>2019-07-29T15:31:20Z</time>
      </trkpt>
      <trkpt lat="44.2411" lon="3.48774">
        <ele>1160.908</ele>
        <time>2019-07-29T15:31:24Z</time>
      </trkpt>
      <trkpt lat="44.24111" lon="3.48781">
        <ele>1161.197</ele>
        <time>2019-07-29T15:31:28Z</time>
      </trkpt>
      <trkpt lat="44.24111" lon="3.48787">
        <ele>1162.013</ele>
        <time>2019-07-29T15:31:33Z</time>
      </trkpt>
      <trkpt lat="44.24112" lon="3.48794">
        <ele>1163.068</ele>
        <time>2019-07-29T15:31:38Z</time>
      </trkpt>
      <trkpt lat="44.24112" lon="3.488">
        <ele>1163.692</ele>
        <time>2019-07-29T15:31:43Z</time>
      </trkpt>
      <trkpt lat="44.24107" lon="3.48804">
        <ele>1163.996</ele>
        <time>2019-07-29T15:31:58Z</time>
      </trkpt>
      <trkpt lat="44.24102" lon="3.48806">
        <ele>1164.577</ele>
        <time>2019-07-29T15:32:02Z</time>
      </trkpt>
      <trkpt lat="44.24097" lon="3.48807">
        <ele>1164.141</ele>
        <time>2019-07-29T15:32:06Z</time>
      </trkpt>
      <trkpt lat="44.24092" lon="3.48811">
        <ele>1164.25</ele>
        <time>2019-07-29T15:32:16Z</time>
      </trkpt>
      <trkpt lat="44.24088" lon="3.48813">
        <ele>1163.956</ele>
        <time>2019-07-29T15:32:19Z</time>
      </trkpt>
      <trkpt lat="44.24083" lon="3.48815">
        <ele>1164.159</ele>
        <time>2019-07-29T15:32:22Z</time>
      </trkpt>
      <trkpt lat="44.24077" lon="3.48817">
        <ele>1164.614</ele>
        <time>2019-07-29T15:32:26Z</time>
      </trkpt>
      <trkpt lat="44.24072" lon="3.48819">
        <ele>1165.308</ele>
        <time>2019-07-29T15:32:29Z</time>
      </trkpt>
      <trkpt lat="44.24066" lon="3.48822">
        <ele>1165.388</ele>
        <time>2019-07-29T15:32:33Z</time>
      </trkpt>
      <trkpt lat="44.24061" lon="3.48824">
        <ele>1165.364</ele>
        <time>2019-07-29T15:32:37Z</time>
      </trkpt>
      <trkpt lat="44.24055" lon="3.48825">
        <ele>1166.179</ele>
        <time>2019-07-29T15:32:41Z</time>
      </trkpt>
      <trkpt lat="44.24049" lon="3.48827">
        <ele>1166.623</ele>
        <time>2019-07-29T15:32:45Z</time>
      </trkpt>
      <trkpt lat="44.24042" lon="3.4883">
        <ele>1167.357</ele>
        <time>2019-07-29T15:32:51Z</time>
      </trkpt>
      <trkpt lat="44.24037" lon="3.48831">
        <ele>1167.398</ele>
        <time>2019-07-29T15:32:55Z</time>
      </trkpt>
      <trkpt lat="44.24032" lon="3.48835">
        <ele>1166.562</ele>
        <time>2019-07-29T15:32:59Z</time>
      </trkpt>
      <trkpt lat="44.24028" lon="3.48836">
        <ele>1166.011</ele>
        <time>2019-07-29T15:33:02Z</time>
      </trkpt>
      <trkpt lat="44.24023" lon="3.48841">
        <ele>1165.322</ele>
        <time>2019-07-29T15:33:06Z</time>
      </trkpt>
      <trkpt lat="44.24018" lon="3.48843">
        <ele>1165.362</ele>
        <time>2019-07-29T15:33:10Z</time>
      </trkpt>
      <trkpt lat="44.24013" lon="3.48845">
        <ele>1165.308</ele>
        <time>2019-07-29T15:33:14Z</time>
      </trkpt>
      <trkpt lat="44.24007" lon="3.48848">
        <ele>1164.908</ele>
        <time>2019-07-29T15:33:18Z</time>
      </trkpt>
      <trkpt lat="44.23999" lon="3.4885">
        <ele>1165.565</ele>
        <time>2019-07-29T15:33:29Z</time>
      </trkpt>
      <trkpt lat="44.23993" lon="3.48852">
        <ele>1165.821</ele>
        <time>2019-07-29T15:33:33Z</time>
      </trkpt>
      <trkpt lat="44.2399" lon="3.48857">
        <ele>1163.246</ele>
        <time>2019-07-29T15:33:36Z</time>
      </trkpt>
      <trkpt lat="44.23985" lon="3.48858">
        <ele>1162.83</ele>
        <time>2019-07-29T15:33:39Z</time>
      </trkpt>
      <trkpt lat="44.2398" lon="3.4886">
        <ele>1163.094</ele>
        <time>2019-07-29T15:33:42Z</time>
      </trkpt>
      <trkpt lat="44.23975" lon="3.48861">
        <ele>1162.315</ele>
        <time>2019-07-29T15:33:48Z</time>
      </trkpt>
      <trkpt lat="44.23969" lon="3.48861">
        <ele>1162.789</ele>
        <time>2019-07-29T15:33:51Z</time>
      </trkpt>
      <trkpt lat="44.23962" lon="3.48861">
        <ele>1162.948</ele>
        <time>2019-07-29T15:33:54Z</time>
      </trkpt>
      <trkpt lat="44.23958" lon="3.48861">
        <ele>1162.633</ele>
        <time>2019-07-29T15:33:57Z</time>
      </trkpt>
      <trkpt lat="44.23952" lon="3.48861">
        <ele>1161.623</ele>
        <time>2019-07-29T15:34:01Z</time>
      </trkpt>
      <trkpt lat="44.23948" lon="3.48861">
        <ele>1161.015</ele>
        <time>2019-07-29T15:34:05Z</time>
      </trkpt>
      <trkpt lat="44.23943" lon="3.48861">
        <ele>1160.708</ele>
        <time>2019-07-29T15:34:08Z</time>
      </trkpt>
      <trkpt lat="44.23938" lon="3.48859">
        <ele>1161.396</ele>
        <time>2019-07-29T15:34:11Z</time>
      </trkpt>
      <trkpt lat="44.23933" lon="3.48858">
        <ele>1162.592</ele>
        <time>2019-07-29T15:34:14Z</time>
      </trkpt>
      <trkpt lat="44.23928" lon="3.48856">
        <ele>1163.647</ele>
        <time>2019-07-29T15:34:17Z</time>
      </trkpt>
      <trkpt lat="44.23924" lon="3.48854">
        <ele>1164.331</ele>
        <time>2019-07-29T15:34:20Z</time>
      </trkpt>
      <trkpt lat="44.23919" lon="3.48852">
        <ele>1165.175</ele>
        <time>2019-07-29T15:34:23Z</time>
      </trkpt>
      <trkpt lat="44.23914" lon="3.48851">
        <ele>1166.036</ele>
        <time>2019-07-29T15:34:27Z</time>
      </trkpt>
      <trkpt lat="44.23909" lon="3.4885">
        <ele>1165.35</ele>
        <time>2019-07-29T15:34:31Z</time>
      </trkpt>
      <trkpt lat="44.23903" lon="3.4885">
        <ele>1165.359</ele>
        <time>2019-07-29T15:34:35Z</time>
      </trkpt>
      <trkpt lat="44.23898" lon="3.48848">
        <ele>1165.785</ele>
        <time>2019-07-29T15:34:39Z</time>
      </trkpt>
      <trkpt lat="44.23893" lon="3.48847">
        <ele>1165.989</ele>
        <time>2019-07-29T15:34:43Z</time>
      </trkpt>
      <trkpt lat="44.23887" lon="3.48847">
        <ele>1164.817</ele>
        <time>2019-07-29T15:34:47Z</time>
      </trkpt>
      <trkpt lat="44.23882" lon="3.48848">
        <ele>1163.808</ele>
        <time>2019-07-29T15:34:52Z</time>
      </trkpt>
      <trkpt lat="44.23877" lon="3.48846">
        <ele>1162.821</ele>
        <time>2019-07-29T15:34:56Z</time>
      </trkpt>
      <trkpt lat="44.23872" lon="3.48845">
        <ele>1162.627</ele>
        <time>2019-07-29T15:35:00Z</time>
      </trkpt>
      <trkpt lat="44.23868" lon="3.48843">
        <ele>1163.322</ele>
        <time>2019-07-29T15:35:04Z</time>
      </trkpt>
      <trkpt lat="44.23863" lon="3.48839">
        <ele>1164.596</ele>
        <time>2019-07-29T15:35:08Z</time>
      </trkpt>
      <trkpt lat="44.23858" lon="3.48837">
        <ele>1164.81</ele>
        <time>2019-07-29T15:35:13Z</time>
      </trkpt>
      <trkpt lat="44.23854" lon="3.48834">
        <ele>1165.441</ele>
        <time>2019-07-29T15:35:16Z</time>
      </trkpt>
      <trkpt lat="44.23849" lon="3.48829">
        <ele>1165.885</ele>
        <time>2019-07-29T15:35:20Z</time>
      </trkpt>
      <trkpt lat="44.23843" lon="3.48827">
        <ele>1165.244</ele>
        <time>2019-07-29T15:35:24Z</time>
      </trkpt>
      <trkpt lat="44.23839" lon="3.48826">
        <ele>1164.487</ele>
        <time>2019-07-29T15:35:27Z</time>
      </trkpt>
      <trkpt lat="44.23833" lon="3.48821">
        <ele>1164.742</ele>
        <time>2019-07-29T15:35:35Z</time>
      </trkpt>
      <trkpt lat="44.2383" lon="3.48817">
        <ele>1165.326</ele>
        <time>2019-07-29T15:35:38Z</time>
      </trkpt>
      <trkpt lat="44.23826" lon="3.48812">
        <ele>1166.108</ele>
        <time>2019-07-29T15:35:41Z</time>
      </trkpt>
      <trkpt lat="44.23822" lon="3.48806">
        <ele>1167.491</ele>
        <time>2019-07-29T15:35:44Z</time>
      </trkpt>
      <trkpt lat="44.23817" lon="3.48801">
        <ele>1167.837</ele>
        <time>2019-07-29T15:35:47Z</time>
      </trkpt>
      <trkpt lat="44.23813" lon="3.48797">
        <ele>1167.672</ele>
        <time>2019-07-29T15:35:50Z</time>
      </trkpt>
      <trkpt lat="44.2381" lon="3.48793">
        <ele>1166.796</ele>
        <time>2019-07-29T15:35:54Z</time>
      </trkpt>
      <trkpt lat="44.23806" lon="3.48789">
        <ele>1166.67</ele>
        <time>2019-07-29T15:35:58Z</time>
      </trkpt>
      <trkpt lat="44.23803" lon="3.48784">
        <ele>1165.771</ele>
        <time>2019-07-29T15:36:02Z</time>
      </trkpt>
      <trkpt lat="44.23799" lon="3.48779">
        <ele>1165.625</ele>
        <time>2019-07-29T15:36:06Z</time>
      </trkpt>
      <trkpt lat="44.23795" lon="3.48774">
        <ele>1165.914</ele>
        <time>2019-07-29T15:36:10Z</time>
      </trkpt>
      <trkpt lat="44.23792" lon="3.48769">
        <ele>1166.579</ele>
        <time>2019-07-29T15:36:18Z</time>
      </trkpt>
      <trkpt lat="44.23788" lon="3.48764">
        <ele>1166.905</ele>
        <time>2019-07-29T15:36:21Z</time>
      </trkpt>
      <trkpt lat="44.23783" lon="3.4876">
        <ele>1166.725</ele>
        <time>2019-07-29T15:36:24Z</time>
      </trkpt>
      <trkpt lat="44.2378" lon="3.48755">
        <ele>1166.608</ele>
        <time>2019-07-29T15:36:27Z</time>
      </trkpt>
      <trkpt lat="44.23776" lon="3.4875">
        <ele>1167.37</ele>
        <time>2019-07-29T15:36:30Z</time>
      </trkpt>
      <trkpt lat="44.23773" lon="3.48745">
        <ele>1167.716</ele>
        <time>2019-07-29T15:36:32Z</time>
      </trkpt>
      <trkpt lat="44.23769" lon="3.48741">
        <ele>1167.251</ele>
        <time>2019-07-29T15:36:35Z</time>
      </trkpt>
      <trkpt lat="44.23764" lon="3.48736">
        <ele>1166.915</ele>
        <time>2019-07-29T15:36:39Z</time>
      </trkpt>
      <trkpt lat="44.23759" lon="3.48731">
        <ele>1167.199</ele>
        <time>2019-07-29T15:36:44Z</time>
      </trkpt>
      <trkpt lat="44.23755" lon="3.48725">
        <ele>1166.88</ele>
        <time>2019-07-29T15:36:48Z</time>
      </trkpt>
      <trkpt lat="44.23752" lon="3.4872">
        <ele>1165.834</ele>
        <time>2019-07-29T15:36:51Z</time>
      </trkpt>
      <trkpt lat="44.23747" lon="3.48716">
        <ele>1164.893</ele>
        <time>2019-07-29T15:36:55Z</time>
      </trkpt>
      <trkpt lat="44.23744" lon="3.48711">
        <ele>1164.661</ele>
        <time>2019-07-29T15:36:59Z</time>
      </trkpt>
      <trkpt lat="44.2374" lon="3.48706">
        <ele>1164.521</ele>
        <time>2019-07-29T15:37:02Z</time>
      </trkpt>
      <trkpt lat="44.23736" lon="3.48701">
        <ele>1164.413</ele>
        <time>2019-07-29T15:37:06Z</time>
      </trkpt>
      <trkpt lat="44.23732" lon="3.48697">
        <ele>1164.808</ele>
        <time>2019-07-29T15:37:10Z</time>
      </trkpt>
      <trkpt lat="44.23728" lon="3.48693">
        <ele>1165.089</ele>
        <time>2019-07-29T15:37:13Z</time>
      </trkpt>
      <trkpt lat="44.23724" lon="3.48689">
        <ele>1165.185</ele>
        <time>2019-07-29T15:37:17Z</time>
      </trkpt>
      <trkpt lat="44.2372" lon="3.48686">
        <ele>1165.28</ele>
        <time>2019-07-29T15:37:20Z</time>
      </trkpt>
      <trkpt lat="44.23716" lon="3.48681">
        <ele>1165.224</ele>
        <time>2019-07-29T15:37:24Z</time>
      </trkpt>
      <trkpt lat="44.23713" lon="3.48676">
        <ele>1165.248</ele>
        <time>2019-07-29T15:37:28Z</time>
      </trkpt>
      <trkpt lat="44.23708" lon="3.48672">
        <ele>1165.249</ele>
        <time>2019-07-29T15:37:32Z</time>
      </trkpt>
      <trkpt lat="44.23704" lon="3.48667">
        <ele>1165.253</ele>
        <time>2019-07-29T15:37:36Z</time>
      </trkpt>
      <trkpt lat="44.237" lon="3.48663">
        <ele>1165.282</ele>
        <time>2019-07-29T15:37:40Z</time>
      </trkpt>
      <trkpt lat="44.23695" lon="3.48659">
        <ele>1166.084</ele>
        <time>2019-07-29T15:37:44Z</time>
      </trkpt>
      <trkpt lat="44.2369" lon="3.48655">
        <ele>1166.907</ele>
        <time>2019-07-29T15:37:48Z</time>
      </trkpt>
      <trkpt lat="44.23685" lon="3.48651">
        <ele>1168.217</ele>
        <time>2019-07-29T15:37:52Z</time>
      </trkpt>
      <trkpt lat="44.23681" lon="3.48647">
        <ele>1168.608</ele>
        <time>2019-07-29T15:37:56Z</time>
      </trkpt>
      <trkpt lat="44.23676" lon="3.48644">
        <ele>1169.231</ele>
        <time>2019-07-29T15:38:00Z</time>
      </trkpt>
      <trkpt lat="44.23673" lon="3.48639">
        <ele>1168.827</ele>
        <time>2019-07-29T15:38:04Z</time>
      </trkpt>
      <trkpt lat="44.23668" lon="3.48636">
        <ele>1168.112</ele>
        <time>2019-07-29T15:38:08Z</time>
      </trkpt>
      <trkpt lat="44.23664" lon="3.48632">
        <ele>1168.186</ele>
        <time>2019-07-29T15:38:12Z</time>
      </trkpt>
      <trkpt lat="44.2366" lon="3.48629">
        <ele>1168.97</ele>
        <time>2019-07-29T15:38:15Z</time>
      </trkpt>
      <trkpt lat="44.23655" lon="3.48625">
        <ele>1169.431</ele>
        <time>2019-07-29T15:38:19Z</time>
      </trkpt>
      <trkpt lat="44.2365" lon="3.48622">
        <ele>1170.165</ele>
        <time>2019-07-29T15:38:23Z</time>
      </trkpt>
      <trkpt lat="44.23645" lon="3.48618">
        <ele>1170.914</ele>
        <time>2019-07-29T15:38:27Z</time>
      </trkpt>
      <trkpt lat="44.23641" lon="3.48615">
        <ele>1170.699</ele>
        <time>2019-07-29T15:38:32Z</time>
      </trkpt>
      <trkpt lat="44.23638" lon="3.48612">
        <ele>1170.007</ele>
        <time>2019-07-29T15:38:35Z</time>
      </trkpt>
      <trkpt lat="44.23632" lon="3.48609">
        <ele>1169.627</ele>
        <time>2019-07-29T15:38:39Z</time>
      </trkpt>
      <trkpt lat="44.23628" lon="3.48606">
        <ele>1169.808</ele>
        <time>2019-07-29T15:38:43Z</time>
      </trkpt>
      <trkpt lat="44.23624" lon="3.48602">
        <ele>1169.552</ele>
        <time>2019-07-29T15:38:47Z</time>
      </trkpt>
      <trkpt lat="44.2362" lon="3.48598">
        <ele>1169.738</ele>
        <time>2019-07-29T15:38:51Z</time>
      </trkpt>
      <trkpt lat="44.23616" lon="3.48595">
        <ele>1170.223</ele>
        <time>2019-07-29T15:38:54Z</time>
      </trkpt>
      <trkpt lat="44.23611" lon="3.48591">
        <ele>1171.337</ele>
        <time>2019-07-29T15:38:57Z</time>
      </trkpt>
      <trkpt lat="44.23607" lon="3.48588">
        <ele>1172.411</ele>
        <time>2019-07-29T15:39:00Z</time>
      </trkpt>
      <trkpt lat="44.23602" lon="3.48587">
        <ele>1172.272</ele>
        <time>2019-07-29T15:39:05Z</time>
      </trkpt>
      <trkpt lat="44.23598" lon="3.48584">
        <ele>1171.716</ele>
        <time>2019-07-29T15:39:09Z</time>
      </trkpt>
      <trkpt lat="44.23594" lon="3.4858">
        <ele>1171.875</ele>
        <time>2019-07-29T15:39:13Z</time>
      </trkpt>
      <trkpt lat="44.23589" lon="3.48577">
        <ele>1172.747</ele>
        <time>2019-07-29T15:39:17Z</time>
      </trkpt>
      <trkpt lat="44.23585" lon="3.48572">
        <ele>1174.829</ele>
        <time>2019-07-29T15:39:21Z</time>
      </trkpt>
      <trkpt lat="44.23581" lon="3.4857">
        <ele>1176.121</ele>
        <time>2019-07-29T15:39:25Z</time>
      </trkpt>
      <trkpt lat="44.23576" lon="3.48567">
        <ele>1176.908</ele>
        <time>2019-07-29T15:39:29Z</time>
      </trkpt>
      <trkpt lat="44.23572" lon="3.48563">
        <ele>1177.437</ele>
        <time>2019-07-29T15:39:33Z</time>
      </trkpt>
      <trkpt lat="44.23568" lon="3.48559">
        <ele>1178.133</ele>
        <time>2019-07-29T15:39:37Z</time>
      </trkpt>
      <trkpt lat="44.23564" lon="3.48555">
        <ele>1178.568</ele>
        <time>2019-07-29T15:39:41Z</time>
      </trkpt>
      <trkpt lat="44.2356" lon="3.48552">
        <ele>1178.722</ele>
        <time>2019-07-29T15:39:45Z</time>
      </trkpt>
      <trkpt lat="44.23555" lon="3.48549">
        <ele>1178.466</ele>
        <time>2019-07-29T15:39:50Z</time>
      </trkpt>
      <trkpt lat="44.23551" lon="3.48545">
        <ele>1177.847</ele>
        <time>2019-07-29T15:39:54Z</time>
      </trkpt>
      <trkpt lat="44.23548" lon="3.48541">
        <ele>1177.141</ele>
        <time>2019-07-29T15:39:57Z</time>
      </trkpt>
      <trkpt lat="44.23545" lon="3.48536">
        <ele>1177.19</ele>
        <time>2019-07-29T15:40:01Z</time>
      </trkpt>
      <trkpt lat="44.23541" lon="3.48531">
        <ele>1177.921</ele>
        <time>2019-07-29T15:40:05Z</time>
      </trkpt>
      <trkpt lat="44.23537" lon="3.48525">
        <ele>1178.041</ele>
        <time>2019-07-29T15:40:10Z</time>
      </trkpt>
      <trkpt lat="44.23535" lon="3.4852">
        <ele>1178.805</ele>
        <time>2019-07-29T15:40:15Z</time>
      </trkpt>
      <trkpt lat="44.23535" lon="3.48514">
        <ele>1179.308</ele>
        <time>2019-07-29T15:40:20Z</time>
      </trkpt>
      <trkpt lat="44.23536" lon="3.48507">
        <ele>1182.085</ele>
        <time>2019-07-29T15:40:26Z</time>
      </trkpt>
      <trkpt lat="44.23538" lon="3.48501">
        <ele>1183.651</ele>
        <time>2019-07-29T15:40:31Z</time>
      </trkpt>
      <trkpt lat="44.23543" lon="3.48496">
        <ele>1185.456</ele>
        <time>2019-07-29T15:40:36Z</time>
      </trkpt>
      <trkpt lat="44.23547" lon="3.48492">
        <ele>1186.51</ele>
        <time>2019-07-29T15:40:40Z</time>
      </trkpt>
      <trkpt lat="44.2355" lon="3.48486">
        <ele>1187.134</ele>
        <time>2019-07-29T15:40:45Z</time>
      </trkpt>
      <trkpt lat="44.23553" lon="3.48481">
        <ele>1187.975</ele>
        <time>2019-07-29T15:40:49Z</time>
      </trkpt>
      <trkpt lat="44.23556" lon="3.48475">
        <ele>1187.649</ele>
        <time>2019-07-29T15:40:53Z</time>
      </trkpt>
      <trkpt lat="44.23558" lon="3.48467">
        <ele>1187.458</ele>
        <time>2019-07-29T15:40:57Z</time>
      </trkpt>
      <trkpt lat="44.23557" lon="3.4846">
        <ele>1186.146</ele>
        <time>2019-07-29T15:41:01Z</time>
      </trkpt>
      <trkpt lat="44.23554" lon="3.48453">
        <ele>1184.988</ele>
        <time>2019-07-29T15:41:05Z</time>
      </trkpt>
      <trkpt lat="44.23555" lon="3.48445">
        <ele>1184.216</ele>
        <time>2019-07-29T15:41:10Z</time>
      </trkpt>
      <trkpt lat="44.23554" lon="3.48438">
        <ele>1184.208</ele>
        <time>2019-07-29T15:41:14Z</time>
      </trkpt>
      <trkpt lat="44.2355" lon="3.48432">
        <ele>1184.297</ele>
        <time>2019-07-29T15:41:18Z</time>
      </trkpt>
      <trkpt lat="44.23547" lon="3.48427">
        <ele>1184.653</ele>
        <time>2019-07-29T15:41:21Z</time>
      </trkpt>
      <trkpt lat="44.23543" lon="3.48422">
        <ele>1184.838</ele>
        <time>2019-07-29T15:41:24Z</time>
      </trkpt>
      <trkpt lat="44.2354" lon="3.48416">
        <ele>1184.962</ele>
        <time>2019-07-29T15:41:28Z</time>
      </trkpt>
      <trkpt lat="44.23538" lon="3.4841">
        <ele>1184.656</ele>
        <time>2019-07-29T15:41:32Z</time>
      </trkpt>
      <trkpt lat="44.23534" lon="3.48404">
        <ele>1184.887</ele>
        <time>2019-07-29T15:41:37Z</time>
      </trkpt>
      <trkpt lat="44.23529" lon="3.48401">
        <ele>1184.171</ele>
        <time>2019-07-29T15:41:40Z</time>
      </trkpt>
      <trkpt lat="44.23526" lon="3.48395">
        <ele>1183.34</ele>
        <time>2019-07-29T15:41:44Z</time>
      </trkpt>
      <trkpt lat="44.23523" lon="3.48388">
        <ele>1183.283</ele>
        <time>2019-07-29T15:41:48Z</time>
      </trkpt>
      <trkpt lat="44.23522" lon="3.48382">
        <ele>1183.625</ele>
        <time>2019-07-29T15:41:52Z</time>
      </trkpt>
      <trkpt lat="44.23519" lon="3.48376">
        <ele>1184.217</ele>
        <time>2019-07-29T15:41:56Z</time>
      </trkpt>
      <trkpt lat="44.23514" lon="3.48371">
        <ele>1185.008</ele>
        <time>2019-07-29T15:41:59Z</time>
      </trkpt>
      <trkpt lat="44.23509" lon="3.48367">
        <ele>1185.521</ele>
        <time>2019-07-29T15:42:03Z</time>
      </trkpt>
      <trkpt lat="44.23504" lon="3.48364">
        <ele>1185.467</ele>
        <time>2019-07-29T15:42:07Z</time>
      </trkpt>
      <trkpt lat="44.23499" lon="3.48361">
        <ele>1185.362</ele>
        <time>2019-07-29T15:42:11Z</time>
      </trkpt>
      <trkpt lat="44.23493" lon="3.48359">
        <ele>1183.726</ele>
        <time>2019-07-29T15:42:27Z</time>
      </trkpt>
      <trkpt lat="44.23488" lon="3.4836">
        <ele>1182.71</ele>
        <time>2019-07-29T15:42:31Z</time>
      </trkpt>
      <trkpt lat="44.23483" lon="3.4836">
        <ele>1181.781</ele>
        <time>2019-07-29T15:42:35Z</time>
      </trkpt>
      <trkpt lat="44.23479" lon="3.4836">
        <ele>1181.125</ele>
        <time>2019-07-29T15:42:39Z</time>
      </trkpt>
      <trkpt lat="44.23474" lon="3.48361">
        <ele>1181.134</ele>
        <time>2019-07-29T15:42:43Z</time>
      </trkpt>
      <trkpt lat="44.23468" lon="3.4836">
        <ele>1181.576</ele>
        <time>2019-07-29T15:42:48Z</time>
      </trkpt>
      <trkpt lat="44.23463" lon="3.48361">
        <ele>1181.49</ele>
        <time>2019-07-29T15:42:53Z</time>
      </trkpt>
      <trkpt lat="44.23459" lon="3.4836">
        <ele>1181.719</ele>
        <time>2019-07-29T15:42:55Z</time>
      </trkpt>
      <trkpt lat="44.23454" lon="3.48363">
        <ele>1181.508</ele>
        <time>2019-07-29T15:42:59Z</time>
      </trkpt>
      <trkpt lat="44.23449" lon="3.48365">
        <ele>1182.28</ele>
        <time>2019-07-29T15:43:03Z</time>
      </trkpt>
      <trkpt lat="44.23443" lon="3.48368">
        <ele>1182.616</ele>
        <time>2019-07-29T15:43:06Z</time>
      </trkpt>
      <trkpt lat="44.23438" lon="3.48372">
        <ele>1182.871</ele>
        <time>2019-07-29T15:43:10Z</time>
      </trkpt>
      <trkpt lat="44.23433" lon="3.48374">
        <ele>1182.525</ele>
        <time>2019-07-29T15:43:13Z</time>
      </trkpt>
      <trkpt lat="44.23429" lon="3.48378">
        <ele>1182.719</ele>
        <time>2019-07-29T15:43:16Z</time>
      </trkpt>
      <trkpt lat="44.23424" lon="3.48382">
        <ele>1183.62</ele>
        <time>2019-07-29T15:43:19Z</time>
      </trkpt>
      <trkpt lat="44.23421" lon="3.48387">
        <ele>1183.874</ele>
        <time>2019-07-29T15:43:23Z</time>
      </trkpt>
      <trkpt lat="44.23418" lon="3.48393">
        <ele>1183.553</ele>
        <time>2019-07-29T15:43:28Z</time>
      </trkpt>
      <trkpt lat="44.23414" lon="3.48397">
        <ele>1182.523</ele>
        <time>2019-07-29T15:43:34Z</time>
      </trkpt>
      <trkpt lat="44.23409" lon="3.48398">
        <ele>1182.383</ele>
        <time>2019-07-29T15:43:38Z</time>
      </trkpt>
      <trkpt lat="44.23405" lon="3.48399">
        <ele>1181.811</ele>
        <time>2019-07-29T15:43:44Z</time>
      </trkpt>
      <trkpt lat="44.23402" lon="3.48405">
        <ele>1180.308</ele>
        <time>2019-07-29T15:43:50Z</time>
      </trkpt>
      <trkpt lat="44.23398" lon="3.484">
        <ele>1179.465</ele>
        <time>2019-07-29T15:43:55Z</time>
      </trkpt>
      <trkpt lat="44.23394" lon="3.48396">
        <ele>1179.351</ele>
        <time>2019-07-29T15:43:59Z</time>
      </trkpt>
      <trkpt lat="44.2339" lon="3.48391">
        <ele>1180.046</ele>
        <time>2019-07-29T15:44:03Z</time>
      </trkpt>
      <trkpt lat="44.23385" lon="3.48388">
        <ele>1181.61</ele>
        <time>2019-07-29T15:44:07Z</time>
      </trkpt>
      <trkpt lat="44.2338" lon="3.48391">
        <ele>1181.884</ele>
        <time>2019-07-29T15:44:10Z</time>
      </trkpt>
      <trkpt lat="44.23374" lon="3.48391">
        <ele>1181.945</ele>
        <time>2019-07-29T15:44:13Z</time>
      </trkpt>
      <trkpt lat="44.23369" lon="3.48391">
        <ele>1182.089</ele>
        <time>2019-07-29T15:44:16Z</time>
      </trkpt>
      <trkpt lat="44.23365" lon="3.48391">
        <ele>1182.088</ele>
        <time>2019-07-29T15:44:19Z</time>
      </trkpt>
      <trkpt lat="44.23359" lon="3.4839">
        <ele>1182.472</ele>
        <time>2019-07-29T15:44:22Z</time>
      </trkpt>
      <trkpt lat="44.23354" lon="3.48391">
        <ele>1182.713</ele>
        <time>2019-07-29T15:44:26Z</time>
      </trkpt>
      <trkpt lat="44.2335" lon="3.48393">
        <ele>1183.314</ele>
        <time>2019-07-29T15:44:32Z</time>
      </trkpt>
      <trkpt lat="44.23345" lon="3.48393">
        <ele>1182.808</ele>
        <time>2019-07-29T15:44:36Z</time>
      </trkpt>
      <trkpt lat="44.2334" lon="3.4839">
        <ele>1182.93</ele>
        <time>2019-07-29T15:44:39Z</time>
      </trkpt>
      <trkpt lat="44.23336" lon="3.48386">
        <ele>1182.296</ele>
        <time>2019-07-29T15:44:43Z</time>
      </trkpt>
      <trkpt lat="44.23331" lon="3.48383">
        <ele>1181.841</ele>
        <time>2019-07-29T15:44:46Z</time>
      </trkpt>
      <trkpt lat="44.23327" lon="3.48379">
        <ele>1181.545</ele>
        <time>2019-07-29T15:44:50Z</time>
      </trkpt>
      <trkpt lat="44.23325" lon="3.48373">
        <ele>1180.129</ele>
        <time>2019-07-29T15:44:55Z</time>
      </trkpt>
      <trkpt lat="44.2332" lon="3.48369">
        <ele>1180.94</ele>
        <time>2019-07-29T15:44:59Z</time>
      </trkpt>
      <trkpt lat="44.23316" lon="3.48364">
        <ele>1181.024</ele>
        <time>2019-07-29T15:45:03Z</time>
      </trkpt>
      <trkpt lat="44.23312" lon="3.4836">
        <ele>1180.273</ele>
        <time>2019-07-29T15:45:06Z</time>
      </trkpt>
      <trkpt lat="44.23308" lon="3.48354">
        <ele>1178.985</ele>
        <time>2019-07-29T15:45:42Z</time>
      </trkpt>
      <trkpt lat="44.23303" lon="3.48355">
        <ele>1177.389</ele>
        <time>2019-07-29T15:45:46Z</time>
      </trkpt>
      <trkpt lat="44.23297" lon="3.48356">
        <ele>1177.617</ele>
        <time>2019-07-29T15:45:50Z</time>
      </trkpt>
      <trkpt lat="44.23292" lon="3.48357">
        <ele>1177.808</ele>
        <time>2019-07-29T15:45:53Z</time>
      </trkpt>
      <trkpt lat="44.23287" lon="3.48359">
        <ele>1179.141</ele>
        <time>2019-07-29T15:45:57Z</time>
      </trkpt>
      <trkpt lat="44.23282" lon="3.48359">
        <ele>1180.717</ele>
        <time>2019-07-29T15:46:01Z</time>
      </trkpt>
      <trkpt lat="44.23277" lon="3.48362">
        <ele>1181.632</ele>
        <time>2019-07-29T15:46:06Z</time>
      </trkpt>
      <trkpt lat="44.23273" lon="3.48367">
        <ele>1181.896</ele>
        <time>2019-07-29T15:46:11Z</time>
      </trkpt>
      <trkpt lat="44.23267" lon="3.48373">
        <ele>1183.19</ele>
        <time>2019-07-29T15:46:25Z</time>
      </trkpt>
      <trkpt lat="44.23263" lon="3.48377">
        <ele>1184.321</ele>
        <time>2019-07-29T15:46:30Z</time>
      </trkpt>
      <trkpt lat="44.23259" lon="3.4838">
        <ele>1185.455</ele>
        <time>2019-07-29T15:46:34Z</time>
      </trkpt>
      <trkpt lat="44.23255" lon="3.48384">
        <ele>1186.564</ele>
        <time>2019-07-29T15:46:40Z</time>
      </trkpt>
      <trkpt lat="44.23249" lon="3.48387">
        <ele>1186.719</ele>
        <time>2019-07-29T15:46:45Z</time>
      </trkpt>
      <trkpt lat="44.23244" lon="3.4839">
        <ele>1186.009</ele>
        <time>2019-07-29T15:46:51Z</time>
      </trkpt>
      <trkpt lat="44.2324" lon="3.4839">
        <ele>1186.819</ele>
        <time>2019-07-29T15:46:57Z</time>
      </trkpt>
      <trkpt lat="44.23234" lon="3.48392">
        <ele>1187.308</ele>
        <time>2019-07-29T15:47:02Z</time>
      </trkpt>
      <trkpt lat="44.23231" lon="3.48398">
        <ele>1188.434</ele>
        <time>2019-07-29T15:47:33Z</time>
      </trkpt>
      <trkpt lat="44.23226" lon="3.48402">
        <ele>1191.17</ele>
        <time>2019-07-29T15:47:37Z</time>
      </trkpt>
      <trkpt lat="44.23221" lon="3.48407">
        <ele>1193.955</ele>
        <time>2019-07-29T15:47:41Z</time>
      </trkpt>
      <trkpt lat="44.23217" lon="3.48409">
        <ele>1196.819</ele>
        <time>2019-07-29T15:47:45Z</time>
      </trkpt>
      <trkpt lat="44.23212" lon="3.48413">
        <ele>1198.973</ele>
        <time>2019-07-29T15:47:50Z</time>
      </trkpt>
      <trkpt lat="44.23208" lon="3.48416">
        <ele>1200.664</ele>
        <time>2019-07-29T15:47:54Z</time>
      </trkpt>
      <trkpt lat="44.23203" lon="3.48419">
        <ele>1201.698</ele>
        <time>2019-07-29T15:47:59Z</time>
      </trkpt>
      <trkpt lat="44.23199" lon="3.48421">
        <ele>1202.687</ele>
        <time>2019-07-29T15:48:03Z</time>
      </trkpt>
      <trkpt lat="44.23196" lon="3.48426">
        <ele>1202.857</ele>
        <time>2019-07-29T15:48:08Z</time>
      </trkpt>
      <trkpt lat="44.23193" lon="3.48431">
        <ele>1202.1</ele>
        <time>2019-07-29T15:48:14Z</time>
      </trkpt>
      <trkpt lat="44.23188" lon="3.48434">
        <ele>1201.72</ele>
        <time>2019-07-29T15:48:19Z</time>
      </trkpt>
      <trkpt lat="44.23183" lon="3.48437">
        <ele>1201.908</ele>
        <time>2019-07-29T15:48:24Z</time>
      </trkpt>
      <trkpt lat="44.23179" lon="3.4844">
        <ele>1202.428</ele>
        <time>2019-07-29T15:48:28Z</time>
      </trkpt>
      <trkpt lat="44.23175" lon="3.48444">
        <ele>1202.754</ele>
        <time>2019-07-29T15:48:32Z</time>
      </trkpt>
      <trkpt lat="44.23172" lon="3.48448">
        <ele>1202.579</ele>
        <time>2019-07-29T15:48:36Z</time>
      </trkpt>
      <trkpt lat="44.23167" lon="3.48452">
        <ele>1202.843</ele>
        <time>2019-07-29T15:48:40Z</time>
      </trkpt>
      <trkpt lat="44.23163" lon="3.48456">
        <ele>1202.667</ele>
        <time>2019-07-29T15:48:45Z</time>
      </trkpt>
      <trkpt lat="44.23158" lon="3.48458">
        <ele>1202.928</ele>
        <time>2019-07-29T15:48:50Z</time>
      </trkpt>
      <trkpt lat="44.23153" lon="3.48458">
        <ele>1204.742</ele>
        <time>2019-07-29T15:48:55Z</time>
      </trkpt>
      <trkpt lat="44.23148" lon="3.4846">
        <ele>1206.631</ele>
        <time>2019-07-29T15:49:00Z</time>
      </trkpt>
      <trkpt lat="44.23143" lon="3.48462">
        <ele>1209.357</ele>
        <time>2019-07-29T15:49:05Z</time>
      </trkpt>
      <trkpt lat="44.23138" lon="3.48464">
        <ele>1212.1</ele>
        <time>2019-07-29T15:49:10Z</time>
      </trkpt>
      <trkpt lat="44.23133" lon="3.48465">
        <ele>1215.02</ele>
        <time>2019-07-29T15:49:14Z</time>
      </trkpt>
      <trkpt lat="44.23129" lon="3.48469">
        <ele>1214.308</ele>
        <time>2019-07-29T15:49:21Z</time>
      </trkpt>
      <trkpt lat="44.23125" lon="3.48473">
        <ele>1213.998</ele>
        <time>2019-07-29T15:49:27Z</time>
      </trkpt>
      <trkpt lat="44.23122" lon="3.48478">
        <ele>1213.364</ele>
        <time>2019-07-29T15:49:32Z</time>
      </trkpt>
      <trkpt lat="44.23118" lon="3.48482">
        <ele>1213.379</ele>
        <time>2019-07-29T15:49:36Z</time>
      </trkpt>
      <trkpt lat="44.23113" lon="3.48485">
        <ele>1212.973</ele>
        <time>2019-07-29T15:49:40Z</time>
      </trkpt>
      <trkpt lat="44.23107" lon="3.48485">
        <ele>1212.767</ele>
        <time>2019-07-29T15:50:18Z</time>
      </trkpt>
      <trkpt lat="44.23102" lon="3.48486">
        <ele>1214.258</ele>
        <time>2019-07-29T15:51:58Z</time>
      </trkpt>
      <trkpt lat="44.23098" lon="3.48491">
        <ele>1214.342</ele>
        <time>2019-07-29T15:52:02Z</time>
      </trkpt>
      <trkpt lat="44.23095" lon="3.48495">
        <ele>1213.931</ele>
        <time>2019-07-29T15:52:06Z</time>
      </trkpt>
      <trkpt lat="44.2309" lon="3.48497">
        <ele>1214.153</ele>
        <time>2019-07-29T15:52:10Z</time>
      </trkpt>
      <trkpt lat="44.23085" lon="3.485">
        <ele>1213.404</ele>
        <time>2019-07-29T15:52:45Z</time>
      </trkpt>
      <trkpt lat="44.23081" lon="3.48505">
        <ele>1213.414</ele>
        <time>2019-07-29T15:52:49Z</time>
      </trkpt>
      <trkpt lat="44.23076" lon="3.48508">
        <ele>1213.008</ele>
        <time>2019-07-29T15:52:53Z</time>
      </trkpt>
      <trkpt lat="44.23071" lon="3.4851">
        <ele>1214.028</ele>
        <time>2019-07-29T15:52:56Z</time>
      </trkpt>
      <trkpt lat="44.23065" lon="3.48511">
        <ele>1215.084</ele>
        <time>2019-07-29T15:53:00Z</time>
      </trkpt>
      <trkpt lat="44.23061" lon="3.48514">
        <ele>1215.279</ele>
        <time>2019-07-29T15:53:04Z</time>
      </trkpt>
      <trkpt lat="44.23056" lon="3.48517">
        <ele>1215.383</ele>
        <time>2019-07-29T15:53:08Z</time>
      </trkpt>
      <trkpt lat="44.23052" lon="3.48521">
        <ele>1215.897</ele>
        <time>2019-07-29T15:53:12Z</time>
      </trkpt>
      <trkpt lat="44.23048" lon="3.48525">
        <ele>1215.788</ele>
        <time>2019-07-29T15:53:17Z</time>
      </trkpt>
      <trkpt lat="44.23043" lon="3.48529">
        <ele>1216.442</ele>
        <time>2019-07-29T15:53:21Z</time>
      </trkpt>
      <trkpt lat="44.23039" lon="3.48533">
        <ele>1217.221</ele>
        <time>2019-07-29T15:53:25Z</time>
      </trkpt>
      <trkpt lat="44.23035" lon="3.48537">
        <ele>1217.376</ele>
        <time>2019-07-29T15:53:29Z</time>
      </trkpt>
      <trkpt lat="44.23031" lon="3.48543">
        <ele>1217.09</ele>
        <time>2019-07-29T15:53:38Z</time>
      </trkpt>
      <trkpt lat="44.23027" lon="3.48547">
        <ele>1216.819</ele>
        <time>2019-07-29T15:53:42Z</time>
      </trkpt>
      <trkpt lat="44.23023" lon="3.48551">
        <ele>1215.108</ele>
        <time>2019-07-29T15:53:46Z</time>
      </trkpt>
      <trkpt lat="44.23018" lon="3.48555">
        <ele>1214.56</ele>
        <time>2019-07-29T15:53:50Z</time>
      </trkpt>
      <trkpt lat="44.23013" lon="3.4856">
        <ele>1213.726</ele>
        <time>2019-07-29T15:54:04Z</time>
      </trkpt>
      <trkpt lat="44.23007" lon="3.48561">
        <ele>1213.671</ele>
        <time>2019-07-29T15:54:09Z</time>
      </trkpt>
      <trkpt lat="44.23003" lon="3.48563">
        <ele>1214.035</ele>
        <time>2019-07-29T15:54:13Z</time>
      </trkpt>
      <trkpt lat="44.22997" lon="3.48566">
        <ele>1214.269</ele>
        <time>2019-07-29T15:54:17Z</time>
      </trkpt>
      <trkpt lat="44.22993" lon="3.4857">
        <ele>1215.17</ele>
        <time>2019-07-29T15:54:21Z</time>
      </trkpt>
      <trkpt lat="44.22989" lon="3.48574">
        <ele>1214.974</ele>
        <time>2019-07-29T15:54:25Z</time>
      </trkpt>
      <trkpt lat="44.22984" lon="3.48579">
        <ele>1214.493</ele>
        <time>2019-07-29T15:54:30Z</time>
      </trkpt>
      <trkpt lat="44.2298" lon="3.48583">
        <ele>1214.592</ele>
        <time>2019-07-29T15:54:35Z</time>
      </trkpt>
      <trkpt lat="44.22973" lon="3.48588">
        <ele>1214.573</ele>
        <time>2019-07-29T15:55:05Z</time>
      </trkpt>
      <trkpt lat="44.22968" lon="3.48591">
        <ele>1212.12</ele>
        <time>2019-07-29T15:55:11Z</time>
      </trkpt>
      <trkpt lat="44.22964" lon="3.48595">
        <ele>1210.708</ele>
        <time>2019-07-29T15:55:18Z</time>
      </trkpt>
      <trkpt lat="44.22958" lon="3.48599">
        <ele>1209.842</ele>
        <time>2019-07-29T15:55:22Z</time>
      </trkpt>
      <trkpt lat="44.22955" lon="3.48602">
        <ele>1209.728</ele>
        <time>2019-07-29T15:55:25Z</time>
      </trkpt>
      <trkpt lat="44.2295" lon="3.48607">
        <ele>1209.233</ele>
        <time>2019-07-29T15:55:29Z</time>
      </trkpt>
      <trkpt lat="44.22946" lon="3.48612">
        <ele>1209.377</ele>
        <time>2019-07-29T15:55:34Z</time>
      </trkpt>
      <trkpt lat="44.22942" lon="3.48619">
        <ele>1208.611</ele>
        <time>2019-07-29T15:55:38Z</time>
      </trkpt>
      <trkpt lat="44.2294" lon="3.48625">
        <ele>1208.272</ele>
        <time>2019-07-29T15:55:43Z</time>
      </trkpt>
      <trkpt lat="44.22937" lon="3.48632">
        <ele>1207.586</ele>
        <time>2019-07-29T15:55:48Z</time>
      </trkpt>
      <trkpt lat="44.22935" lon="3.48639">
        <ele>1207.195</ele>
        <time>2019-07-29T15:55:52Z</time>
      </trkpt>
      <trkpt lat="44.22934" lon="3.48646">
        <ele>1206.968</ele>
        <time>2019-07-29T15:55:56Z</time>
      </trkpt>
      <trkpt lat="44.22932" lon="3.48652">
        <ele>1206.842</ele>
        <time>2019-07-29T15:55:59Z</time>
      </trkpt>
      <trkpt lat="44.22931" lon="3.48658">
        <ele>1206.726</ele>
        <time>2019-07-29T15:56:02Z</time>
      </trkpt>
      <trkpt lat="44.2293" lon="3.48665">
        <ele>1206.608</ele>
        <time>2019-07-29T15:56:05Z</time>
      </trkpt>
      <trkpt lat="44.22929" lon="3.48672">
        <ele>1207.089</ele>
        <time>2019-07-29T15:56:09Z</time>
      </trkpt>
      <trkpt lat="44.2293" lon="3.48679">
        <ele>1207.665</ele>
        <time>2019-07-29T15:56:13Z</time>
      </trkpt>
      <trkpt lat="44.22931" lon="3.48687">
        <ele>1208.43</ele>
        <time>2019-07-29T15:56:17Z</time>
      </trkpt>
      <trkpt lat="44.22931" lon="3.48693">
        <ele>1208.154</ele>
        <time>2019-07-29T15:56:21Z</time>
      </trkpt>
      <trkpt lat="44.22932" lon="3.487">
        <ele>1207.968</ele>
        <time>2019-07-29T15:56:25Z</time>
      </trkpt>
      <trkpt lat="44.22933" lon="3.48707">
        <ele>1208.269</ele>
        <time>2019-07-29T15:56:29Z</time>
      </trkpt>
      <trkpt lat="44.22934" lon="3.48715">
        <ele>1208.093</ele>
        <time>2019-07-29T15:56:33Z</time>
      </trkpt>
      <trkpt lat="44.22934" lon="3.48721">
        <ele>1207.992</ele>
        <time>2019-07-29T15:56:36Z</time>
      </trkpt>
      <trkpt lat="44.22933" lon="3.4873">
        <ele>1207.856</ele>
        <time>2019-07-29T15:56:44Z</time>
      </trkpt>
      <trkpt lat="44.2293" lon="3.48736">
        <ele>1208.159</ele>
        <time>2019-07-29T15:56:48Z</time>
      </trkpt>
      <trkpt lat="44.22926" lon="3.48741">
        <ele>1208.714</ele>
        <time>2019-07-29T15:56:51Z</time>
      </trkpt>
      <trkpt lat="44.22922" lon="3.48746">
        <ele>1209.108</ele>
        <time>2019-07-29T15:56:54Z</time>
      </trkpt>
      <trkpt lat="44.22919" lon="3.4875">
        <ele>1209.338</ele>
        <time>2019-07-29T15:56:58Z</time>
      </trkpt>
      <trkpt lat="44.22915" lon="3.48754">
        <ele>1208.614</ele>
        <time>2019-07-29T15:57:05Z</time>
      </trkpt>
      <trkpt lat="44.22911" lon="3.48759">
        <ele>1208.279</ele>
        <time>2019-07-29T15:57:10Z</time>
      </trkpt>
      <trkpt lat="44.22907" lon="3.48763">
        <ele>1208.433</ele>
        <time>2019-07-29T15:57:14Z</time>
      </trkpt>
      <trkpt lat="44.22902" lon="3.48767">
        <ele>1208.557</ele>
        <time>2019-07-29T15:57:18Z</time>
      </trkpt>
      <trkpt lat="44.22898" lon="3.48771">
        <ele>1208.278</ele>
        <time>2019-07-29T15:57:22Z</time>
      </trkpt>
      <trkpt lat="44.22893" lon="3.48775">
        <ele>1208.082</ele>
        <time>2019-07-29T15:57:26Z</time>
      </trkpt>
      <trkpt lat="44.22887" lon="3.48777">
        <ele>1207.981</ele>
        <time>2019-07-29T15:57:30Z</time>
      </trkpt>
      <trkpt lat="44.22884" lon="3.48781">
        <ele>1207.814</ele>
        <time>2019-07-29T15:57:34Z</time>
      </trkpt>
      <trkpt lat="44.2288" lon="3.48785">
        <ele>1208.254</ele>
        <time>2019-07-29T15:57:38Z</time>
      </trkpt>
      <trkpt lat="44.22876" lon="3.4879">
        <ele>1209.209</ele>
        <time>2019-07-29T15:57:43Z</time>
      </trkpt>
      <trkpt lat="44.22871" lon="3.48795">
        <ele>1209.808</ele>
        <time>2019-07-29T15:57:48Z</time>
      </trkpt>
      <trkpt lat="44.22868" lon="3.48799">
        <ele>1210.664</ele>
        <time>2019-07-29T15:57:52Z</time>
      </trkpt>
      <trkpt lat="44.22864" lon="3.48804">
        <ele>1210.72</ele>
        <time>2019-07-29T15:57:56Z</time>
      </trkpt>
      <trkpt lat="44.22861" lon="3.48808">
        <ele>1210.725</ele>
        <time>2019-07-29T15:58:00Z</time>
      </trkpt>
      <trkpt lat="44.22857" lon="3.48812">
        <ele>1211.169</ele>
        <time>2019-07-29T15:58:04Z</time>
      </trkpt>
      <trkpt lat="44.22853" lon="3.48818">
        <ele>1211.093</ele>
        <time>2019-07-29T15:58:09Z</time>
      </trkpt>
      <trkpt lat="44.2285" lon="3.48822">
        <ele>1210.964</ele>
        <time>2019-07-29T15:58:13Z</time>
      </trkpt>
      <trkpt lat="44.22847" lon="3.48828">
        <ele>1210.418</ele>
        <time>2019-07-29T15:58:17Z</time>
      </trkpt>
      <trkpt lat="44.22844" lon="3.48833">
        <ele>1209.757</ele>
        <time>2019-07-29T15:58:24Z</time>
      </trkpt>
      <trkpt lat="44.22841" lon="3.48839">
        <ele>1209.712</ele>
        <time>2019-07-29T15:58:30Z</time>
      </trkpt>
      <trkpt lat="44.22838" lon="3.48845">
        <ele>1209.732</ele>
        <time>2019-07-29T15:58:39Z</time>
      </trkpt>
      <trkpt lat="44.22835" lon="3.48851">
        <ele>1208.505</ele>
        <time>2019-07-29T15:58:44Z</time>
      </trkpt>
      <trkpt lat="44.22832" lon="3.48858">
        <ele>1208.208</ele>
        <time>2019-07-29T15:58:48Z</time>
      </trkpt>
      <trkpt lat="44.22829" lon="3.48866">
        <ele>1208.424</ele>
        <time>2019-07-29T15:58:52Z</time>
      </trkpt>
      <trkpt lat="44.22827" lon="3.48873">
        <ele>1208.17</ele>
        <time>2019-07-29T15:58:57Z</time>
      </trkpt>
      <trkpt lat="44.22824" lon="3.4888">
        <ele>1207.985</ele>
        <time>2019-07-29T15:59:01Z</time>
      </trkpt>
      <trkpt lat="44.22823" lon="3.48887">
        <ele>1207.899</ele>
        <time>2019-07-29T15:59:05Z</time>
      </trkpt>
      <trkpt lat="44.22821" lon="3.48894">
        <ele>1207.353</ele>
        <time>2019-07-29T15:59:09Z</time>
      </trkpt>
      <trkpt lat="44.2282" lon="3.489">
        <ele>1206.614</ele>
        <time>2019-07-29T15:59:12Z</time>
      </trkpt>
      <trkpt lat="44.22818" lon="3.48907">
        <ele>1206.288</ele>
        <time>2019-07-29T15:59:16Z</time>
      </trkpt>
      <trkpt lat="44.22816" lon="3.48912">
        <ele>1205.647</ele>
        <time>2019-07-29T15:59:20Z</time>
      </trkpt>
      <trkpt lat="44.22814" lon="3.48919">
        <ele>1205.295</ele>
        <time>2019-07-29T15:59:24Z</time>
      </trkpt>
      <trkpt lat="44.22813" lon="3.48925">
        <ele>1205.449</ele>
        <time>2019-07-29T15:59:27Z</time>
      </trkpt>
      <trkpt lat="44.22812" lon="3.48933">
        <ele>1205.523</ele>
        <time>2019-07-29T15:59:31Z</time>
      </trkpt>
      <trkpt lat="44.22811" lon="3.4894">
        <ele>1206.008</ele>
        <time>2019-07-29T15:59:35Z</time>
      </trkpt>
      <trkpt lat="44.22812" lon="3.48947">
        <ele>1205.922</ele>
        <time>2019-07-29T15:59:39Z</time>
      </trkpt>
      <trkpt lat="44.22812" lon="3.48954">
        <ele>1205.878</ele>
        <time>2019-07-29T15:59:43Z</time>
      </trkpt>
      <trkpt lat="44.22813" lon="3.48961">
        <ele>1205.073</ele>
        <time>2019-07-29T15:59:48Z</time>
      </trkpt>
      <trkpt lat="44.22813" lon="3.48968">
        <ele>1204.117</ele>
        <time>2019-07-29T15:59:52Z</time>
      </trkpt>
      <trkpt lat="44.22814" lon="3.48975">
        <ele>1202.891</ele>
        <time>2019-07-29T15:59:56Z</time>
      </trkpt>
      <trkpt lat="44.22814" lon="3.48981">
        <ele>1202.082</ele>
        <time>2019-07-29T16:00:00Z</time>
      </trkpt>
      <trkpt lat="44.22815" lon="3.48987">
        <ele>1200.756</ele>
        <time>2019-07-29T16:00:10Z</time>
      </trkpt>
      <trkpt lat="44.22817" lon="3.48994">
        <ele>1199.545</ele>
        <time>2019-07-29T16:00:15Z</time>
      </trkpt>
      <trkpt lat="44.22817" lon="3.49001">
        <ele>1198.836</ele>
        <time>2019-07-29T16:00:20Z</time>
      </trkpt>
      <trkpt lat="44.22818" lon="3.49007">
        <ele>1198.017</ele>
        <time>2019-07-29T16:00:38Z</time>
      </trkpt>
      <trkpt lat="44.22818" lon="3.49014">
        <ele>1197.518</ele>
        <time>2019-07-29T16:00:42Z</time>
      </trkpt>
      <trkpt lat="44.22818" lon="3.49021">
        <ele>1197.208</ele>
        <time>2019-07-29T16:00:46Z</time>
      </trkpt>
      <trkpt lat="44.22817" lon="3.49028">
        <ele>1197.446</ele>
        <time>2019-07-29T16:00:49Z</time>
      </trkpt>
      <trkpt lat="44.22817" lon="3.49035">
        <ele>1197.122</ele>
        <time>2019-07-29T16:00:53Z</time>
      </trkpt>
      <trkpt lat="44.22817" lon="3.49042">
        <ele>1196.187</ele>
        <time>2019-07-29T16:00:57Z</time>
      </trkpt>
      <trkpt lat="44.22817" lon="3.49049">
        <ele>1195.581</ele>
        <time>2019-07-29T16:01:01Z</time>
      </trkpt>
      <trkpt lat="44.22816" lon="3.49055">
        <ele>1194.435</ele>
        <time>2019-07-29T16:01:05Z</time>
      </trkpt>
      <trkpt lat="44.22814" lon="3.49062">
        <ele>1193.766</ele>
        <time>2019-07-29T16:01:11Z</time>
      </trkpt>
      <trkpt lat="44.22812" lon="3.49068">
        <ele>1192.57</ele>
        <time>2019-07-29T16:01:15Z</time>
      </trkpt>
      <trkpt lat="44.2281" lon="3.49075">
        <ele>1191.069</ele>
        <time>2019-07-29T16:01:19Z</time>
      </trkpt>
      <trkpt lat="44.22808" lon="3.49082">
        <ele>1189.786</ele>
        <time>2019-07-29T16:01:23Z</time>
      </trkpt>
      <trkpt lat="44.22806" lon="3.49089">
        <ele>1188.96</ele>
        <time>2019-07-29T16:01:27Z</time>
      </trkpt>
      <trkpt lat="44.22804" lon="3.49097">
        <ele>1188.426</ele>
        <time>2019-07-29T16:01:31Z</time>
      </trkpt>
      <trkpt lat="44.22802" lon="3.49104">
        <ele>1188.108</ele>
        <time>2019-07-29T16:01:35Z</time>
      </trkpt>
      <trkpt lat="44.228" lon="3.4911">
        <ele>1187.511</ele>
        <time>2019-07-29T16:01:39Z</time>
      </trkpt>
      <trkpt lat="44.22798" lon="3.49116">
        <ele>1187.287</ele>
        <time>2019-07-29T16:01:43Z</time>
      </trkpt>
      <trkpt lat="44.22795" lon="3.49123">
        <ele>1186.652</ele>
        <time>2019-07-29T16:01:47Z</time>
      </trkpt>
      <trkpt lat="44.22793" lon="3.4913">
        <ele>1186.686</ele>
        <time>2019-07-29T16:01:51Z</time>
      </trkpt>
      <trkpt lat="44.22791" lon="3.49137">
        <ele>1186.68</ele>
        <time>2019-07-29T16:01:55Z</time>
      </trkpt>
      <trkpt lat="44.22787" lon="3.49144">
        <ele>1186.661</ele>
        <time>2019-07-29T16:02:39Z</time>
      </trkpt>
      <trkpt lat="44.22785" lon="3.4915">
        <ele>1187.095</ele>
        <time>2019-07-29T16:02:44Z</time>
      </trkpt>
      <trkpt lat="44.22782" lon="3.49157">
        <ele>1187.264</ele>
        <time>2019-07-29T16:02:48Z</time>
      </trkpt>
      <trkpt lat="44.22779" lon="3.49166">
        <ele>1187.313</ele>
        <time>2019-07-29T16:02:52Z</time>
      </trkpt>
      <trkpt lat="44.22777" lon="3.49173">
        <ele>1187.843</ele>
        <time>2019-07-29T16:02:56Z</time>
      </trkpt>
      <trkpt lat="44.22775" lon="3.4918">
        <ele>1187.707</ele>
        <time>2019-07-29T16:03:00Z</time>
      </trkpt>
      <trkpt lat="44.22774" lon="3.49186">
        <ele>1187.208</ele>
        <time>2019-07-29T16:03:04Z</time>
      </trkpt>
      <trkpt lat="44.22772" lon="3.49193">
        <ele>1187.754</ele>
        <time>2019-07-29T16:03:08Z</time>
      </trkpt>
      <trkpt lat="44.22769" lon="3.492">
        <ele>1188.05</ele>
        <time>2019-07-29T16:03:13Z</time>
      </trkpt>
      <trkpt lat="44.22768" lon="3.49207">
        <ele>1188.275</ele>
        <time>2019-07-29T16:03:17Z</time>
      </trkpt>
      <trkpt lat="44.22765" lon="3.49214">
        <ele>1187.959</ele>
        <time>2019-07-29T16:03:21Z</time>
      </trkpt>
      <trkpt lat="44.22764" lon="3.4922">
        <ele>1188.123</ele>
        <time>2019-07-29T16:03:25Z</time>
      </trkpt>
      <trkpt lat="44.22762" lon="3.49227">
        <ele>1187.834</ele>
        <time>2019-07-29T16:03:29Z</time>
      </trkpt>
      <trkpt lat="44.22761" lon="3.49234">
        <ele>1188.498</ele>
        <time>2019-07-29T16:03:34Z</time>
      </trkpt>
      <trkpt lat="44.22759" lon="3.49242">
        <ele>1188.847</ele>
        <time>2019-07-29T16:03:39Z</time>
      </trkpt>
      <trkpt lat="44.22758" lon="3.49248">
        <ele>1189.065</ele>
        <time>2019-07-29T16:03:43Z</time>
      </trkpt>
      <trkpt lat="44.22755" lon="3.49254">
        <ele>1189.968</ele>
        <time>2019-07-29T16:03:47Z</time>
      </trkpt>
      <trkpt lat="44.22752" lon="3.4926">
        <ele>1191.314</ele>
        <time>2019-07-29T16:03:51Z</time>
      </trkpt>
      <trkpt lat="44.22749" lon="3.49266">
        <ele>1191.708</ele>
        <time>2019-07-29T16:03:55Z</time>
      </trkpt>
      <trkpt lat="44.22747" lon="3.49271">
        <ele>1192.439</ele>
        <time>2019-07-29T16:03:59Z</time>
      </trkpt>
      <trkpt lat="44.22744" lon="3.49277">
        <ele>1192.815</ele>
        <time>2019-07-29T16:04:03Z</time>
      </trkpt>
      <trkpt lat="44.22742" lon="3.49283">
        <ele>1193.09</ele>
        <time>2019-07-29T16:04:07Z</time>
      </trkpt>
      <trkpt lat="44.22739" lon="3.49288">
        <ele>1193.134</ele>
        <time>2019-07-29T16:04:11Z</time>
      </trkpt>
      <trkpt lat="44.22736" lon="3.49293">
        <ele>1194.088</ele>
        <time>2019-07-29T16:04:15Z</time>
      </trkpt>
      <trkpt lat="44.22734" lon="3.493">
        <ele>1194.569</ele>
        <time>2019-07-29T16:04:19Z</time>
      </trkpt>
      <trkpt lat="44.22735" lon="3.49307">
        <ele>1194.823</ele>
        <time>2019-07-29T16:04:24Z</time>
      </trkpt>
      <trkpt lat="44.22737" lon="3.49314">
        <ele>1195.042</ele>
        <time>2019-07-29T16:04:29Z</time>
      </trkpt>
      <trkpt lat="44.22741" lon="3.4932">
        <ele>1195.593</ele>
        <time>2019-07-29T16:04:34Z</time>
      </trkpt>
      <trkpt lat="44.22741" lon="3.49326">
        <ele>1195.465</ele>
        <time>2019-07-29T16:04:58Z</time>
      </trkpt>
      <trkpt lat="44.22744" lon="3.4933">
        <ele>1194.921</ele>
        <time>2019-07-29T16:05:02Z</time>
      </trkpt>
      <trkpt lat="44.22747" lon="3.49336">
        <ele>1194.608</ele>
        <time>2019-07-29T16:05:06Z</time>
      </trkpt>
      <trkpt lat="44.22749" lon="3.49342">
        <ele>1194.882</ele>
        <time>2019-07-29T16:05:10Z</time>
      </trkpt>
      <trkpt lat="44.22751" lon="3.49349">
        <ele>1195.368</ele>
        <time>2019-07-29T16:05:14Z</time>
      </trkpt>
      <trkpt lat="44.22752" lon="3.49356">
        <ele>1195.243</ele>
        <time>2019-07-29T16:05:18Z</time>
      </trkpt>
      <trkpt lat="44.22753" lon="3.49364">
        <ele>1195.617</ele>
        <time>2019-07-29T16:05:22Z</time>
      </trkpt>
      <trkpt lat="44.22754" lon="3.4937">
        <ele>1195.041</ele>
        <time>2019-07-29T16:05:49Z</time>
      </trkpt>
      <trkpt lat="44.22754" lon="3.49377">
        <ele>1193.822</ele>
        <time>2019-07-29T16:05:55Z</time>
      </trkpt>
      <trkpt lat="44.22754" lon="3.49383">
        <ele>1193.126</ele>
        <time>2019-07-29T16:06:00Z</time>
      </trkpt>
      <trkpt lat="44.22754" lon="3.49391">
        <ele>1191.925</ele>
        <time>2019-07-29T16:06:05Z</time>
      </trkpt>
      <trkpt lat="44.22753" lon="3.49397">
        <ele>1192.049</ele>
        <time>2019-07-29T16:06:09Z</time>
      </trkpt>
      <trkpt lat="44.22751" lon="3.49404">
        <ele>1191.202</ele>
        <time>2019-07-29T16:06:13Z</time>
      </trkpt>
      <trkpt lat="44.22749" lon="3.4941">
        <ele>1190.722</ele>
        <time>2019-07-29T16:06:18Z</time>
      </trkpt>
      <trkpt lat="44.22747" lon="3.49417">
        <ele>1189.608</ele>
        <time>2019-07-29T16:06:23Z</time>
      </trkpt>
      <trkpt lat="44.22746" lon="3.49424">
        <ele>1189.027</ele>
        <time>2019-07-29T16:06:38Z</time>
      </trkpt>
      <trkpt lat="44.22742" lon="3.49428">
        <ele>1189.053</ele>
        <time>2019-07-29T16:06:43Z</time>
      </trkpt>
      <trkpt lat="44.22737" lon="3.4943">
        <ele>1188.698</ele>
        <time>2019-07-29T16:06:47Z</time>
      </trkpt>
      <trkpt lat="44.22733" lon="3.4943">
        <ele>1188.842</ele>
        <time>2019-07-29T16:06:51Z</time>
      </trkpt>
      <trkpt lat="44.22727" lon="3.49431">
        <ele>1188.936</ele>
        <time>2019-07-29T16:06:55Z</time>
      </trkpt>
      <trkpt lat="44.22722" lon="3.49431">
        <ele>1188.677</ele>
        <time>2019-07-29T16:06:59Z</time>
      </trkpt>
      <trkpt lat="44.22717" lon="3.49431">
        <ele>1188.891</ele>
        <time>2019-07-29T16:07:03Z</time>
      </trkpt>
      <trkpt lat="44.22713" lon="3.49431">
        <ele>1189.72</ele>
        <time>2019-07-29T16:07:07Z</time>
      </trkpt>
      <trkpt lat="44.22708" lon="3.49431">
        <ele>1189.587</ele>
        <time>2019-07-29T16:07:11Z</time>
      </trkpt>
      <trkpt lat="44.22703" lon="3.49432">
        <ele>1189.842</ele>
        <time>2019-07-29T16:07:15Z</time>
      </trkpt>
      <trkpt lat="44.22697" lon="3.49432">
        <ele>1190.026</ele>
        <time>2019-07-29T16:07:19Z</time>
      </trkpt>
      <trkpt lat="44.22691" lon="3.49432">
        <ele>1190.908</ele>
        <time>2019-07-29T16:07:23Z</time>
      </trkpt>
      <trkpt lat="44.22686" lon="3.49432">
        <ele>1190.611</ele>
        <time>2019-07-29T16:07:27Z</time>
      </trkpt>
      <trkpt lat="44.22681" lon="3.49432">
        <ele>1190.427</ele>
        <time>2019-07-29T16:07:31Z</time>
      </trkpt>
      <trkpt lat="44.22676" lon="3.49433">
        <ele>1191.142</ele>
        <time>2019-07-29T16:07:35Z</time>
      </trkpt>
      <trkpt lat="44.22671" lon="3.49434">
        <ele>1191.186</ele>
        <time>2019-07-29T16:07:39Z</time>
      </trkpt>
      <trkpt lat="44.22666" lon="3.49435">
        <ele>1191.53</ele>
        <time>2019-07-29T16:07:44Z</time>
      </trkpt>
      <trkpt lat="44.2266" lon="3.49436">
        <ele>1192.151</ele>
        <time>2019-07-29T16:07:49Z</time>
      </trkpt>
      <trkpt lat="44.22655" lon="3.49438">
        <ele>1192.185</ele>
        <time>2019-07-29T16:07:54Z</time>
      </trkpt>
      <trkpt lat="44.22651" lon="3.49439">
        <ele>1191.724</ele>
        <time>2019-07-29T16:07:59Z</time>
      </trkpt>
      <trkpt lat="44.22646" lon="3.49442">
        <ele>1191.934</ele>
        <time>2019-07-29T16:08:04Z</time>
      </trkpt>
      <trkpt lat="44.22641" lon="3.49445">
        <ele>1192.855</ele>
        <time>2019-07-29T16:08:10Z</time>
      </trkpt>
      <trkpt lat="44.22637" lon="3.4945">
        <ele>1193.71</ele>
        <time>2019-07-29T16:08:15Z</time>
      </trkpt>
      <trkpt lat="44.22633" lon="3.49455">
        <ele>1194.308</ele>
        <time>2019-07-29T16:08:20Z</time>
      </trkpt>
      <trkpt lat="44.22628" lon="3.49457">
        <ele>1194.676</ele>
        <time>2019-07-29T16:08:25Z</time>
      </trkpt>
      <trkpt lat="44.22623" lon="3.49459">
        <ele>1194.442</ele>
        <time>2019-07-29T16:08:30Z</time>
      </trkpt>
      <trkpt lat="44.22618" lon="3.49463">
        <ele>1194.317</ele>
        <time>2019-07-29T16:08:35Z</time>
      </trkpt>
      <trkpt lat="44.22616" lon="3.49469">
        <ele>1194.691</ele>
        <time>2019-07-29T16:08:40Z</time>
      </trkpt>
      <trkpt lat="44.22615" lon="3.49476">
        <ele>1194.855</ele>
        <time>2019-07-29T16:08:45Z</time>
      </trkpt>
      <trkpt lat="44.22616" lon="3.49482">
        <ele>1195.736</ele>
        <time>2019-07-29T16:08:49Z</time>
      </trkpt>
      <trkpt lat="44.22617" lon="3.49489">
        <ele>1196.31</ele>
        <time>2019-07-29T16:08:54Z</time>
      </trkpt>
      <trkpt lat="44.22619" lon="3.49495">
        <ele>1197.489</ele>
        <time>2019-07-29T16:08:59Z</time>
      </trkpt>
      <trkpt lat="44.22621" lon="3.49502">
        <ele>1198.511</ele>
        <time>2019-07-29T16:09:04Z</time>
      </trkpt>
      <trkpt lat="44.22623" lon="3.49509">
        <ele>1199.521</ele>
        <time>2019-07-29T16:09:10Z</time>
      </trkpt>
      <trkpt lat="44.22625" lon="3.49515">
        <ele>1200.503</ele>
        <time>2019-07-29T16:09:15Z</time>
      </trkpt>
      <trkpt lat="44.22627" lon="3.49522">
        <ele>1201.108</ele>
        <time>2019-07-29T16:09:20Z</time>
      </trkpt>
      <trkpt lat="44.22629" lon="3.49528">
        <ele>1201.974</ele>
        <time>2019-07-29T16:09:25Z</time>
      </trkpt>
      <trkpt lat="44.22632" lon="3.49534">
        <ele>1202.48</ele>
        <time>2019-07-29T16:09:30Z</time>
      </trkpt>
      <trkpt lat="44.22634" lon="3.4954">
        <ele>1202.765</ele>
        <time>2019-07-29T16:09:34Z</time>
      </trkpt>
      <trkpt lat="44.22636" lon="3.49547">
        <ele>1203.769</ele>
        <time>2019-07-29T16:09:39Z</time>
      </trkpt>
      <trkpt lat="44.22637" lon="3.49554">
        <ele>1204.333</ele>
        <time>2019-07-29T16:09:44Z</time>
      </trkpt>
      <trkpt lat="44.22639" lon="3.4956">
        <ele>1205.074</ele>
        <time>2019-07-29T16:09:49Z</time>
      </trkpt>
      <trkpt lat="44.22639" lon="3.49566">
        <ele>1205.488</ele>
        <time>2019-07-29T16:09:53Z</time>
      </trkpt>
      <trkpt lat="44.22638" lon="3.49573">
        <ele>1206.137</ele>
        <time>2019-07-29T16:09:57Z</time>
      </trkpt>
      <trkpt lat="44.22638" lon="3.4958">
        <ele>1207.364</ele>
        <time>2019-07-29T16:10:03Z</time>
      </trkpt>
      <trkpt lat="44.22638" lon="3.49586">
        <ele>1208.406</ele>
        <time>2019-07-29T16:10:08Z</time>
      </trkpt>
      <trkpt lat="44.22638" lon="3.49593">
        <ele>1208.716</ele>
        <time>2019-07-29T16:10:13Z</time>
      </trkpt>
      <trkpt lat="44.22637" lon="3.49599">
        <ele>1208.508</ele>
        <time>2019-07-29T16:10:19Z</time>
      </trkpt>
      <trkpt lat="44.22637" lon="3.49607">
        <ele>1208.019</ele>
        <time>2019-07-29T16:10:25Z</time>
      </trkpt>
      <trkpt lat="44.22637" lon="3.49614">
        <ele>1208.145</ele>
        <time>2019-07-29T16:10:30Z</time>
      </trkpt>
      <trkpt lat="44.22635" lon="3.4962">
        <ele>1208.93</ele>
        <time>2019-07-29T16:10:35Z</time>
      </trkpt>
      <trkpt lat="44.22632" lon="3.49626">
        <ele>1209.474</ele>
        <time>2019-07-29T16:10:39Z</time>
      </trkpt>
      <trkpt lat="44.22629" lon="3.49631">
        <ele>1209.718</ele>
        <time>2019-07-29T16:10:43Z</time>
      </trkpt>
      <trkpt lat="44.22626" lon="3.49636">
        <ele>1210.399</ele>
        <time>2019-07-29T16:10:47Z</time>
      </trkpt>
      <trkpt lat="44.22624" lon="3.49643">
        <ele>1211.823</ele>
        <time>2019-07-29T16:10:51Z</time>
      </trkpt>
      <trkpt lat="44.22624" lon="3.4965">
        <ele>1213.172</ele>
        <time>2019-07-29T16:10:55Z</time>
      </trkpt>
      <trkpt lat="44.22623" lon="3.49657">
        <ele>1214.381</ele>
        <time>2019-07-29T16:10:59Z</time>
      </trkpt>
      <trkpt lat="44.22623" lon="3.49663">
        <ele>1215.061</ele>
        <time>2019-07-29T16:11:03Z</time>
      </trkpt>
      <trkpt lat="44.22624" lon="3.49671">
        <ele>1215.417</ele>
        <time>2019-07-29T16:11:08Z</time>
      </trkpt>
      <trkpt lat="44.22625" lon="3.49677">
        <ele>1216.108</ele>
        <time>2019-07-29T16:11:13Z</time>
      </trkpt>
      <trkpt lat="44.22626" lon="3.49683">
        <ele>1216.181</ele>
        <time>2019-07-29T16:11:19Z</time>
      </trkpt>
      <trkpt lat="44.22626" lon="3.4969">
        <ele>1216.147</ele>
        <time>2019-07-29T16:11:23Z</time>
      </trkpt>
      <trkpt lat="44.22626" lon="3.49698">
        <ele>1216.142</ele>
        <time>2019-07-29T16:11:27Z</time>
      </trkpt>
      <trkpt lat="44.22625" lon="3.49706">
        <ele>1215.366</ele>
        <time>2019-07-29T16:11:32Z</time>
      </trkpt>
      <trkpt lat="44.22624" lon="3.49713">
        <ele>1215.28</ele>
        <time>2019-07-29T16:11:36Z</time>
      </trkpt>
      <trkpt lat="44.22624" lon="3.4972">
        <ele>1216.411</ele>
        <time>2019-07-29T16:11:40Z</time>
      </trkpt>
      <trkpt lat="44.22624" lon="3.49727">
        <ele>1217.165</ele>
        <time>2019-07-29T16:11:44Z</time>
      </trkpt>
      <trkpt lat="44.22623" lon="3.49735">
        <ele>1217.514</ele>
        <time>2019-07-29T16:11:48Z</time>
      </trkpt>
      <trkpt lat="44.22623" lon="3.49742">
        <ele>1218.172</ele>
        <time>2019-07-29T16:11:52Z</time>
      </trkpt>
      <trkpt lat="44.22623" lon="3.49749">
        <ele>1218.913</ele>
        <time>2019-07-29T16:11:56Z</time>
      </trkpt>
      <trkpt lat="44.22624" lon="3.49756">
        <ele>1219.414</ele>
        <time>2019-07-29T16:12:00Z</time>
      </trkpt>
      <trkpt lat="44.22623" lon="3.49764">
        <ele>1219.708</ele>
        <time>2019-07-29T16:12:05Z</time>
      </trkpt>
      <trkpt lat="44.22623" lon="3.49771">
        <ele>1219.96</ele>
        <time>2019-07-29T16:12:09Z</time>
      </trkpt>
      <trkpt lat="44.22622" lon="3.49778">
        <ele>1221.276</ele>
        <time>2019-07-29T16:12:13Z</time>
      </trkpt>
      <trkpt lat="44.2262" lon="3.49784">
        <ele>1221.681</ele>
        <time>2019-07-29T16:12:17Z</time>
      </trkpt>
      <trkpt lat="44.22618" lon="3.49791">
        <ele>1222.695</ele>
        <time>2019-07-29T16:12:21Z</time>
      </trkpt>
      <trkpt lat="44.22617" lon="3.49797">
        <ele>1223.249</ele>
        <time>2019-07-29T16:12:25Z</time>
      </trkpt>
      <trkpt lat="44.22615" lon="3.49804">
        <ele>1223.64</ele>
        <time>2019-07-29T16:12:29Z</time>
      </trkpt>
      <trkpt lat="44.22613" lon="3.4981">
        <ele>1224.264</ele>
        <time>2019-07-29T16:12:33Z</time>
      </trkpt>
      <trkpt lat="44.2261" lon="3.49816">
        <ele>1224.223</ele>
        <time>2019-07-29T16:12:38Z</time>
      </trkpt>
      <trkpt lat="44.22607" lon="3.49821">
        <ele>1223.496</ele>
        <time>2019-07-29T16:13:17Z</time>
      </trkpt>
      <trkpt lat="44.22605" lon="3.49827">
        <ele>1222.131</ele>
        <time>2019-07-29T16:13:24Z</time>
      </trkpt>
      <trkpt lat="44.226" lon="3.49832">
        <ele>1221.324</ele>
        <time>2019-07-29T16:13:29Z</time>
      </trkpt>
      <trkpt lat="44.22597" lon="3.49837">
        <ele>1221.608</ele>
        <time>2019-07-29T16:13:33Z</time>
      </trkpt>
      <trkpt lat="44.22593" lon="3.49841">
        <ele>1222.212</ele>
        <time>2019-07-29T16:13:37Z</time>
      </trkpt>
      <trkpt lat="44.22589" lon="3.49846">
        <ele>1223.068</ele>
        <time>2019-07-29T16:13:42Z</time>
      </trkpt>
      <trkpt lat="44.22585" lon="3.4985">
        <ele>1223.523</ele>
        <time>2019-07-29T16:13:46Z</time>
      </trkpt>
      <trkpt lat="44.22582" lon="3.49855">
        <ele>1224.217</ele>
        <time>2019-07-29T16:13:51Z</time>
      </trkpt>
      <trkpt lat="44.22577" lon="3.49859">
        <ele>1225.451</ele>
        <time>2019-07-29T16:13:56Z</time>
      </trkpt>
      <trkpt lat="44.22572" lon="3.49863">
        <ele>1225.782</ele>
        <time>2019-07-29T16:14:01Z</time>
      </trkpt>
      <trkpt lat="44.22568" lon="3.49868">
        <ele>1226.796</ele>
        <time>2019-07-29T16:14:06Z</time>
      </trkpt>
      <trkpt lat="44.22564" lon="3.49873">
        <ele>1227.765</ele>
        <time>2019-07-29T16:14:13Z</time>
      </trkpt>
      <trkpt lat="44.22561" lon="3.49878">
        <ele>1229.186</ele>
        <time>2019-07-29T16:14:17Z</time>
      </trkpt>
      <trkpt lat="44.22557" lon="3.49883">
        <ele>1229.56</ele>
        <time>2019-07-29T16:14:22Z</time>
      </trkpt>
      <trkpt lat="44.22554" lon="3.49889">
        <ele>1230.226</ele>
        <time>2019-07-29T16:14:27Z</time>
      </trkpt>
      <trkpt lat="44.22552" lon="3.49895">
        <ele>1230.608</ele>
        <time>2019-07-29T16:14:36Z</time>
      </trkpt>
      <trkpt lat="44.2255" lon="3.49902">
        <ele>1231.631</ele>
        <time>2019-07-29T16:14:47Z</time>
      </trkpt>
      <trkpt lat="44.22547" lon="3.49908">
        <ele>1232.627</ele>
        <time>2019-07-29T16:14:53Z</time>
      </trkpt>
      <trkpt lat="44.22544" lon="3.49913">
        <ele>1233.272</ele>
        <time>2019-07-29T16:14:59Z</time>
      </trkpt>
      <trkpt lat="44.22539" lon="3.49913">
        <ele>1233.246</ele>
        <time>2019-07-29T16:15:49Z</time>
      </trkpt>
      <trkpt lat="44.22544" lon="3.49912">
        <ele>1232.43</ele>
        <time>2019-07-29T16:15:57Z</time>
      </trkpt>
      <trkpt lat="44.22548" lon="3.49908">
        <ele>1231.941</ele>
        <time>2019-07-29T16:16:02Z</time>
      </trkpt>
      <trkpt lat="44.2255" lon="3.49902">
        <ele>1231.275</ele>
        <time>2019-07-29T16:16:13Z</time>
      </trkpt>
      <trkpt lat="44.22551" lon="3.49894">
        <ele>1229.634</ele>
        <time>2019-07-29T16:16:17Z</time>
      </trkpt>
      <trkpt lat="44.22546" lon="3.49896">
        <ele>1229.459</ele>
        <time>2019-07-29T16:16:25Z</time>
      </trkpt>
      <trkpt lat="44.22543" lon="3.499">
        <ele>1229.303</ele>
        <time>2019-07-29T16:16:29Z</time>
      </trkpt>
      <trkpt lat="44.22541" lon="3.49906">
        <ele>1228.823</ele>
        <time>2019-07-29T16:16:33Z</time>
      </trkpt>
      <trkpt lat="44.22538" lon="3.49911">
        <ele>1228.108</ele>
        <time>2019-07-29T16:16:41Z</time>
      </trkpt>
      <trkpt lat="44.22533" lon="3.49909">
        <ele>1227.378</ele>
        <time>2019-07-29T16:16:58Z</time>
      </trkpt>
      <trkpt lat="44.22529" lon="3.4991">
        <ele>1226.824</ele>
        <time>2019-07-29T16:17:10Z</time>
      </trkpt>
      <trkpt lat="44.22526" lon="3.49916">
        <ele>1227.319</ele>
        <time>2019-07-29T16:17:36Z</time>
      </trkpt>
      <trkpt lat="44.22525" lon="3.49923">
        <ele>1227.683</ele>
        <time>2019-07-29T16:17:43Z</time>
      </trkpt>
      <trkpt lat="44.22524" lon="3.4993">
        <ele>1228.217</ele>
        <time>2019-07-29T16:17:47Z</time>
      </trkpt>
      <trkpt lat="44.22524" lon="3.49938">
        <ele>1228.648</ele>
        <time>2019-07-29T16:17:52Z</time>
      </trkpt>
      <trkpt lat="44.22525" lon="3.49946">
        <ele>1229.622</ele>
        <time>2019-07-29T16:18:32Z</time>
      </trkpt>
      <trkpt lat="44.22525" lon="3.49953">
        <ele>1230.221</ele>
        <time>2019-07-29T16:18:44Z</time>
      </trkpt>
      <trkpt lat="44.22523" lon="3.49959">
        <ele>1228.214</ele>
        <time>2019-07-29T16:20:06Z</time>
      </trkpt>
      <trkpt lat="44.2252" lon="3.49964">
        <ele>1226.654</ele>
        <time>2019-07-29T16:20:10Z</time>
      </trkpt>
      <trkpt lat="44.22518" lon="3.49969">
        <ele>1225.209</ele>
        <time>2019-07-29T16:20:14Z</time>
      </trkpt>
      <trkpt lat="44.22515" lon="3.49976">
        <ele>1224.808</ele>
        <time>2019-07-29T16:20:19Z</time>
      </trkpt>
      <trkpt lat="44.22513" lon="3.49982">
        <ele>1224.174</ele>
        <time>2019-07-29T16:20:23Z</time>
      </trkpt>
      <trkpt lat="44.22512" lon="3.4999">
        <ele>1223.33</ele>
        <time>2019-07-29T16:20:27Z</time>
      </trkpt>
      <trkpt lat="44.2251" lon="3.49997">
        <ele>1222.825</ele>
        <time>2019-07-29T16:20:34Z</time>
      </trkpt>
      <trkpt lat="44.22508" lon="3.50003">
        <ele>1222.929</ele>
        <time>2019-07-29T16:20:40Z</time>
      </trkpt>
      <trkpt lat="44.22505" lon="3.5001">
        <ele>1223.043</ele>
        <time>2019-07-29T16:20:45Z</time>
      </trkpt>
      <trkpt lat="44.22502" lon="3.50017">
        <ele>1222.694</ele>
        <time>2019-07-29T16:20:50Z</time>
      </trkpt>
      <trkpt lat="44.22501" lon="3.50023">
        <ele>1222.888</ele>
        <time>2019-07-29T16:20:55Z</time>
      </trkpt>
      <trkpt lat="44.22499" lon="3.5003">
        <ele>1222.917</ele>
        <time>2019-07-29T16:21:00Z</time>
      </trkpt>
      <trkpt lat="44.22497" lon="3.50037">
        <ele>1222.697</ele>
        <time>2019-07-29T16:21:05Z</time>
      </trkpt>
      <trkpt lat="44.22494" lon="3.50042">
        <ele>1221.223</ele>
        <time>2019-07-29T16:21:09Z</time>
      </trkpt>
      <trkpt lat="44.22492" lon="3.50049">
        <ele>1220.025</ele>
        <time>2019-07-29T16:21:14Z</time>
      </trkpt>
      <trkpt lat="44.22492" lon="3.50055">
        <ele>1220.108</ele>
        <time>2019-07-29T16:22:25Z</time>
      </trkpt>
      <trkpt lat="44.2249" lon="3.50061">
        <ele>1219.322</ele>
        <time>2019-07-29T16:22:30Z</time>
      </trkpt>
      <trkpt lat="44.22488" lon="3.50068">
        <ele>1218.818</ele>
        <time>2019-07-29T16:22:34Z</time>
      </trkpt>
      <trkpt lat="44.22487" lon="3.50075">
        <ele>1218.193</ele>
        <time>2019-07-29T16:22:38Z</time>
      </trkpt>
      <trkpt lat="44.22486" lon="3.50082">
        <ele>1216.997</ele>
        <time>2019-07-29T16:22:43Z</time>
      </trkpt>
      <trkpt lat="44.22485" lon="3.50089">
        <ele>1215.481</ele>
        <time>2019-07-29T16:22:47Z</time>
      </trkpt>
      <trkpt lat="44.22485" lon="3.50096">
        <ele>1214.522</ele>
        <time>2019-07-29T16:22:51Z</time>
      </trkpt>
      <trkpt lat="44.22484" lon="3.50102">
        <ele>1214.086</ele>
        <time>2019-07-29T16:22:55Z</time>
      </trkpt>
      <trkpt lat="44.22483" lon="3.5011">
        <ele>1214.125</ele>
        <time>2019-07-29T16:23:09Z</time>
      </trkpt>
      <trkpt lat="44.22482" lon="3.50117">
        <ele>1212.972</ele>
        <time>2019-07-29T16:23:15Z</time>
      </trkpt>
      <trkpt lat="44.22481" lon="3.50124">
        <ele>1212.613</ele>
        <time>2019-07-29T16:23:20Z</time>
      </trkpt>
      <trkpt lat="44.2248" lon="3.50131">
        <ele>1211.614</ele>
        <time>2019-07-29T16:23:25Z</time>
      </trkpt>
      <trkpt lat="44.22478" lon="3.50138">
        <ele>1211.008</ele>
        <time>2019-07-29T16:23:29Z</time>
      </trkpt>
      <trkpt lat="44.22478" lon="3.50144">
        <ele>1210.65</ele>
        <time>2019-07-29T16:23:33Z</time>
      </trkpt>
      <trkpt lat="44.22477" lon="3.50152">
        <ele>1211.226</ele>
        <time>2019-07-29T16:23:37Z</time>
      </trkpt>
      <trkpt lat="44.22476" lon="3.50159">
        <ele>1212.091</ele>
        <time>2019-07-29T16:23:41Z</time>
      </trkpt>
      <trkpt lat="44.22475" lon="3.50167">
        <ele>1212.165</ele>
        <time>2019-07-29T16:23:50Z</time>
      </trkpt>
      <trkpt lat="44.22473" lon="3.50174">
        <ele>1212.149</ele>
        <time>2019-07-29T16:23:57Z</time>
      </trkpt>
      <trkpt lat="44.22472" lon="3.5018">
        <ele>1211.77</ele>
        <time>2019-07-29T16:24:01Z</time>
      </trkpt>
      <trkpt lat="44.2247" lon="3.50186">
        <ele>1211.954</ele>
        <time>2019-07-29T16:24:05Z</time>
      </trkpt>
      <trkpt lat="44.22469" lon="3.50193">
        <ele>1212.493</ele>
        <time>2019-07-29T16:24:09Z</time>
      </trkpt>
      <trkpt lat="44.22466" lon="3.502">
        <ele>1213.128</ele>
        <time>2019-07-29T16:24:14Z</time>
      </trkpt>
      <trkpt lat="44.22463" lon="3.50204">
        <ele>1213.189</ele>
        <time>2019-07-29T16:24:19Z</time>
      </trkpt>
      <trkpt lat="44.22458" lon="3.50207">
        <ele>1212.717</ele>
        <time>2019-07-29T16:24:24Z</time>
      </trkpt>
      <trkpt lat="44.22454" lon="3.50211">
        <ele>1212.108</ele>
        <time>2019-07-29T16:24:30Z</time>
      </trkpt>
      <trkpt lat="44.2245" lon="3.50214">
        <ele>1212.145</ele>
        <time>2019-07-29T16:24:34Z</time>
      </trkpt>
      <trkpt lat="44.22447" lon="3.50219">
        <ele>1211.711</ele>
        <time>2019-07-29T16:24:38Z</time>
      </trkpt>
      <trkpt lat="44.22444" lon="3.50225">
        <ele>1211.546</ele>
        <time>2019-07-29T16:24:43Z</time>
      </trkpt>
      <trkpt lat="44.22442" lon="3.50232">
        <ele>1211.82</ele>
        <time>2019-07-29T16:24:48Z</time>
      </trkpt>
      <trkpt lat="44.22439" lon="3.50237">
        <ele>1212.414</ele>
        <time>2019-07-29T16:24:53Z</time>
      </trkpt>
      <trkpt lat="44.22435" lon="3.50243">
        <ele>1211.955</ele>
        <time>2019-07-29T16:24:58Z</time>
      </trkpt>
      <trkpt lat="44.22431" lon="3.50247">
        <ele>1211.279</ele>
        <time>2019-07-29T16:25:02Z</time>
      </trkpt>
      <trkpt lat="44.22428" lon="3.50252">
        <ele>1211.268</ele>
        <time>2019-07-29T16:25:06Z</time>
      </trkpt>
      <trkpt lat="44.22425" lon="3.50259">
        <ele>1210.888</ele>
        <time>2019-07-29T16:25:11Z</time>
      </trkpt>
      <trkpt lat="44.22422" lon="3.50264">
        <ele>1211.024</ele>
        <time>2019-07-29T16:25:26Z</time>
      </trkpt>
      <trkpt lat="44.22421" lon="3.50271">
        <ele>1211.526</ele>
        <time>2019-07-29T16:25:32Z</time>
      </trkpt>
      <trkpt lat="44.2242" lon="3.50278">
        <ele>1211.408</ele>
        <time>2019-07-29T16:25:36Z</time>
      </trkpt>
      <trkpt lat="44.2242" lon="3.50285">
        <ele>1210.571</ele>
        <time>2019-07-29T16:25:41Z</time>
      </trkpt>
      <trkpt lat="44.2242" lon="3.50292">
        <ele>1210.457</ele>
        <time>2019-07-29T16:25:45Z</time>
      </trkpt>
      <trkpt lat="44.2242" lon="3.503">
        <ele>1209.552</ele>
        <time>2019-07-29T16:25:50Z</time>
      </trkpt>
      <trkpt lat="44.22419" lon="3.50307">
        <ele>1209.826</ele>
        <time>2019-07-29T16:25:54Z</time>
      </trkpt>
      <trkpt lat="44.22419" lon="3.50314">
        <ele>1210.87</ele>
        <time>2019-07-29T16:25:58Z</time>
      </trkpt>
      <trkpt lat="44.22419" lon="3.50321">
        <ele>1212.221</ele>
        <time>2019-07-29T16:26:02Z</time>
      </trkpt>
      <trkpt lat="44.22419" lon="3.50329">
        <ele>1213.075</ele>
        <time>2019-07-29T16:26:06Z</time>
      </trkpt>
      <trkpt lat="44.22418" lon="3.50335">
        <ele>1213.964</ele>
        <time>2019-07-29T16:26:10Z</time>
      </trkpt>
      <trkpt lat="44.22417" lon="3.50343">
        <ele>1214.015</ele>
        <time>2019-07-29T16:26:15Z</time>
      </trkpt>
      <trkpt lat="44.22418" lon="3.5035">
        <ele>1213.765</ele>
        <time>2019-07-29T16:26:25Z</time>
      </trkpt>
      <trkpt lat="44.22418" lon="3.50357">
        <ele>1213.911</ele>
        <time>2019-07-29T16:26:30Z</time>
      </trkpt>
      <trkpt lat="44.22417" lon="3.50364">
        <ele>1213.608</ele>
        <time>2019-07-29T16:26:34Z</time>
      </trkpt>
      <trkpt lat="44.22416" lon="3.50374">
        <ele>1213.084</ele>
        <time>2019-07-29T16:26:49Z</time>
      </trkpt>
      <trkpt lat="44.22416" lon="3.50381">
        <ele>1213.15</ele>
        <time>2019-07-29T16:26:55Z</time>
      </trkpt>
      <trkpt lat="44.22417" lon="3.50387">
        <ele>1213.185</ele>
        <time>2019-07-29T16:27:14Z</time>
      </trkpt>
      <trkpt lat="44.22417" lon="3.50395">
        <ele>1212.379</ele>
        <time>2019-07-29T16:27:19Z</time>
      </trkpt>
      <trkpt lat="44.22416" lon="3.50403">
        <ele>1211.873</ele>
        <time>2019-07-29T16:27:24Z</time>
      </trkpt>
      <trkpt lat="44.22417" lon="3.5041">
        <ele>1212.774</ele>
        <time>2019-07-29T16:27:29Z</time>
      </trkpt>
      <trkpt lat="44.22418" lon="3.50417">
        <ele>1213.328</ele>
        <time>2019-07-29T16:27:34Z</time>
      </trkpt>
      <trkpt lat="44.22419" lon="3.50424">
        <ele>1214.057</ele>
        <time>2019-07-29T16:28:19Z</time>
      </trkpt>
      <trkpt lat="44.2242" lon="3.50432">
        <ele>1214.094</ele>
        <time>2019-07-29T16:28:24Z</time>
      </trkpt>
      <trkpt lat="44.22423" lon="3.50438">
        <ele>1213.657</ele>
        <time>2019-07-29T16:28:29Z</time>
      </trkpt>
      <trkpt lat="44.22425" lon="3.50443">
        <ele>1213.022</ele>
        <time>2019-07-29T16:28:52Z</time>
      </trkpt>
      <trkpt lat="44.22429" lon="3.50446">
        <ele>1213.408</ele>
        <time>2019-07-29T16:28:58Z</time>
      </trkpt>
      <trkpt lat="44.22433" lon="3.50451">
        <ele>1213.792</ele>
        <time>2019-07-29T16:29:03Z</time>
      </trkpt>
      <trkpt lat="44.22434" lon="3.50457">
        <ele>1213.968</ele>
        <time>2019-07-29T16:29:07Z</time>
      </trkpt>
      <trkpt lat="44.22434" lon="3.50464">
        <ele>1213.613</ele>
        <time>2019-07-29T16:29:11Z</time>
      </trkpt>
      <trkpt lat="44.22437" lon="3.5047">
        <ele>1212.257</ele>
        <time>2019-07-29T16:29:46Z</time>
      </trkpt>
      <trkpt lat="44.22441" lon="3.50474">
        <ele>1212.271</ele>
        <time>2019-07-29T16:30:01Z</time>
      </trkpt>
      <trkpt lat="44.2245" lon="3.50477">
        <ele>1211.862</ele>
        <time>2019-07-29T16:31:21Z</time>
      </trkpt>
      <trkpt lat="44.22454" lon="3.50479">
        <ele>1210.786</ele>
        <time>2019-07-29T16:31:31Z</time>
      </trkpt>
      <trkpt lat="44.2246" lon="3.50478">
        <ele>1208.555</ele>
        <time>2019-07-29T16:31:35Z</time>
      </trkpt>
      <trkpt lat="44.22465" lon="3.50479">
        <ele>1207.688</ele>
        <time>2019-07-29T16:31:39Z</time>
      </trkpt>
      <trkpt lat="44.22471" lon="3.50481">
        <ele>1207.424</ele>
        <time>2019-07-29T16:31:58Z</time>
      </trkpt>
      <trkpt lat="44.22471" lon="3.50488">
        <ele>1206.126</ele>
        <time>2019-07-29T16:32:07Z</time>
      </trkpt>
      <trkpt lat="44.22468" lon="3.50493">
        <ele>1204.908</ele>
        <time>2019-07-29T16:32:12Z</time>
      </trkpt>
      <trkpt lat="44.22464" lon="3.50497">
        <ele>1203.841</ele>
        <time>2019-07-29T16:32:17Z</time>
      </trkpt>
      <trkpt lat="44.2246" lon="3.50501">
        <ele>1202.387</ele>
        <time>2019-07-29T16:32:23Z</time>
      </trkpt>
      <trkpt lat="44.22455" lon="3.50502">
        <ele>1200.672</ele>
        <time>2019-07-29T16:32:28Z</time>
      </trkpt>
      <trkpt lat="44.2245" lon="3.50503">
        <ele>1199.666</ele>
        <time>2019-07-29T16:32:33Z</time>
      </trkpt>
      <trkpt lat="44.22444" lon="3.50503">
        <ele>1198.67</ele>
        <time>2019-07-29T16:32:38Z</time>
      </trkpt>
      <trkpt lat="44.22439" lon="3.50504">
        <ele>1197.611</ele>
        <time>2019-07-29T16:32:43Z</time>
      </trkpt>
      <trkpt lat="44.22434" lon="3.50507">
        <ele>1197.095</ele>
        <time>2019-07-29T16:33:08Z</time>
      </trkpt>
      <trkpt lat="44.22429" lon="3.5051">
        <ele>1196.214</ele>
        <time>2019-07-29T16:33:15Z</time>
      </trkpt>
      <trkpt lat="44.22425" lon="3.50512">
        <ele>1194.544</ele>
        <time>2019-07-29T16:33:21Z</time>
      </trkpt>
      <trkpt lat="44.2242" lon="3.50508">
        <ele>1193.105</ele>
        <time>2019-07-29T16:33:37Z</time>
      </trkpt>
      <trkpt lat="44.22417" lon="3.50513">
        <ele>1191.115</ele>
        <time>2019-07-29T16:33:43Z</time>
      </trkpt>
      <trkpt lat="44.22416" lon="3.50521">
        <ele>1189.508</ele>
        <time>2019-07-29T16:33:48Z</time>
      </trkpt>
      <trkpt lat="44.22416" lon="3.50528">
        <ele>1187.777</ele>
        <time>2019-07-29T16:33:53Z</time>
      </trkpt>
      <trkpt lat="44.22413" lon="3.50534">
        <ele>1187.073</ele>
        <time>2019-07-29T16:34:03Z</time>
      </trkpt>
      <trkpt lat="44.2241" lon="3.50539">
        <ele>1186.678</ele>
        <time>2019-07-29T16:34:07Z</time>
      </trkpt>
      <trkpt lat="44.22407" lon="3.50544">
        <ele>1184.882</ele>
        <time>2019-07-29T16:34:31Z</time>
      </trkpt>
      <trkpt lat="44.22402" lon="3.50544">
        <ele>1183.336</ele>
        <time>2019-07-29T16:34:36Z</time>
      </trkpt>
      <trkpt lat="44.22397" lon="3.50542">
        <ele>1181.637</ele>
        <time>2019-07-29T16:34:41Z</time>
      </trkpt>
      <trkpt lat="44.22392" lon="3.50543">
        <ele>1181.411</ele>
        <time>2019-07-29T16:34:46Z</time>
      </trkpt>
      <trkpt lat="44.22387" lon="3.50546">
        <ele>1182.51</ele>
        <time>2019-07-29T16:34:50Z</time>
      </trkpt>
      <trkpt lat="44.22385" lon="3.50551">
        <ele>1183.148</ele>
        <time>2019-07-29T16:34:54Z</time>
      </trkpt>
      <trkpt lat="44.22383" lon="3.50558">
        <ele>1182.761</ele>
        <time>2019-07-29T16:34:59Z</time>
      </trkpt>
      <trkpt lat="44.22379" lon="3.50562">
        <ele>1181.717</ele>
        <time>2019-07-29T16:35:05Z</time>
      </trkpt>
      <trkpt lat="44.22373" lon="3.50563">
        <ele>1181.508</ele>
        <time>2019-07-29T16:35:10Z</time>
      </trkpt>
      <trkpt lat="44.22368" lon="3.50563">
        <ele>1181.497</ele>
        <time>2019-07-29T16:35:14Z</time>
      </trkpt>
      <trkpt lat="44.22363" lon="3.50564">
        <ele>1180.583</ele>
        <time>2019-07-29T16:35:20Z</time>
      </trkpt>
      <trkpt lat="44.22358" lon="3.50564">
        <ele>1179.298</ele>
        <time>2019-07-29T16:35:29Z</time>
      </trkpt>
      <trkpt lat="44.22353" lon="3.50564">
        <ele>1178.842</ele>
        <time>2019-07-29T16:35:33Z</time>
      </trkpt>
      <trkpt lat="44.22348" lon="3.50566">
        <ele>1178.636</ele>
        <time>2019-07-29T16:35:36Z</time>
      </trkpt>
      <trkpt lat="44.22343" lon="3.50568">
        <ele>1178.967</ele>
        <time>2019-07-29T16:35:40Z</time>
      </trkpt>
      <trkpt lat="44.22339" lon="3.50571">
        <ele>1179.141</ele>
        <time>2019-07-29T16:35:44Z</time>
      </trkpt>
      <trkpt lat="44.22333" lon="3.50578">
        <ele>1179.29</ele>
        <time>2019-07-29T16:35:56Z</time>
      </trkpt>
      <trkpt lat="44.22331" lon="3.50584">
        <ele>1178.926</ele>
        <time>2019-07-29T16:36:01Z</time>
      </trkpt>
      <trkpt lat="44.22335" lon="3.50589">
        <ele>1177.947</ele>
        <time>2019-07-29T16:36:07Z</time>
      </trkpt>
      <trkpt lat="44.22339" lon="3.50592">
        <ele>1176.911</ele>
        <time>2019-07-29T16:36:11Z</time>
      </trkpt>
      <trkpt lat="44.22343" lon="3.50594">
        <ele>1176.708</ele>
        <time>2019-07-29T16:36:15Z</time>
      </trkpt>
      <trkpt lat="44.22348" lon="3.50598">
        <ele>1176.245</ele>
        <time>2019-07-29T16:36:20Z</time>
      </trkpt>
      <trkpt lat="44.2235" lon="3.50604">
        <ele>1175.981</ele>
        <time>2019-07-29T16:36:25Z</time>
      </trkpt>
      <trkpt lat="44.22353" lon="3.5061">
        <ele>1175.786</ele>
        <time>2019-07-29T16:36:30Z</time>
      </trkpt>
      <trkpt lat="44.22356" lon="3.50616">
        <ele>1175.64</ele>
        <time>2019-07-29T16:36:38Z</time>
      </trkpt>
      <trkpt lat="44.22357" lon="3.50622">
        <ele>1176.324</ele>
        <time>2019-07-29T16:36:42Z</time>
      </trkpt>
      <trkpt lat="44.22358" lon="3.5063">
        <ele>1176.795</ele>
        <time>2019-07-29T16:36:46Z</time>
      </trkpt>
      <trkpt lat="44.2236" lon="3.50635">
        <ele>1176.669</ele>
        <time>2019-07-29T16:36:50Z</time>
      </trkpt>
      <trkpt lat="44.22361" lon="3.50642">
        <ele>1176.178</ele>
        <time>2019-07-29T16:37:01Z</time>
      </trkpt>
      <trkpt lat="44.22361" lon="3.5065">
        <ele>1175.027</ele>
        <time>2019-07-29T16:37:06Z</time>
      </trkpt>
      <trkpt lat="44.22361" lon="3.50657">
        <ele>1174.768</ele>
        <time>2019-07-29T16:37:10Z</time>
      </trkpt>
      <trkpt lat="44.2236" lon="3.50664">
        <ele>1174.514</ele>
        <time>2019-07-29T16:37:14Z</time>
      </trkpt>
      <trkpt lat="44.2236" lon="3.50671">
        <ele>1173.608</ele>
        <time>2019-07-29T16:37:20Z</time>
      </trkpt>
      <trkpt lat="44.2236" lon="3.50678">
        <ele>1173.575</ele>
        <time>2019-07-29T16:37:24Z</time>
      </trkpt>
      <trkpt lat="44.22361" lon="3.50685">
        <ele>1172.691</ele>
        <time>2019-07-29T16:37:29Z</time>
      </trkpt>
      <trkpt lat="44.2236" lon="3.50692">
        <ele>1172.986</ele>
        <time>2019-07-29T16:37:33Z</time>
      </trkpt>
      <trkpt lat="44.22359" lon="3.50699">
        <ele>1173.11</ele>
        <time>2019-07-29T16:37:38Z</time>
      </trkpt>
      <trkpt lat="44.22363" lon="3.50704">
        <ele>1173.634</ele>
        <time>2019-07-29T16:37:44Z</time>
      </trkpt>
      <trkpt lat="44.22364" lon="3.5071">
        <ele>1173.195</ele>
        <time>2019-07-29T16:37:58Z</time>
      </trkpt>
      <trkpt lat="44.22363" lon="3.50717">
        <ele>1173.259</ele>
        <time>2019-07-29T16:38:03Z</time>
      </trkpt>
      <trkpt lat="44.22362" lon="3.50724">
        <ele>1172.958</ele>
        <time>2019-07-29T16:38:08Z</time>
      </trkpt>
      <trkpt lat="44.22361" lon="3.5073">
        <ele>1172.789</ele>
        <time>2019-07-29T16:38:12Z</time>
      </trkpt>
      <trkpt lat="44.22362" lon="3.50737">
        <ele>1172.606</ele>
        <time>2019-07-29T16:38:17Z</time>
      </trkpt>
      <trkpt lat="44.22361" lon="3.50743">
        <ele>1171.326</ele>
        <time>2019-07-29T16:38:21Z</time>
      </trkpt>
      <trkpt lat="44.2236" lon="3.5075">
        <ele>1170.108</ele>
        <time>2019-07-29T16:38:25Z</time>
      </trkpt>
      <trkpt lat="44.22358" lon="3.50756">
        <ele>1169.841</ele>
        <time>2019-07-29T16:38:29Z</time>
      </trkpt>
      <trkpt lat="44.22357" lon="3.50762">
        <ele>1169.697</ele>
        <time>2019-07-29T16:38:33Z</time>
      </trkpt>
      <trkpt lat="44.22356" lon="3.50769">
        <ele>1169.972</ele>
        <time>2019-07-29T16:38:37Z</time>
      </trkpt>
      <trkpt lat="44.22355" lon="3.50775">
        <ele>1170.576</ele>
        <time>2019-07-29T16:38:41Z</time>
      </trkpt>
      <trkpt lat="44.22355" lon="3.50783">
        <ele>1169.69</ele>
        <time>2019-07-29T16:38:46Z</time>
      </trkpt>
      <trkpt lat="44.22355" lon="3.50791">
        <ele>1169.131</ele>
        <time>2019-07-29T16:38:51Z</time>
      </trkpt>
      <trkpt lat="44.22355" lon="3.50798">
        <ele>1168.425</ele>
        <time>2019-07-29T16:38:55Z</time>
      </trkpt>
      <trkpt lat="44.22353" lon="3.50805">
        <ele>1167.284</ele>
        <time>2019-07-29T16:38:59Z</time>
      </trkpt>
      <trkpt lat="44.2235" lon="3.50811">
        <ele>1166.169</ele>
        <time>2019-07-29T16:39:03Z</time>
      </trkpt>
      <trkpt lat="44.2235" lon="3.50819">
        <ele>1164.604</ele>
        <time>2019-07-29T16:39:09Z</time>
      </trkpt>
      <trkpt lat="44.2235" lon="3.50826">
        <ele>1164.524</ele>
        <time>2019-07-29T16:39:17Z</time>
      </trkpt>
      <trkpt lat="44.22352" lon="3.50832">
        <ele>1164.408</ele>
        <time>2019-07-29T16:39:21Z</time>
      </trkpt>
      <trkpt lat="44.22356" lon="3.50836">
        <ele>1163.629</ele>
        <time>2019-07-29T16:39:26Z</time>
      </trkpt>
      <trkpt lat="44.22361" lon="3.50839">
        <ele>1162.775</ele>
        <time>2019-07-29T16:39:31Z</time>
      </trkpt>
      <trkpt lat="44.22365" lon="3.50844">
        <ele>1161.82</ele>
        <time>2019-07-29T16:39:36Z</time>
      </trkpt>
      <trkpt lat="44.22368" lon="3.50849">
        <ele>1160.844</ele>
        <time>2019-07-29T16:39:40Z</time>
      </trkpt>
      <trkpt lat="44.22371" lon="3.50855">
        <ele>1161.058</ele>
        <time>2019-07-29T16:39:45Z</time>
      </trkpt>
      <trkpt lat="44.22372" lon="3.50861">
        <ele>1161.179</ele>
        <time>2019-07-29T16:39:59Z</time>
      </trkpt>
      <trkpt lat="44.22377" lon="3.50864">
        <ele>1161.263</ele>
        <time>2019-07-29T16:40:06Z</time>
      </trkpt>
      <trkpt lat="44.22379" lon="3.5087">
        <ele>1161.222</ele>
        <time>2019-07-29T16:40:11Z</time>
      </trkpt>
      <trkpt lat="44.22381" lon="3.50878">
        <ele>1162.012</ele>
        <time>2019-07-29T16:40:16Z</time>
      </trkpt>
      <trkpt lat="44.22382" lon="3.50886">
        <ele>1163.332</ele>
        <time>2019-07-29T16:40:20Z</time>
      </trkpt>
      <trkpt lat="44.22383" lon="3.50892">
        <ele>1164.105</ele>
        <time>2019-07-29T16:40:24Z</time>
      </trkpt>
      <trkpt lat="44.22384" lon="3.50899">
        <ele>1165.008</ele>
        <time>2019-07-29T16:40:29Z</time>
      </trkpt>
      <trkpt lat="44.22384" lon="3.50905">
        <ele>1165.194</ele>
        <time>2019-07-29T16:40:34Z</time>
      </trkpt>
      <trkpt lat="44.22382" lon="3.50911">
        <ele>1164.85</ele>
        <time>2019-07-29T16:40:38Z</time>
      </trkpt>
      <trkpt lat="44.22379" lon="3.50918">
        <ele>1163.815</ele>
        <time>2019-07-29T16:40:42Z</time>
      </trkpt>
      <trkpt lat="44.2238" lon="3.50925">
        <ele>1163.299</ele>
        <time>2019-07-29T16:40:47Z</time>
      </trkpt>
      <trkpt lat="44.22382" lon="3.50932">
        <ele>1161.653</ele>
        <time>2019-07-29T16:40:52Z</time>
      </trkpt>
      <trkpt lat="44.22381" lon="3.50939">
        <ele>1161.554</ele>
        <time>2019-07-29T16:41:10Z</time>
      </trkpt>
      <trkpt lat="44.22381" lon="3.50946">
        <ele>1161.428</ele>
        <time>2019-07-29T16:41:16Z</time>
      </trkpt>
      <trkpt lat="44.2238" lon="3.50953">
        <ele>1161.437</ele>
        <time>2019-07-29T16:41:21Z</time>
      </trkpt>
      <trkpt lat="44.22378" lon="3.5096">
        <ele>1161.488</ele>
        <time>2019-07-29T16:41:26Z</time>
      </trkpt>
      <trkpt lat="44.22378" lon="3.50967">
        <ele>1161.424</ele>
        <time>2019-07-29T16:41:30Z</time>
      </trkpt>
      <trkpt lat="44.22378" lon="3.50974">
        <ele>1161.026</ele>
        <time>2019-07-29T16:41:34Z</time>
      </trkpt>
      <trkpt lat="44.22383" lon="3.50976">
        <ele>1160.408</ele>
        <time>2019-07-29T16:41:41Z</time>
      </trkpt>
      <trkpt lat="44.22388" lon="3.50977">
        <ele>1159.291</ele>
        <time>2019-07-29T16:41:48Z</time>
      </trkpt>
      <trkpt lat="44.22392" lon="3.5098">
        <ele>1158.597</ele>
        <time>2019-07-29T16:41:53Z</time>
      </trkpt>
      <trkpt lat="44.22397" lon="3.50984">
        <ele>1157.382</ele>
        <time>2019-07-29T16:41:58Z</time>
      </trkpt>
      <trkpt lat="44.22401" lon="3.50987">
        <ele>1156.256</ele>
        <time>2019-07-29T16:42:03Z</time>
      </trkpt>
      <trkpt lat="44.22406" lon="3.5099">
        <ele>1155.11</ele>
        <time>2019-07-29T16:42:07Z</time>
      </trkpt>
      <trkpt lat="44.2241" lon="3.50991">
        <ele>1153.751</ele>
        <time>2019-07-29T16:42:11Z</time>
      </trkpt>
      <trkpt lat="44.22415" lon="3.50993">
        <ele>1152.825</ele>
        <time>2019-07-29T16:42:16Z</time>
      </trkpt>
      <trkpt lat="44.22419" lon="3.50998">
        <ele>1151.914</ele>
        <time>2019-07-29T16:42:21Z</time>
      </trkpt>
      <trkpt lat="44.22423" lon="3.51004">
        <ele>1151.364</ele>
        <time>2019-07-29T16:42:26Z</time>
      </trkpt>
      <trkpt lat="44.22426" lon="3.51009">
        <ele>1150.206</ele>
        <time>2019-07-29T16:42:31Z</time>
      </trkpt>
      <trkpt lat="44.22429" lon="3.51015">
        <ele>1148.716</ele>
        <time>2019-07-29T16:42:36Z</time>
      </trkpt>
      <trkpt lat="44.22433" lon="3.51019">
        <ele>1148.208</ele>
        <time>2019-07-29T16:42:40Z</time>
      </trkpt>
      <trkpt lat="44.22437" lon="3.51023">
        <ele>1147.519</ele>
        <time>2019-07-29T16:42:44Z</time>
      </trkpt>
      <trkpt lat="44.22441" lon="3.51027">
        <ele>1147.115</ele>
        <time>2019-07-29T16:42:48Z</time>
      </trkpt>
      <trkpt lat="44.22444" lon="3.51032">
        <ele>1145.74</ele>
        <time>2019-07-29T16:42:52Z</time>
      </trkpt>
      <trkpt lat="44.22448" lon="3.51037">
        <ele>1144.814</ele>
        <time>2019-07-29T16:42:57Z</time>
      </trkpt>
      <trkpt lat="44.22452" lon="3.51039">
        <ele>1144.378</ele>
        <time>2019-07-29T16:43:01Z</time>
      </trkpt>
      <trkpt lat="44.22457" lon="3.5104">
        <ele>1144.449</ele>
        <time>2019-07-29T16:43:06Z</time>
      </trkpt>
      <trkpt lat="44.22462" lon="3.5104">
        <ele>1144.543</ele>
        <time>2019-07-29T16:43:11Z</time>
      </trkpt>
      <trkpt lat="44.22464" lon="3.51046">
        <ele>1144.582</ele>
        <time>2019-07-29T16:43:25Z</time>
      </trkpt>
      <trkpt lat="44.22468" lon="3.51052">
        <ele>1144.131</ele>
        <time>2019-07-29T16:43:32Z</time>
      </trkpt>
      <trkpt lat="44.22471" lon="3.51056">
        <ele>1143.961</ele>
        <time>2019-07-29T16:43:36Z</time>
      </trkpt>
      <trkpt lat="44.22474" lon="3.51062">
        <ele>1143.407</ele>
        <time>2019-07-29T16:43:40Z</time>
      </trkpt>
      <trkpt lat="44.22477" lon="3.51068">
        <ele>1143.108</ele>
        <time>2019-07-29T16:43:45Z</time>
      </trkpt>
      <trkpt lat="44.2248" lon="3.51074">
        <ele>1142.146</ele>
        <time>2019-07-29T16:43:50Z</time>
      </trkpt>
      <trkpt lat="44.22484" lon="3.5108">
        <ele>1141.542</ele>
        <time>2019-07-29T16:43:55Z</time>
      </trkpt>
      <trkpt lat="44.22487" lon="3.51085">
        <ele>1141.927</ele>
        <time>2019-07-29T16:43:59Z</time>
      </trkpt>
      <trkpt lat="44.2249" lon="3.51091">
        <ele>1142.291</ele>
        <time>2019-07-29T16:44:03Z</time>
      </trkpt>
      <trkpt lat="44.22493" lon="3.51097">
        <ele>1142.015</ele>
        <time>2019-07-29T16:44:08Z</time>
      </trkpt>
      <trkpt lat="44.22497" lon="3.51101">
        <ele>1141.976</ele>
        <time>2019-07-29T16:44:12Z</time>
      </trkpt>
      <trkpt lat="44.225" lon="3.51107">
        <ele>1141.84</ele>
        <time>2019-07-29T16:44:16Z</time>
      </trkpt>
      <trkpt lat="44.22504" lon="3.51112">
        <ele>1141.799</ele>
        <time>2019-07-29T16:44:20Z</time>
      </trkpt>
      <trkpt lat="44.22509" lon="3.51117">
        <ele>1142.149</ele>
        <time>2019-07-29T16:44:24Z</time>
      </trkpt>
      <trkpt lat="44.22512" lon="3.51123">
        <ele>1142.702</ele>
        <time>2019-07-29T16:44:28Z</time>
      </trkpt>
      <trkpt lat="44.22516" lon="3.51128">
        <ele>1143.122</ele>
        <time>2019-07-29T16:44:32Z</time>
      </trkpt>
      <trkpt lat="44.22519" lon="3.51134">
        <ele>1143.708</ele>
        <time>2019-07-29T16:44:36Z</time>
      </trkpt>
      <trkpt lat="44.22521" lon="3.51141">
        <ele>1144.597</ele>
        <time>2019-07-29T16:44:40Z</time>
      </trkpt>
      <trkpt lat="44.22523" lon="3.51149">
        <ele>1145.473</ele>
        <time>2019-07-29T16:44:44Z</time>
      </trkpt>
      <trkpt lat="44.22524" lon="3.51155">
        <ele>1145.578</ele>
        <time>2019-07-29T16:44:48Z</time>
      </trkpt>
      <trkpt lat="44.22524" lon="3.51162">
        <ele>1145.652</ele>
        <time>2019-07-29T16:44:52Z</time>
      </trkpt>
      <trkpt lat="44.22524" lon="3.51169">
        <ele>1145.666</ele>
        <time>2019-07-29T16:44:56Z</time>
      </trkpt>
      <trkpt lat="44.22526" lon="3.51176">
        <ele>1146.487</ele>
        <time>2019-07-29T16:45:01Z</time>
      </trkpt>
      <trkpt lat="44.22528" lon="3.51183">
        <ele>1146.151</ele>
        <time>2019-07-29T16:45:06Z</time>
      </trkpt>
      <trkpt lat="44.22529" lon="3.51189">
        <ele>1146.31</ele>
        <time>2019-07-29T16:45:10Z</time>
      </trkpt>
      <trkpt lat="44.2253" lon="3.51197">
        <ele>1146.896</ele>
        <time>2019-07-29T16:45:14Z</time>
      </trkpt>
      <trkpt lat="44.22531" lon="3.51203">
        <ele>1147.131</ele>
        <time>2019-07-29T16:45:18Z</time>
      </trkpt>
      <trkpt lat="44.22532" lon="3.51211">
        <ele>1147.324</ele>
        <time>2019-07-29T16:45:22Z</time>
      </trkpt>
      <trkpt lat="44.22532" lon="3.51217">
        <ele>1147.408</ele>
        <time>2019-07-29T16:45:26Z</time>
      </trkpt>
      <trkpt lat="44.22533" lon="3.51224">
        <ele>1148.332</ele>
        <time>2019-07-29T16:45:30Z</time>
      </trkpt>
      <trkpt lat="44.22534" lon="3.51231">
        <ele>1148.838</ele>
        <time>2019-07-29T16:45:36Z</time>
      </trkpt>
      <trkpt lat="44.22535" lon="3.51238">
        <ele>1149.173</ele>
        <time>2019-07-29T16:45:40Z</time>
      </trkpt>
      <trkpt lat="44.22538" lon="3.51244">
        <ele>1148.937</ele>
        <time>2019-07-29T16:45:44Z</time>
      </trkpt>
      <trkpt lat="44.2254" lon="3.51251">
        <ele>1149.271</ele>
        <time>2019-07-29T16:45:48Z</time>
      </trkpt>
      <trkpt lat="44.22543" lon="3.51257">
        <ele>1149.462</ele>
        <time>2019-07-29T16:45:52Z</time>
      </trkpt>
      <trkpt lat="44.22547" lon="3.51262">
        <ele>1149.186</ele>
        <time>2019-07-29T16:45:56Z</time>
      </trkpt>
      <trkpt lat="44.22551" lon="3.51266">
        <ele>1147.775</ele>
        <time>2019-07-29T16:46:01Z</time>
      </trkpt>
      <trkpt lat="44.22555" lon="3.5127">
        <ele>1146.995</ele>
        <time>2019-07-29T16:46:05Z</time>
      </trkpt>
      <trkpt lat="44.22559" lon="3.51274">
        <ele>1144.849</ele>
        <time>2019-07-29T16:46:10Z</time>
      </trkpt>
      <trkpt lat="44.22563" lon="3.5128">
        <ele>1142.723</ele>
        <time>2019-07-29T16:46:15Z</time>
      </trkpt>
      <trkpt lat="44.22564" lon="3.51287">
        <ele>1141.908</ele>
        <time>2019-07-29T16:46:19Z</time>
      </trkpt>
      <trkpt lat="44.22564" lon="3.51294">
        <ele>1141.472</ele>
        <time>2019-07-29T16:46:23Z</time>
      </trkpt>
      <trkpt lat="44.22563" lon="3.51301">
        <ele>1140.788</ele>
        <time>2019-07-29T16:46:28Z</time>
      </trkpt>
      <trkpt lat="44.2256" lon="3.51307">
        <ele>1139.993</ele>
        <time>2019-07-29T16:46:32Z</time>
      </trkpt>
      <trkpt lat="44.22559" lon="3.51315">
        <ele>1139.427</ele>
        <time>2019-07-29T16:47:08Z</time>
      </trkpt>
      <trkpt lat="44.22548" lon="3.51322">
        <ele>1136.751</ele>
        <time>2019-07-29T16:47:52Z</time>
      </trkpt>
      <trkpt lat="44.22544" lon="3.51328">
        <ele>1136.322</ele>
        <time>2019-07-29T16:48:38Z</time>
      </trkpt>
      <trkpt lat="44.2254" lon="3.51331">
        <ele>1136.526</ele>
        <time>2019-07-29T16:48:42Z</time>
      </trkpt>
      <trkpt lat="44.22538" lon="3.51338">
        <ele>1135.845</ele>
        <time>2019-07-29T16:48:46Z</time>
      </trkpt>
      <trkpt lat="44.22536" lon="3.51345">
        <ele>1135.891</ele>
        <time>2019-07-29T16:48:50Z</time>
      </trkpt>
      <trkpt lat="44.22534" lon="3.51351">
        <ele>1135.881</ele>
        <time>2019-07-29T16:48:53Z</time>
      </trkpt>
      <trkpt lat="44.22534" lon="3.51358">
        <ele>1136.219</ele>
        <time>2019-07-29T16:48:57Z</time>
      </trkpt>
      <trkpt lat="44.22534" lon="3.51365">
        <ele>1135.608</ele>
        <time>2019-07-29T16:49:02Z</time>
      </trkpt>
      <trkpt lat="44.22537" lon="3.51371">
        <ele>1135.332</ele>
        <time>2019-07-29T16:49:06Z</time>
      </trkpt>
      <trkpt lat="44.22541" lon="3.51375">
        <ele>1135.148</ele>
        <time>2019-07-29T16:49:10Z</time>
      </trkpt>
      <trkpt lat="44.22544" lon="3.51379">
        <ele>1135.023</ele>
        <time>2019-07-29T16:49:14Z</time>
      </trkpt>
      <trkpt lat="44.22549" lon="3.51383">
        <ele>1134.917</ele>
        <time>2019-07-29T16:49:19Z</time>
      </trkpt>
      <trkpt lat="44.22552" lon="3.51389">
        <ele>1134.991</ele>
        <time>2019-07-29T16:49:24Z</time>
      </trkpt>
      <trkpt lat="44.22556" lon="3.51393">
        <ele>1133.782</ele>
        <time>2019-07-29T16:49:29Z</time>
      </trkpt>
      <trkpt lat="44.2256" lon="3.51398">
        <ele>1133.436</ele>
        <time>2019-07-29T16:49:34Z</time>
      </trkpt>
      <trkpt lat="44.22563" lon="3.51404">
        <ele>1131.635</ele>
        <time>2019-07-29T16:49:38Z</time>
      </trkpt>
      <trkpt lat="44.22565" lon="3.5141">
        <ele>1131.365</ele>
        <time>2019-07-29T16:49:42Z</time>
      </trkpt>
      <trkpt lat="44.22567" lon="3.51418">
        <ele>1131.168</ele>
        <time>2019-07-29T16:49:46Z</time>
      </trkpt>
      <trkpt lat="44.22569" lon="3.51423">
        <ele>1131.414</ele>
        <time>2019-07-29T16:49:49Z</time>
      </trkpt>
      <trkpt lat="44.22571" lon="3.5143">
        <ele>1131.608</ele>
        <time>2019-07-29T16:49:53Z</time>
      </trkpt>
      <trkpt lat="44.22574" lon="3.51436">
        <ele>1132.519</ele>
        <time>2019-07-29T16:49:57Z</time>
      </trkpt>
      <trkpt lat="44.22576" lon="3.51442">
        <ele>1133.435</ele>
        <time>2019-07-29T16:50:00Z</time>
      </trkpt>
      <trkpt lat="44.22578" lon="3.51448">
        <ele>1134.81</ele>
        <time>2019-07-29T16:50:04Z</time>
      </trkpt>
      <trkpt lat="44.2258" lon="3.51455">
        <ele>1136.024</ele>
        <time>2019-07-29T16:50:08Z</time>
      </trkpt>
      <trkpt lat="44.22585" lon="3.51461">
        <ele>1137.988</ele>
        <time>2019-07-29T16:50:12Z</time>
      </trkpt>
      <trkpt lat="44.22588" lon="3.51467">
        <ele>1138.359</ele>
        <time>2019-07-29T16:50:16Z</time>
      </trkpt>
      <trkpt lat="44.22589" lon="3.51474">
        <ele>1138.583</ele>
        <time>2019-07-29T16:50:20Z</time>
      </trkpt>
      <trkpt lat="44.2259" lon="3.51481">
        <ele>1138.612</ele>
        <time>2019-07-29T16:50:24Z</time>
      </trkpt>
      <trkpt lat="44.22592" lon="3.51487">
        <ele>1137.529</ele>
        <time>2019-07-29T16:50:29Z</time>
      </trkpt>
      <trkpt lat="44.22594" lon="3.51493">
        <ele>1136.8</ele>
        <time>2019-07-29T16:50:33Z</time>
      </trkpt>
      <trkpt lat="44.22595" lon="3.515">
        <ele>1136.82</ele>
        <time>2019-07-29T16:50:36Z</time>
      </trkpt>
      <trkpt lat="44.22595" lon="3.51506">
        <ele>1136.808</ele>
        <time>2019-07-29T16:50:39Z</time>
      </trkpt>
      <trkpt lat="44.22597" lon="3.51513">
        <ele>1136.035</ele>
        <time>2019-07-29T16:50:44Z</time>
      </trkpt>
      <trkpt lat="44.226" lon="3.51518">
        <ele>1135.131</ele>
        <time>2019-07-29T16:50:49Z</time>
      </trkpt>
      <trkpt lat="44.22604" lon="3.51521">
        <ele>1133.846</ele>
        <time>2019-07-29T16:50:57Z</time>
      </trkpt>
      <trkpt lat="44.22609" lon="3.51522">
        <ele>1131.01</ele>
        <time>2019-07-29T16:51:03Z</time>
      </trkpt>
      <trkpt lat="44.22614" lon="3.51527">
        <ele>1129.394</ele>
        <time>2019-07-29T16:51:07Z</time>
      </trkpt>
      <trkpt lat="44.22618" lon="3.51531">
        <ele>1127.595</ele>
        <time>2019-07-29T16:51:11Z</time>
      </trkpt>
      <trkpt lat="44.22622" lon="3.51537">
        <ele>1125.619</ele>
        <time>2019-07-29T16:51:15Z</time>
      </trkpt>
      <trkpt lat="44.22626" lon="3.51542">
        <ele>1123.748</ele>
        <time>2019-07-29T16:51:20Z</time>
      </trkpt>
      <trkpt lat="44.22629" lon="3.51548">
        <ele>1122.157</ele>
        <time>2019-07-29T16:51:24Z</time>
      </trkpt>
      <trkpt lat="44.22631" lon="3.51555">
        <ele>1122</ele>
        <time>2019-07-29T16:51:28Z</time>
      </trkpt>
      <trkpt lat="44.22633" lon="3.51561">
        <ele>1121.92</ele>
        <time>2019-07-29T16:51:31Z</time>
      </trkpt>
      <trkpt lat="44.22633" lon="3.51568">
        <ele>1121.908</ele>
        <time>2019-07-29T16:51:38Z</time>
      </trkpt>
      <trkpt lat="44.22632" lon="3.51575">
        <ele>1121.528</ele>
        <time>2019-07-29T16:51:42Z</time>
      </trkpt>
      <trkpt lat="44.22632" lon="3.51583">
        <ele>1121.224</ele>
        <time>2019-07-29T16:51:46Z</time>
      </trkpt>
      <trkpt lat="44.22632" lon="3.51591">
        <ele>1121.089</ele>
        <time>2019-07-29T16:51:50Z</time>
      </trkpt>
      <trkpt lat="44.22635" lon="3.51598">
        <ele>1121.343</ele>
        <time>2019-07-29T16:51:54Z</time>
      </trkpt>
      <trkpt lat="44.22638" lon="3.51603">
        <ele>1120.797</ele>
        <time>2019-07-29T16:51:58Z</time>
      </trkpt>
      <trkpt lat="44.22641" lon="3.51607">
        <ele>1119.938</ele>
        <time>2019-07-29T16:52:04Z</time>
      </trkpt>
      <trkpt lat="44.22648" lon="3.51614">
        <ele>1118.632</ele>
        <time>2019-07-29T16:52:31Z</time>
      </trkpt>
      <trkpt lat="44.22652" lon="3.51621">
        <ele>1117.831</ele>
        <time>2019-07-29T16:52:37Z</time>
      </trkpt>
      <trkpt lat="44.22655" lon="3.51626">
        <ele>1116.921</ele>
        <time>2019-07-29T16:52:40Z</time>
      </trkpt>
      <trkpt lat="44.22657" lon="3.51633">
        <ele>1116.841</ele>
        <time>2019-07-29T16:52:44Z</time>
      </trkpt>
      <trkpt lat="44.22659" lon="3.51639">
        <ele>1116.305</ele>
        <time>2019-07-29T16:52:47Z</time>
      </trkpt>
      <trkpt lat="44.22661" lon="3.51647">
        <ele>1115.608</ele>
        <time>2019-07-29T16:52:51Z</time>
      </trkpt>
      <trkpt lat="44.22662" lon="3.51654">
        <ele>1114.445</ele>
        <time>2019-07-29T16:52:55Z</time>
      </trkpt>
      <trkpt lat="44.22663" lon="3.5166">
        <ele>1114.581</ele>
        <time>2019-07-29T16:52:58Z</time>
      </trkpt>
      <trkpt lat="44.22666" lon="3.51666">
        <ele>1114.966</ele>
        <time>2019-07-29T16:53:01Z</time>
      </trkpt>
      <trkpt lat="44.22667" lon="3.51673">
        <ele>1115.26</ele>
        <time>2019-07-29T16:53:04Z</time>
      </trkpt>
      <trkpt lat="44.2267" lon="3.5168">
        <ele>1115.844</ele>
        <time>2019-07-29T16:53:07Z</time>
      </trkpt>
      <trkpt lat="44.22672" lon="3.51686">
        <ele>1116.995</ele>
        <time>2019-07-29T16:53:10Z</time>
      </trkpt>
      <trkpt lat="44.22674" lon="3.51693">
        <ele>1115.619</ele>
        <time>2019-07-29T16:53:16Z</time>
      </trkpt>
      <trkpt lat="44.22676" lon="3.51699">
        <ele>1115.688</ele>
        <time>2019-07-29T16:53:20Z</time>
      </trkpt>
      <trkpt lat="44.22678" lon="3.51705">
        <ele>1116.054</ele>
        <time>2019-07-29T16:53:24Z</time>
      </trkpt>
      <trkpt lat="44.2268" lon="3.51712">
        <ele>1116.256</ele>
        <time>2019-07-29T16:53:28Z</time>
      </trkpt>
      <trkpt lat="44.22682" lon="3.51718">
        <ele>1116.311</ele>
        <time>2019-07-29T16:53:32Z</time>
      </trkpt>
      <trkpt lat="44.22684" lon="3.51725">
        <ele>1116.008</ele>
        <time>2019-07-29T16:53:36Z</time>
      </trkpt>
      <trkpt lat="44.22685" lon="3.51732">
        <ele>1115.858</ele>
        <time>2019-07-29T16:53:40Z</time>
      </trkpt>
      <trkpt lat="44.22688" lon="3.51739">
        <ele>1115.754</ele>
        <time>2019-07-29T16:53:45Z</time>
      </trkpt>
      <trkpt lat="44.22689" lon="3.51746">
        <ele>1114.879</ele>
        <time>2019-07-29T16:53:50Z</time>
      </trkpt>
      <trkpt lat="44.2269" lon="3.51752">
        <ele>1113.973</ele>
        <time>2019-07-29T16:53:55Z</time>
      </trkpt>
      <trkpt lat="44.22692" lon="3.51759">
        <ele>1114.147</ele>
        <time>2019-07-29T16:53:59Z</time>
      </trkpt>
      <trkpt lat="44.22695" lon="3.51766">
        <ele>1114.298</ele>
        <time>2019-07-29T16:54:03Z</time>
      </trkpt>
      <trkpt lat="44.22697" lon="3.51772">
        <ele>1114.322</ele>
        <time>2019-07-29T16:54:06Z</time>
      </trkpt>
      <trkpt lat="44.227" lon="3.51778">
        <ele>1114.091</ele>
        <time>2019-07-29T16:54:10Z</time>
      </trkpt>
      <trkpt lat="44.22702" lon="3.51785">
        <ele>1114.646</ele>
        <time>2019-07-29T16:54:14Z</time>
      </trkpt>
      <trkpt lat="44.22703" lon="3.51791">
        <ele>1115.488</ele>
        <time>2019-07-29T16:54:17Z</time>
      </trkpt>
      <trkpt lat="44.22705" lon="3.51798">
        <ele>1116.716</ele>
        <time>2019-07-29T16:54:21Z</time>
      </trkpt>
      <trkpt lat="44.22705" lon="3.51806">
        <ele>1117.508</ele>
        <time>2019-07-29T16:54:25Z</time>
      </trkpt>
      <trkpt lat="44.22707" lon="3.51814">
        <ele>1117.237</ele>
        <time>2019-07-29T16:54:34Z</time>
      </trkpt>
      <trkpt lat="44.22707" lon="3.51823">
        <ele>1117.433</ele>
        <time>2019-07-29T16:54:48Z</time>
      </trkpt>
      <trkpt lat="44.22709" lon="3.5183">
        <ele>1117.188</ele>
        <time>2019-07-29T16:54:54Z</time>
      </trkpt>
      <trkpt lat="44.22711" lon="3.51837">
        <ele>1117.382</ele>
        <time>2019-07-29T16:54:59Z</time>
      </trkpt>
      <trkpt lat="44.22713" lon="3.51843">
        <ele>1117.036</ele>
        <time>2019-07-29T16:55:04Z</time>
      </trkpt>
      <trkpt lat="44.22715" lon="3.5185">
        <ele>1116.867</ele>
        <time>2019-07-29T16:55:12Z</time>
      </trkpt>
      <trkpt lat="44.22718" lon="3.51856">
        <ele>1116.311</ele>
        <time>2019-07-29T16:55:17Z</time>
      </trkpt>
      <trkpt lat="44.22721" lon="3.51861">
        <ele>1116.02</ele>
        <time>2019-07-29T16:55:21Z</time>
      </trkpt>
      <trkpt lat="44.22724" lon="3.51866">
        <ele>1115.453</ele>
        <time>2019-07-29T16:55:25Z</time>
      </trkpt>
      <trkpt lat="44.22727" lon="3.5187">
        <ele>1115.504</ele>
        <time>2019-07-29T16:55:29Z</time>
      </trkpt>
      <trkpt lat="44.2273" lon="3.51876">
        <ele>1115.514</ele>
        <time>2019-07-29T16:55:33Z</time>
      </trkpt>
      <trkpt lat="44.22732" lon="3.51883">
        <ele>1115.908</ele>
        <time>2019-07-29T16:55:38Z</time>
      </trkpt>
      <trkpt lat="44.22736" lon="3.51887">
        <ele>1116.258</ele>
        <time>2019-07-29T16:55:42Z</time>
      </trkpt>
      <trkpt lat="44.22739" lon="3.51892">
        <ele>1116.484</ele>
        <time>2019-07-29T16:55:46Z</time>
      </trkpt>
      <trkpt lat="44.22743" lon="3.51896">
        <ele>1116.919</ele>
        <time>2019-07-29T16:55:49Z</time>
      </trkpt>
      <trkpt lat="44.22747" lon="3.519">
        <ele>1117.683</ele>
        <time>2019-07-29T16:55:53Z</time>
      </trkpt>
      <trkpt lat="44.22751" lon="3.51904">
        <ele>1118.027</ele>
        <time>2019-07-29T16:55:57Z</time>
      </trkpt>
      <trkpt lat="44.22755" lon="3.51907">
        <ele>1118.628</ele>
        <time>2019-07-29T16:56:01Z</time>
      </trkpt>
      <trkpt lat="44.2276" lon="3.51908">
        <ele>1118.692</ele>
        <time>2019-07-29T16:56:06Z</time>
      </trkpt>
      <trkpt lat="44.22764" lon="3.51911">
        <ele>1118.621</ele>
        <time>2019-07-29T16:56:10Z</time>
      </trkpt>
      <trkpt lat="44.22768" lon="3.51915">
        <ele>1119.016</ele>
        <time>2019-07-29T16:56:14Z</time>
      </trkpt>
      <trkpt lat="44.22769" lon="3.51923">
        <ele>1118.876</ele>
        <time>2019-07-29T16:56:19Z</time>
      </trkpt>
      <trkpt lat="44.2277" lon="3.51931">
        <ele>1118.713</ele>
        <time>2019-07-29T16:56:23Z</time>
      </trkpt>
      <trkpt lat="44.22774" lon="3.51937">
        <ele>1117.808</ele>
        <time>2019-07-29T16:56:28Z</time>
      </trkpt>
      <trkpt lat="44.22776" lon="3.51943">
        <ele>1117.354</ele>
        <time>2019-07-29T16:56:33Z</time>
      </trkpt>
      <trkpt lat="44.22779" lon="3.51949">
        <ele>1117.46</ele>
        <time>2019-07-29T16:56:37Z</time>
      </trkpt>
      <trkpt lat="44.22782" lon="3.51954">
        <ele>1117.515</ele>
        <time>2019-07-29T16:56:41Z</time>
      </trkpt>
      <trkpt lat="44.22784" lon="3.5196">
        <ele>1117.199</ele>
        <time>2019-07-29T16:56:45Z</time>
      </trkpt>
      <trkpt lat="44.22787" lon="3.51966">
        <ele>1116.973</ele>
        <time>2019-07-29T16:56:49Z</time>
      </trkpt>
      <trkpt lat="44.22791" lon="3.5197">
        <ele>1116.444</ele>
        <time>2019-07-29T16:56:54Z</time>
      </trkpt>
      <trkpt lat="44.22794" lon="3.51976">
        <ele>1115.798</ele>
        <time>2019-07-29T16:56:59Z</time>
      </trkpt>
      <trkpt lat="44.22796" lon="3.51982">
        <ele>1115.317</ele>
        <time>2019-07-29T16:57:03Z</time>
      </trkpt>
      <trkpt lat="44.22799" lon="3.51988">
        <ele>1115.882</ele>
        <time>2019-07-29T16:57:07Z</time>
      </trkpt>
      <trkpt lat="44.22801" lon="3.51995">
        <ele>1115.743</ele>
        <time>2019-07-29T16:57:29Z</time>
      </trkpt>
      <trkpt lat="44.22804" lon="3.52">
        <ele>1116.117</ele>
        <time>2019-07-29T16:57:34Z</time>
      </trkpt>
      <trkpt lat="44.22807" lon="3.52005">
        <ele>1116.308</ele>
        <time>2019-07-29T16:57:38Z</time>
      </trkpt>
      <trkpt lat="44.22812" lon="3.5201">
        <ele>1116.031</ele>
        <time>2019-07-29T16:57:42Z</time>
      </trkpt>
      <trkpt lat="44.22816" lon="3.52014">
        <ele>1115.417</ele>
        <time>2019-07-29T16:57:46Z</time>
      </trkpt>
      <trkpt lat="44.22819" lon="3.52018">
        <ele>1114.752</ele>
        <time>2019-07-29T16:57:50Z</time>
      </trkpt>
      <trkpt lat="44.22823" lon="3.52023">
        <ele>1115.576</ele>
        <time>2019-07-29T16:57:54Z</time>
      </trkpt>
      <trkpt lat="44.22826" lon="3.52029">
        <ele>1116.49</ele>
        <time>2019-07-29T16:57:58Z</time>
      </trkpt>
      <trkpt lat="44.2283" lon="3.52035">
        <ele>1116.591</ele>
        <time>2019-07-29T16:58:03Z</time>
      </trkpt>
      <trkpt lat="44.22834" lon="3.52039">
        <ele>1116.285</ele>
        <time>2019-07-29T16:58:08Z</time>
      </trkpt>
      <trkpt lat="44.22838" lon="3.52045">
        <ele>1116.414</ele>
        <time>2019-07-29T16:58:12Z</time>
      </trkpt>
      <trkpt lat="44.22841" lon="3.52052">
        <ele>1116.912</ele>
        <time>2019-07-29T16:58:17Z</time>
      </trkpt>
      <trkpt lat="44.22843" lon="3.52059">
        <ele>1118.032</ele>
        <time>2019-07-29T16:58:21Z</time>
      </trkpt>
      <trkpt lat="44.22845" lon="3.52066">
        <ele>1118.705</ele>
        <time>2019-07-29T16:58:25Z</time>
      </trkpt>
      <trkpt lat="44.22847" lon="3.52071">
        <ele>1119.508</ele>
        <time>2019-07-29T16:58:30Z</time>
      </trkpt>
      <trkpt lat="44.22849" lon="3.52077">
        <ele>1120.484</ele>
        <time>2019-07-29T16:58:34Z</time>
      </trkpt>
      <trkpt lat="44.22849" lon="3.52085">
        <ele>1121.71</ele>
        <time>2019-07-29T16:58:38Z</time>
      </trkpt>
      <trkpt lat="44.22849" lon="3.52092">
        <ele>1122.965</ele>
        <time>2019-07-29T16:58:42Z</time>
      </trkpt>
      <trkpt lat="44.22849" lon="3.52098">
        <ele>1123.639</ele>
        <time>2019-07-29T16:58:46Z</time>
      </trkpt>
      <trkpt lat="44.2285" lon="3.52105">
        <ele>1123.253</ele>
        <time>2019-07-29T16:58:50Z</time>
      </trkpt>
      <trkpt lat="44.22851" lon="3.52113">
        <ele>1123.064</ele>
        <time>2019-07-29T16:58:54Z</time>
      </trkpt>
      <trkpt lat="44.22851" lon="3.52121">
        <ele>1123.788</ele>
        <time>2019-07-29T16:58:59Z</time>
      </trkpt>
      <trkpt lat="44.22852" lon="3.52127">
        <ele>1124.547</ele>
        <time>2019-07-29T16:59:03Z</time>
      </trkpt>
      <trkpt lat="44.22852" lon="3.52134">
        <ele>1125.822</ele>
        <time>2019-07-29T16:59:07Z</time>
      </trkpt>
      <trkpt lat="44.22852" lon="3.52142">
        <ele>1126.662</ele>
        <time>2019-07-29T16:59:11Z</time>
      </trkpt>
      <trkpt lat="44.22852" lon="3.52149">
        <ele>1127.108</ele>
        <time>2019-07-29T16:59:15Z</time>
      </trkpt>
      <trkpt lat="44.22853" lon="3.52155">
        <ele>1127.808</ele>
        <time>2019-07-29T16:59:20Z</time>
      </trkpt>
      <trkpt lat="44.22855" lon="3.52162">
        <ele>1128.665</ele>
        <time>2019-07-29T16:59:25Z</time>
      </trkpt>
      <trkpt lat="44.22856" lon="3.52168">
        <ele>1128.721</ele>
        <time>2019-07-29T16:59:29Z</time>
      </trkpt>
      <trkpt lat="44.22858" lon="3.52175">
        <ele>1128.436</ele>
        <time>2019-07-29T16:59:34Z</time>
      </trkpt>
      <trkpt lat="44.22858" lon="3.52182">
        <ele>1129.04</ele>
        <time>2019-07-29T16:59:39Z</time>
      </trkpt>
      <trkpt lat="44.22859" lon="3.5219">
        <ele>1129.024</ele>
        <time>2019-07-29T16:59:44Z</time>
      </trkpt>
      <trkpt lat="44.22859" lon="3.52197">
        <ele>1129.065</ele>
        <time>2019-07-29T16:59:49Z</time>
      </trkpt>
      <trkpt lat="44.22861" lon="3.52204">
        <ele>1128.659</ele>
        <time>2019-07-29T16:59:55Z</time>
      </trkpt>
      <trkpt lat="44.22861" lon="3.52211">
        <ele>1129.258</ele>
        <time>2019-07-29T17:00:01Z</time>
      </trkpt>
      <trkpt lat="44.22862" lon="3.52217">
        <ele>1129.133</ele>
        <time>2019-07-29T17:00:05Z</time>
      </trkpt>
      <trkpt lat="44.22863" lon="3.52224">
        <ele>1129.523</ele>
        <time>2019-07-29T17:00:10Z</time>
      </trkpt>
      <trkpt lat="44.22862" lon="3.5223">
        <ele>1130.115</ele>
        <time>2019-07-29T17:00:13Z</time>
      </trkpt>
      <trkpt lat="44.22862" lon="3.52237">
        <ele>1130.508</ele>
        <time>2019-07-29T17:00:17Z</time>
      </trkpt>
      <trkpt lat="44.22862" lon="3.52243">
        <ele>1131.126</ele>
        <time>2019-07-29T17:00:21Z</time>
      </trkpt>
      <trkpt lat="44.22863" lon="3.5225">
        <ele>1131.142</ele>
        <time>2019-07-29T17:00:26Z</time>
      </trkpt>
      <trkpt lat="44.22865" lon="3.52256">
        <ele>1131.967</ele>
        <time>2019-07-29T17:00:30Z</time>
      </trkpt>
      <trkpt lat="44.22866" lon="3.52263">
        <ele>1132.071</ele>
        <time>2019-07-29T17:00:35Z</time>
      </trkpt>
      <trkpt lat="44.22865" lon="3.5227">
        <ele>1132.025</ele>
        <time>2019-07-29T17:00:40Z</time>
      </trkpt>
      <trkpt lat="44.22865" lon="3.52277">
        <ele>1132.046</ele>
        <time>2019-07-29T17:00:46Z</time>
      </trkpt>
      <trkpt lat="44.22866" lon="3.52284">
        <ele>1130.81</ele>
        <time>2019-07-29T17:00:51Z</time>
      </trkpt>
      <trkpt lat="44.22867" lon="3.5229">
        <ele>1130.599</ele>
        <time>2019-07-29T17:00:57Z</time>
      </trkpt>
      <trkpt lat="44.22869" lon="3.52297">
        <ele>1130.738</ele>
        <time>2019-07-29T17:01:04Z</time>
      </trkpt>
      <trkpt lat="44.2287" lon="3.52304">
        <ele>1130.47</ele>
        <time>2019-07-29T17:01:24Z</time>
      </trkpt>
      <trkpt lat="44.2287" lon="3.52311">
        <ele>1130.617</ele>
        <time>2019-07-29T17:01:28Z</time>
      </trkpt>
      <trkpt lat="44.22871" lon="3.52318">
        <ele>1130.308</ele>
        <time>2019-07-29T17:01:32Z</time>
      </trkpt>
      <trkpt lat="44.22872" lon="3.52326">
        <ele>1130.556</ele>
        <time>2019-07-29T17:01:37Z</time>
      </trkpt>
      <trkpt lat="44.22871" lon="3.52332">
        <ele>1131.432</ele>
        <time>2019-07-29T17:01:40Z</time>
      </trkpt>
      <trkpt lat="44.2287" lon="3.52338">
        <ele>1132.487</ele>
        <time>2019-07-29T17:01:44Z</time>
      </trkpt>
      <trkpt lat="44.22869" lon="3.52345">
        <ele>1133.471</ele>
        <time>2019-07-29T17:01:48Z</time>
      </trkpt>
      <trkpt lat="44.22868" lon="3.52353">
        <ele>1133.285</ele>
        <time>2019-07-29T17:02:13Z</time>
      </trkpt>
      <trkpt lat="44.22869" lon="3.5236">
        <ele>1132.756</ele>
        <time>2019-07-29T17:02:21Z</time>
      </trkpt>
      <trkpt lat="44.22869" lon="3.52367">
        <ele>1133.24</ele>
        <time>2019-07-29T17:02:25Z</time>
      </trkpt>
      <trkpt lat="44.2287" lon="3.52374">
        <ele>1133.549</ele>
        <time>2019-07-29T17:02:31Z</time>
      </trkpt>
      <trkpt lat="44.22866" lon="3.52377">
        <ele>1134.556</ele>
        <time>2019-07-29T17:06:45Z</time>
      </trkpt>
      <trkpt lat="44.22861" lon="3.52378">
        <ele>1133.959</ele>
        <time>2019-07-29T17:06:49Z</time>
      </trkpt>
      <trkpt lat="44.22856" lon="3.52383">
        <ele>1134.314</ele>
        <time>2019-07-29T17:07:03Z</time>
      </trkpt>
      <trkpt lat="44.22855" lon="3.5239">
        <ele>1134.208</ele>
        <time>2019-07-29T17:07:07Z</time>
      </trkpt>
      <trkpt lat="44.22853" lon="3.52397">
        <ele>1134.518</ele>
        <time>2019-07-29T17:07:11Z</time>
      </trkpt>
      <trkpt lat="44.22851" lon="3.52404">
        <ele>1135.184</ele>
        <time>2019-07-29T17:07:15Z</time>
      </trkpt>
      <trkpt lat="44.22852" lon="3.52411">
        <ele>1135.549</ele>
        <time>2019-07-29T17:07:19Z</time>
      </trkpt>
      <trkpt lat="44.22855" lon="3.52417">
        <ele>1136.573</ele>
        <time>2019-07-29T17:07:23Z</time>
      </trkpt>
      <trkpt lat="44.22861" lon="3.52422">
        <ele>1137.167</ele>
        <time>2019-07-29T17:07:39Z</time>
      </trkpt>
      <trkpt lat="44.22867" lon="3.52422">
        <ele>1137.138</ele>
        <time>2019-07-29T17:07:45Z</time>
      </trkpt>
      <trkpt lat="44.22871" lon="3.52422">
        <ele>1137.582</ele>
        <time>2019-07-29T17:07:48Z</time>
      </trkpt>
      <trkpt lat="44.22876" lon="3.52422">
        <ele>1137.711</ele>
        <time>2019-07-29T17:07:51Z</time>
      </trkpt>
      <trkpt lat="44.22882" lon="3.5242">
        <ele>1138.259</ele>
        <time>2019-07-29T17:07:55Z</time>
      </trkpt>
      <trkpt lat="44.22886" lon="3.52417">
        <ele>1138.903</ele>
        <time>2019-07-29T17:07:59Z</time>
      </trkpt>
      <trkpt lat="44.2289" lon="3.52414">
        <ele>1138.523</ele>
        <time>2019-07-29T17:08:03Z</time>
      </trkpt>
      <trkpt lat="44.22893" lon="3.52409">
        <ele>1138.308</ele>
        <time>2019-07-29T17:08:07Z</time>
      </trkpt>
      <trkpt lat="44.22896" lon="3.52403">
        <ele>1139.498</ele>
        <time>2019-07-29T17:08:10Z</time>
      </trkpt>
      <trkpt lat="44.22898" lon="3.52397">
        <ele>1140.424</ele>
        <time>2019-07-29T17:08:13Z</time>
      </trkpt>
      <trkpt lat="44.229" lon="3.52392">
        <ele>1140.679</ele>
        <time>2019-07-29T17:08:17Z</time>
      </trkpt>
      <trkpt lat="44.22905" lon="3.52388">
        <ele>1140.783</ele>
        <time>2019-07-29T17:08:23Z</time>
      </trkpt>
      <trkpt lat="44.22909" lon="3.52383">
        <ele>1140.417</ele>
        <time>2019-07-29T17:08:27Z</time>
      </trkpt>
      <trkpt lat="44.22913" lon="3.5238">
        <ele>1140.688</ele>
        <time>2019-07-29T17:08:50Z</time>
      </trkpt>
      <trkpt lat="44.22918" lon="3.52377">
        <ele>1141.932</ele>
        <time>2019-07-29T17:08:53Z</time>
      </trkpt>
      <trkpt lat="44.22924" lon="3.52372">
        <ele>1142.731</ele>
        <time>2019-07-29T17:08:56Z</time>
      </trkpt>
      <trkpt lat="44.22928" lon="3.52371">
        <ele>1144.076</ele>
        <time>2019-07-29T17:08:59Z</time>
      </trkpt>
      <trkpt lat="44.22933" lon="3.52371">
        <ele>1144.09</ele>
        <time>2019-07-29T17:09:04Z</time>
      </trkpt>
      <trkpt lat="44.22937" lon="3.52376">
        <ele>1144.019</ele>
        <time>2019-07-29T17:09:10Z</time>
      </trkpt>
      <trkpt lat="44.22941" lon="3.52379">
        <ele>1144.008</ele>
        <time>2019-07-29T17:09:15Z</time>
      </trkpt>
      <trkpt lat="44.22947" lon="3.52381">
        <ele>1145.21</ele>
        <time>2019-07-29T17:09:27Z</time>
      </trkpt>
      <trkpt lat="44.22952" lon="3.52382">
        <ele>1145.516</ele>
        <time>2019-07-29T17:09:35Z</time>
      </trkpt>
    </trkseg>
  </trk>
</gpx>